[[{"header":{"parameterUnit":"m.s-1","parameterCategory":1,"la1":30.6,"la2":28.766,"lo1":-90.7593,"lo2":-88.6598,"dy":0.0162,"dx":0.0183,"nx":116,"ny":114,"refTime":"2023-07-10T00:00:00:Z","depth":0,"parameterNumber":2,"parameterNumberName":"U-component_of_WINDS"},"data":[0.0,0.0,0.0,0.0,0.0,0.0,0.0,0.0,0.0,0.0,0.0,0.0,0.0,0.0,0.0,0.0,0.0,0.0,0.0,0.0,0.0,0.0,0.0,0.0,0.0,0.0,0.0,0.0,0.0,0.0,0.0,0.0,0.0,0.0,0.0,0.0,0.0,0.0,0.0,0.0,0.0,0.0,0.0,0.0,0.0,0.0,0.0,0.0,0.0,0.0,0.0,0.0,0.0,0.0,0.0,0.0,0.0,0.0,0.0,0.0,0.0,0.0,0.0,0.0,0.0,0.0,0.0,0.0,0.0,0.0,0.0,0.0,0.0,0.0,0.0,0.0,0.0,0.0,0.0,0.0,0.0,0.0,0.0,0.0,0.0,0.0,0.0,0.0,0.0,0.0,0.0,0.0,0.0,0.0,0.0,0.0,0.0,0.0,0.0,0.0,0.0,0.0,0.0,0.0,0.0,0.0,0.0,0.0,0.0,0.0,0.0,0.0,0.0,0.0,0.0,0.0,0.0,0.0,0.0,0.0,0.0,0.0,0.0,0.0,0.0,0.0,0.0,0.0,0.0,0.0,0.0,0.0,0.0,0.0,0.0,0.0,0.0,0.0,0.0,0.0,0.0,0.0,0.0,0.0,0.0,0.0,0.0,0.0,0.0,0.0,0.0,0.0,0.0,0.0,0.0,0.0,0.0,0.0,0.0,0.0,0.0,0.0,0.0,0.0,0.0,0.0,0.0,0.0,0.0,0.0,0.0,0.0,0.0,0.0,0.0,0.0,0.0,0.0,0.0,0.0,0.0,0.0,0.0,0.0,0.0,0.0,0.0,0.0,0.0,0.0,0.0,0.0,0.0,0.0,0.0,0.0,0.0,0.0,0.0,0.0,0.0,0.0,0.0,0.0,0.0,0.0,0.0,0.0,0.0,0.0,0.0,0.0,0.0,0.0,0.0,0.0,0.0,0.0,0.0,0.0,0.0,0.0,0.0,0.0,0.0,0.0,0.0,0.0,0.0,0.0,0.0,0.0,0.0,0.0,0.0,0.0,0.0,0.0,0.0,0.0,0.0,0.0,0.0,0.0,0.0,0.0,0.0,0.0,0.0,0.0,0.0,0.0,0.0,0.0,0.0,0.0,0.0,0.0,0.0,0.0,0.0,0.0,0.0,0.0,0.0,0.0,0.0,0.0,0.0,0.0,0.0,0.0,0.0,0.0,0.0,0.0,0.0,0.0,0.0,0.0,0.0,0.0,0.0,0.0,0.0,0.0,0.0,0.0,0.0,0.0,0.0,0.0,0.0,0.0,0.0,0.0,0.0,0.0,0.0,0.0,0.0,0.0,0.0,0.0,0.0,0.0,0.0,0.0,0.0,0.0,0.0,0.0,0.0,0.0,0.0,0.0,0.0,0.0,0.0,0.0,0.0,0.0,0.0,0.0,0.0,0.0,0.0,0.0,0.0,0.0,0.0,0.0,0.0,0.0,0.0,0.0,0.0,0.0,0.0,0.0,0.0,0.0,0.0,0.0,0.0,0.0,0.0,0.0,0.0,0.0,0.0,0.0,0.0,0.0,0.0,0.0,0.0,0.0,0.0,0.0,0.0,0.0,0.0,0.0,0.0,0.0,0.0,0.0,0.0,0.0,0.0,0.0,0.0,0.0,0.0,0.0,0.0,0.0,0.0,0.0,0.0,0.0,0.0,0.0,0.0,0.0,0.0,0.0,0.0,0.0,0.0,0.0,0.0,0.0,0.0,0.0,0.0,0.0,0.0,0.0,0.0,0.0,0.0,0.0,0.0,0.0,0.0,0.0,0.0,0.0,0.0,0.0,0.0,0.0,0.0,0.0,0.0,0.0,0.0,0.0,0.0,0.0,0.0,0.0,0.0,0.0,0.0,0.0,0.0,0.0,0.0,0.0,0.0,0.0,0.0,0.0,0.0,0.0,0.0,0.0,0.0,0.0,0.0,0.0,0.0,0.0,0.0,0.0,0.0,0.0,0.0,0.0,0.0,0.0,0.0,0.0,0.0,0.0,0.0,0.0,0.0,0.0,0.0,0.0,0.0,0.0,0.0,0.0,0.0,0.0,0.0,0.0,0.0,0.0,0.0,0.0,0.0,0.0,0.0,0.0,0.0,0.0,0.0,0.0,0.0,0.0,0.0,0.0,0.0,0.0,0.0,0.0,0.0,0.0,0.0,0.0,0.0,0.0,0.0,0.0,0.0,0.0,0.0,0.0,0.0,0.0,0.0,0.0,0.0,0.0,0.0,0.0,0.0,0.0,0.0,0.0,0.0,0.0,0.0,0.0,0.0,0.0,0.0,0.0,0.0,0.0,0.0,0.0,0.0,0.0,0.0,0.0,0.0,0.0,0.0,0.0,0.0,0.0,0.0,0.0,0.0,0.0,0.0,0.0,0.0,0.0,0.0,0.0,0.0,0.0,0.0,0.0,0.0,0.0,0.0,0.0,0.0,0.0,0.0,0.0,0.0,0.0,0.0,0.0,0.0,0.0,0.0,0.0,0.0,0.0,0.0,0.0,0.0,0.0,0.0,0.0,0.0,0.0,0.0,0.0,0.0,0.0,0.0,0.0,0.0,0.0,0.0,0.0,0.0,0.0,0.0,0.0,0.0,0.0,0.0,0.0,0.0,0.0,0.0,0.0,0.0,0.0,0.0,0.0,0.0,0.0,0.0,0.0,0.0,0.0,0.0,0.0,0.0,0.0,0.0,0.0,0.0,0.0,0.0,0.0,0.0,0.0,0.0,0.0,0.0,0.0,0.0,0.0,0.0,0.0,0.0,0.0,0.0,0.0,0.0,0.0,0.0,0.0,0.0,0.0,0.0,0.0,0.0,0.0,0.0,0.0,0.0,0.0,0.0,0.0,0.0,0.0,0.0,0.0,0.0,0.0,0.0,0.0,0.0,0.0,0.0,0.0,0.0,0.0,0.0,0.0,0.0,0.0,0.0,0.0,0.0,0.0,0.0,0.0,0.0,0.0,0.0,0.0,0.0,0.0,0.0,0.0,0.0,0.0,0.0,0.0,0.0,0.0,0.0,0.0,0.0,0.0,0.0,0.0,0.0,0.0,0.0,0.0,0.0,0.0,0.0,0.0,0.0,0.0,0.0,0.0,0.0,0.0,0.0,0.0,0.0,0.0,0.0,0.0,0.0,0.0,0.0,0.0,0.0,0.0,0.0,0.0,0.0,0.0,0.0,0.0,0.0,0.0,0.0,0.0,0.0,0.0,0.0,0.0,0.0,0.0,0.0,0.0,0.0,0.0,0.0,0.0,0.0,0.0,0.0,0.0,0.0,0.0,0.0,0.0,0.0,0.0,0.0,0.0,0.0,0.0,0.0,0.0,0.0,0.0,0.0,0.0,0.0,0.0,0.0,0.0,0.0,0.0,0.0,0.0,0.0,0.0,0.0,0.0,0.0,0.0,0.0,0.0,0.0,0.0,0.0,0.0,0.0,0.0,0.0,0.0,0.0,0.0,0.0,0.0,0.0,0.0,0.0,0.0,0.0,0.0,0.0,0.0,0.0,0.0,0.0,0.0,0.0,0.0,0.0,0.0,0.0,0.0,0.0,0.0,0.0,0.0,0.0,0.0,0.0,0.0,0.0,0.0,0.0,0.0,0.0,0.0,0.0,0.0,0.0,0.0,0.0,0.0,0.0,0.0,0.0,0.0,0.0,0.0,0.0,0.0,0.0,0.0,0.0,0.0,0.0,0.0,0.0,0.0,0.0,0.0,0.0,0.0,0.0,0.0,0.0,0.0,0.0,0.0,0.0,0.0,0.0,0.0,0.0,0.0,0.0,0.0,0.0,0.0,0.0,0.0,0.0,0.0,0.0,0.0,0.0,0.0,0.0,0.0,0.0,0.0,0.0,0.0,0.0,0.0,0.0,0.0,0.0,0.0,0.0,0.0,0.0,0.0,0.0,0.0,0.0,0.0,0.0,0.0,0.0,0.0,0.0,0.0,0.0,0.0,0.0,0.0,0.0,0.0,0.0,0.0,0.0,0.0,0.0,0.0,0.0,0.0,0.0,0.0,0.0,0.0,0.0,0.0,0.0,0.0,0.0,0.0,0.0,0.0,0.0,0.0,0.0,0.0,0.0,0.0,0.0,0.0,0.0,0.0,0.0,0.0,0.0,0.0,0.0,0.0,0.0,0.0,0.0,0.0,0.0,0.0,0.0,0.0,0.0,0.0,0.0,0.0,0.0,0.0,0.0,0.0,0.0,0.0,0.0,0.0,0.0,0.0,0.0,0.0,0.0,0.0,0.0,0.0,0.0,0.0,0.0,0.0,0.0,0.0,0.0,0.0,0.0,0.0,0.0,0.0,0.0,0.0,0.0,0.0,0.0,0.0,0.0,0.0,0.0,0.0,0.0,0.0,0.0,0.0,0.0,0.0,0.0,0.0,0.0,0.0,0.0,0.0,0.0,0.0,0.0,0.0,0.0,0.0,0.0,0.0,0.0,0.0,0.0,0.0,0.0,0.0,0.0,0.0,0.0,0.0,0.0,0.0,0.0,0.0,0.0,0.0,0.0,0.0,0.0,0.0,0.0,0.0,0.0,0.0,0.0,0.0,0.0,0.0,0.0,0.0,0.0,0.0,0.0,0.0,0.0,0.0,0.0,0.0,0.0,0.0,0.0,0.0,0.0,0.0,0.0,0.0,0.0,0.0,0.0,0.0,0.0,0.0,0.0,0.0,0.0,0.0,0.0,0.0,0.0,0.0,0.0,0.0,0.0,0.0,0.0,0.0,0.0,0.0,0.0,0.0,0.0,0.0,0.0,0.0,0.0,0.0,0.0,0.0,0.0,0.0,0.0,0.0,0.0,0.0,0.0,0.0,0.0,0.0,0.0,0.0,0.0,0.0,0.0,0.0,0.0,0.0,0.0,0.0,0.0,0.0,0.0,0.0,0.0,0.0,0.0,0.0,0.0,0.0,0.0,0.0,0.0,0.0,0.0,0.0,0.0,0.0,0.0,0.0,0.0,0.0,0.0,0.0,0.0,0.0,0.0,0.0,0.0,0.0,0.0,0.0,0.0,0.0,0.0,0.0,0.0,0.0,0.0,0.0,0.0,0.0,0.0,0.0,0.0,0.0,0.0,0.0,0.0,0.0,0.0,0.0,0.0,0.0,0.0,0.0,0.0,0.0,0.0,0.0,0.0,0.0,0.0,0.0,0.0,0.0,0.0,0.0,0.0,0.0,0.0,0.0,0.0,0.0,0.0,0.0,0.0,0.0,0.0,0.0,0.0,0.0,0.0,0.0,0.0,0.0,0.0,0.0,0.0,0.0,0.0,0.0,0.0,0.0,0.0,0.0,0.0,0.0,0.0,0.0,0.0,0.0,0.0,0.0,0.0,0.0,0.0,0.0,0.0,0.0,0.0,0.0,0.0,0.0,0.0,0.0,0.0,0.0,0.0,0.0,0.0,0.0,0.0,0.0,0.0,0.0,0.0,0.0,0.0,0.0,0.0,0.0,0.0,0.0,0.0,0.0,0.0,0.0,0.0,0.0,0.0,0.0,0.0,0.0,0.0,0.0,0.0,0.0,0.0,0.0,0.0,0.0,0.0,0.0,0.0,0.0,0.0,0.0,0.0,0.0,0.0,0.0,0.0,0.0,0.0,0.0,0.0,0.0,0.0,0.0,0.0,0.0,0.0,0.0,0.0,0.0,0.0,0.0,0.0,0.0,0.0,0.0,0.0,0.0,0.0,0.0,0.0,0.0,0.0,0.0,0.0,0.0,0.0,0.0,0.0,0.0,0.0,0.0,0.0,0.0,0.0,0.0,0.0,0.0,0.0,0.0,0.0,0.0,0.0,0.0,0.0,0.0,0.0,0.0,0.0,0.0,0.0,0.0,0.0,0.0,0.0,0.0,0.0,0.0,0.0,0.0,0.0,0.0,0.0,0.0,0.0,0.0,0.0,0.0,0.0,0.0,0.0,0.0,0.0,0.0,0.0,0.0,0.0,0.0,0.0,0.0,0.0,0.0,0.0,0.0,0.0,0.0,0.0,0.0,0.0,0.0,0.0,0.0,0.0,0.0,0.0,0.0,0.0,0.0,0.0,0.0,0.0,0.0,0.0,0.0,0.0,0.0,-0.6302,-0.5774,0.0,0.0,0.0,0.0,0.0,0.0,0.0,0.0,0.0,0.0,0.0,0.0,0.0,0.0,0.0,0.0,0.0,0.0,0.0,0.0,0.0,0.0,0.0,0.0,0.0,0.0,0.0,0.0,0.0,0.0,0.0,0.0,0.0,0.0,0.0,0.0,0.0,0.0,0.0,0.0,0.0,0.0,0.0,0.0,0.0,0.0,0.0,0.0,0.0,0.0,0.0,0.0,0.0,0.0,0.0,0.0,0.0,0.0,0.0,0.0,0.0,0.0,0.0,0.0,0.0,0.0,0.0,0.0,0.0,0.0,0.0,0.0,0.0,0.0,0.0,0.0,0.0,0.0,0.0,0.0,0.0,0.0,0.0,0.0,0.0,0.0,0.0,0.0,0.0,0.0,0.0,0.0,0.0,0.0,0.0,0.0,0.0,0.0,0.0,0.0,0.0,0.0,0.0,0.0,0.0,0.0,0.0,0.0,0.0,0.0,0.0,0.0,0.0,0.0,-0.6332,-0.6268,0.0,0.0,0.0,0.0,0.0,0.0,0.0,0.0,0.0,0.0,0.0,0.0,0.0,0.0,0.0,0.0,0.0,0.0,0.0,0.0,0.0,0.0,0.0,0.0,0.0,0.0,0.0,0.0,0.0,0.0,0.0,0.0,0.0,0.0,0.0,0.0,0.0,0.0,0.0,0.0,0.0,0.0,0.0,0.0,0.0,0.0,0.0,0.0,0.0,0.0,0.0,0.0,0.0,0.0,0.0,0.0,0.0,0.0,0.0,0.0,0.0,0.0,0.0,0.0,0.0,0.0,0.0,0.0,0.0,0.0,0.0,0.0,0.0,0.0,0.0,0.0,0.0,0.0,0.0,0.0,0.0,0.0,0.0,0.0,0.0,0.0,0.0,0.0,0.0,0.0,0.0,0.0,0.0,0.0,0.0,0.0,0.0,0.0,0.0,0.0,0.0,0.0,0.0,0.0,0.0,0.0,0.0,0.0,-0.6209,-0.6177,-0.6038,-0.5986,-0.592,-0.5815,-0.6445,-0.6746,-0.6789,-0.6226,0.0,0.0,0.0,0.0,0.0,0.0,0.0,0.0,0.0,0.0,0.0,0.0,0.0,0.0,0.0,0.0,0.0,0.0,0.0,0.0,0.0,0.0,0.0,0.0,0.0,0.0,0.0,0.0,0.0,0.0,0.0,0.0,0.0,0.0,0.0,0.0,0.0,0.0,-1.091,-1.1039,-1.0667,-0.9883,0.0,0.0,0.0,0.0,0.0,0.0,0.0,0.0,0.0,0.0,0.0,0.0,0.0,0.0,0.0,0.0,0.0,0.0,0.0,0.0,0.0,0.0,0.0,0.0,0.0,0.0,0.0,0.0,0.0,0.0,0.0,0.0,0.0,0.0,0.0,0.0,0.0,0.0,0.0,0.0,0.0,0.0,0.0,0.0,-0.4882,-0.5117,0.0,0.0,0.0,0.0,0.0,0.0,0.0,0.0,0.0,0.0,0.0,0.0,0.0,-0.5713,-0.5674,-0.6463,-0.6712,-0.6451,-0.7001,-0.7293,-0.7273,-0.7297,-0.723,-0.7218,-0.6844,0.0,-0.6237,-0.6122,0.0,0.0,0.0,0.0,0.0,0.0,0.0,0.0,0.0,0.0,0.0,0.0,0.0,0.0,0.0,0.0,0.0,0.0,0.0,0.0,0.0,0.0,0.0,0.0,0.0,0.0,0.0,0.0,0.0,0.0,0.0,0.0,0.0,0.0,0.0,0.0,-1.1791,-1.2126,-1.2567,-1.237,-1.1805,-1.0908,-1.0393,-0.9524,-0.8415,-0.8137,0.0,0.0,0.0,0.0,0.0,0.0,0.0,0.0,0.0,0.0,0.0,0.0,0.0,0.0,0.0,0.0,0.0,0.0,0.0,0.0,0.0,0.0,0.0,0.0,0.0,0.0,0.0,0.0,0.0,0.0,0.0,0.0,0.0,0.0,0.0,0.0,0.0,0.0,0.0,-0.5117,-0.5472,-0.5452,-0.5542,-0.5332,0.0,0.0,0.0,0.0,0.0,0.0,0.0,0.0,0.0,-0.5492,-0.5748,-0.6017,-0.6187,-0.6694,-0.699,-0.7062,-0.7223,-0.7386,-0.7407,-0.7321,-0.7375,-0.7461,-0.7074,-0.6858,-0.6832,-0.6386,-0.6309,-0.6429,0.0,0.0,0.0,0.0,-0.5922,-0.6121,0.0,0.0,0.0,0.0,0.0,0.0,0.0,0.0,0.0,0.0,0.0,0.0,0.0,0.0,0.0,-1.1132,0.0,0.0,0.0,0.0,0.0,0.0,0.0,0.0,0.0,0.0,0.0,0.0,0.0,-1.2832,-1.3693,-1.3221,-1.2576,-1.1706,-1.1632,-1.0759,-0.9415,-0.9229,-0.8498,0.0,0.0,0.0,0.0,0.0,0.0,0.0,0.0,0.0,0.0,0.0,0.0,0.0,0.0,0.0,0.0,0.0,0.0,0.0,0.0,0.0,0.0,0.0,0.0,0.0,0.0,0.0,0.0,0.0,0.0,0.0,0.0,0.0,0.0,0.0,0.0,0.0,0.0,-0.5571,-0.5967,-0.5796,-0.5924,-0.5809,0.0,0.0,0.0,0.0,0.0,0.0,-0.5474,-0.5338,-0.5389,-0.5758,-0.5997,-0.6291,-0.675,-0.6942,-0.7227,-0.7544,-0.7466,-0.7458,-0.7584,-0.7419,-0.7407,-0.7529,-0.736,-0.7443,-0.7491,-0.6912,-0.6708,-0.6853,-0.676,-0.6572,-0.647,-0.6451,-0.6547,-0.6692,0.0,0.0,0.0,0.0,0.0,0.0,0.0,0.0,0.0,0.0,0.0,0.0,0.0,0.0,-1.1928,-1.1928,-1.1892,-1.1478,0.0,0.0,0.0,0.0,0.0,0.0,0.0,0.0,0.0,0.0,0.0,0.0,0.0,-1.2579,-1.2312,-1.1706,-1.1855,-1.0936,-0.9205,-0.9186,-0.8922,-0.8359,0.0,0.0,0.0,0.0,0.0,0.0,0.0,0.0,0.0,0.0,0.0,0.0,0.0,0.0,0.0,0.0,0.0,0.0,0.0,0.0,0.0,0.0,0.0,0.0,0.0,0.0,0.0,0.0,0.0,0.0,0.0,0.0,0.0,0.0,0.0,0.0,0.0,0.0,0.0,-0.5895,-0.6456,0.0,0.0,0.0,0.0,-0.5153,-0.5147,-0.5345,-0.5558,-0.5574,-0.5985,-0.679,-0.6752,-0.6922,-0.7311,-0.7574,-0.7663,-0.7667,-0.7906,-0.7992,-0.8,-0.8,-0.7922,-0.793,-0.793,-0.793,-0.793,-0.7491,-0.7319,-0.7368,-0.7043,-0.7065,-0.7091,-0.6768,-0.6996,-0.7431,0.0,0.0,0.0,0.0,0.0,0.0,0.0,0.0,0.0,0.0,0.0,0.0,0.0,-1.1895,-1.2958,-1.2908,-1.3556,-1.3494,-1.2281,0.0,0.0,0.0,0.0,0.0,0.0,0.0,0.0,0.0,0.0,0.0,0.0,0.0,0.0,-1.0797,-1.2058,-1.1653,-1.0025,-1.0153,-0.9875,-0.9362,-0.9048,-0.8348,0.0,0.0,0.0,0.0,0.0,0.0,0.0,0.0,0.0,0.0,0.0,0.0,0.0,0.0,0.0,0.0,0.0,0.0,0.0,0.0,0.0,0.0,0.0,0.0,0.0,0.0,0.0,0.0,0.0,0.0,0.0,0.0,0.0,0.0,0.0,0.0,0.0,-0.605,-0.6375,0.0,-0.6032,-0.6022,-0.5976,-0.593,-0.6039,-0.6243,-0.6535,-0.6472,-0.6723,-0.7419,-0.7248,-0.736,-0.776,-0.7581,-0.7666,-0.811,-0.8026,-0.8146,-0.836,-0.8711,-0.8857,-0.8966,-0.9495,-0.9766,-0.9776,-0.9687,-0.913,-0.8258,-0.8286,-0.8471,-0.8613,-0.8474,-0.8589,-0.8706,0.0,0.0,0.0,0.0,0.0,0.0,0.0,0.0,0.0,0.0,0.0,-1.1262,-1.1152,-1.2715,-1.3845,-1.3946,-1.4534,-1.4288,-1.2921,0.0,0.0,0.0,0.0,0.0,0.0,0.0,0.0,0.0,0.0,0.0,0.0,0.0,0.0,0.0,0.0,-1.1825,-1.0738,-1.0812,-1.0664,-1.0176,-0.9976,-0.9138,-0.7984,0.0,0.0,0.0,0.0,0.0,0.0,0.0,0.0,0.0,0.0,0.0,0.0,0.0,0.0,0.0,0.0,0.0,0.0,0.0,0.0,0.0,0.0,0.0,0.0,0.0,0.0,0.0,0.0,0.0,0.0,0.0,0.0,0.0,0.0,-0.6004,-0.6394,-0.6068,-0.6444,-0.6544,-0.6327,-0.6401,-0.6522,-0.6704,-0.6913,-0.7107,-0.7271,-0.72,-0.7334,-0.7776,-0.767,-0.7724,-0.8203,-0.792,-0.8009,-0.8468,-0.8388,-0.8543,-0.8822,-0.9372,-0.9582,-0.9638,-1.0538,-1.0867,-1.0745,-1.1186,-1.0786,-0.9838,-0.9672,-0.9752,-0.9833,-0.9918,-0.9918,-0.9918,0.0,0.0,0.0,0.0,0.0,0.0,0.0,0.0,0.0,0.0,-1.1579,-1.2082,-1.3046,-1.3825,-1.4525,-1.4982,-1.4592,-1.367,-1.2227,-1.2126,0.0,0.0,0.0,0.0,0.0,0.0,0.0,0.0,0.0,0.0,0.0,0.0,0.0,0.0,0.0,0.0,-1.1099,-1.1105,-1.0962,-1.0748,-1.0065,-0.9488,-0.8838,0.0,0.0,0.0,0.0,0.0,0.0,0.0,0.0,0.0,0.0,0.0,0.0,0.0,0.0,0.0,0.0,0.0,0.0,0.0,0.0,0.0,0.0,0.0,0.0,0.0,0.0,0.0,0.0,0.0,0.0,0.0,0.0,0.0,-0.5331,-0.6079,-0.6545,-0.5967,-0.6655,-0.703,-0.6648,-0.6957,-0.7254,-0.7424,-0.7616,-0.7689,-0.7688,-0.7692,-0.7781,-0.8052,-0.7948,-0.8112,-0.8461,-0.8633,-0.8718,-0.8726,-0.9015,-0.9202,-0.946,-1.0031,-1.0121,-0.9952,-1.099,-1.1213,-1.0835,-1.1791,-1.2162,-1.207,-1.1134,-1.0764,-1.0764,-1.0944,-1.1037,-1.1124,0.0,0.0,0.0,0.0,0.0,0.0,0.0,0.0,0.0,0.0,-1.112,-1.1868,-1.1582,-1.3494,-1.4773,-1.4697,-1.4619,-1.4026,-1.2735,0.0,0.0,0.0,0.0,0.0,0.0,0.0,0.0,0.0,0.0,0.0,0.0,0.0,0.0,0.0,0.0,0.0,-1.084,-1.1033,-1.1186,-1.1242,-1.0876,-1.0268,-0.9519,0.0,0.0,0.0,0.0,0.0,0.0,0.0,0.0,0.0,0.0,0.0,0.0,0.0,0.0,0.0,0.0,0.0,0.0,0.0,0.0,0.0,0.0,0.0,0.0,0.0,0.0,0.0,0.0,0.0,0.0,0.0,-0.6323,-0.6643,-0.6523,-0.6728,-0.6813,-0.6641,-0.6859,-0.6991,-0.6957,-0.7047,-0.7293,-0.7835,-0.7895,-0.8044,-0.8309,-0.8189,-0.8267,-0.84,-0.8536,-0.8641,-0.8729,-0.9031,-0.9252,-0.9381,-0.9867,-1.0087,-1.0138,-1.1109,-1.1564,-1.1702,-1.2534,-1.2874,-1.2753,-1.321,-1.3334,-1.3104,-1.2461,-1.2232,-1.2232,-1.2318,-1.2323,-1.2274,0.0,0.0,0.0,0.0,0.0,0.0,0.0,0.0,0.0,0.0,-1.0845,-1.1695,-1.157,-1.3423,-1.4611,-1.4468,-1.4439,-1.3933,-1.2651,0.0,0.0,0.0,0.0,0.0,0.0,0.0,0.0,0.0,0.0,0.0,0.0,0.0,0.0,0.0,0.0,0.0,-1.0875,-1.0955,-1.123,-1.1484,-1.1409,-1.0835,-1.0034,-1.0419,-0.9869,-0.8957,-0.9369,-0.9451,-0.9394,-0.9124,0.0,0.0,0.0,0.0,0.0,0.0,0.0,0.0,0.0,0.0,0.0,0.0,0.0,0.0,0.0,0.0,0.0,0.0,0.0,0.0,0.0,0.0,0.0,0.0,-0.6857,-0.725,-0.7335,-0.7298,-0.7202,-0.7091,-0.7261,-0.7377,-0.7472,-0.7569,-0.7863,-0.8442,-0.8408,-0.8625,-0.9154,-0.9137,-0.9104,-0.9238,-0.9736,-0.997,-0.9814,-1.0303,-1.0516,-1.0631,-1.0645,-1.0753,-1.0934,-1.1821,-1.2361,-1.2375,-1.3453,-1.367,-1.3576,-1.3878,-1.4022,-1.3794,0.0,0.0,0.0,0.0,-1.3286,-1.3426,0.0,0.0,0.0,0.0,0.0,0.0,0.0,0.0,0.0,0.0,0.0,-1.1505,-1.2368,-1.3462,-1.4129,-1.4157,-1.3989,-1.3366,0.0,0.0,0.0,0.0,0.0,0.0,0.0,0.0,0.0,0.0,0.0,0.0,0.0,0.0,0.0,0.0,0.0,0.0,-1.0991,-1.1053,-1.1288,-1.1662,-1.1736,-1.1211,-1.0503,-1.1005,-1.0328,-0.9272,-0.9877,-1.0011,-0.9874,-0.9858,0.0,0.0,0.0,0.0,0.0,0.0,0.0,0.0,0.0,0.0,0.0,0.0,0.0,0.0,0.0,0.0,0.0,0.0,0.0,0.0,0.0,0.0,0.0,0.0,-0.7429,-0.7807,-0.7849,-0.7791,-0.7676,-0.7517,-0.7833,-0.8093,-0.8219,-0.8321,-0.8623,-0.9241,-0.9163,-0.9418,-1.0223,-1.0316,0.0,0.0,0.0,-1.1586,-1.1433,-1.1859,-1.2077,-1.2072,-1.1686,-1.1487,-1.175,-1.2414,-1.2688,-1.251,-1.3785,-1.4007,-1.3684,-1.4106,-1.4298,-1.4298,-1.3823,-1.3636,-1.363,-1.3771,-1.4064,-1.4286,0.0,0.0,0.0,0.0,0.0,0.0,0.0,0.0,0.0,-0.9999,-1.0688,-1.1436,-1.2089,-1.3327,-1.3895,-1.3389,-1.2959,-1.2476,0.0,0.0,0.0,0.0,0.0,0.0,0.0,0.0,0.0,0.0,0.0,0.0,0.0,0.0,0.0,0.0,0.0,0.0,-1.0914,-1.1173,-1.1397,-1.1664,-1.1729,-1.1598,-1.1351,-1.1455,-1.125,-1.0983,-1.1334,-1.1461,-1.1388,-1.0916,-1.0757,-1.0659,-1.036,0.0,0.0,0.0,0.0,0.0,0.0,0.0,0.0,0.0,0.0,0.0,0.0,0.0,0.0,0.0,0.0,0.0,0.0,0.0,0.0,-0.7049,-0.8018,-0.8732,-0.8374,-0.8729,-0.8819,-0.8281,-0.8233,-0.8638,-0.9325,-0.91,-0.9283,-1.0269,-1.0663,-1.0858,-1.1035,-1.1473,-1.1648,-1.1458,-1.2058,-1.2288,-1.2228,-1.2638,-1.2845,-1.284,-1.2904,0.0,-1.2766,-1.319,-1.348,-1.3627,-1.3877,-1.4039,-1.413,-1.4274,-1.4298,-1.4298,-1.4202,-1.4106,-1.4058,-1.3734,-1.3842,-1.4238,0.0,0.0,0.0,0.0,0.0,0.0,0.0,0.0,0.0,0.0,-0.9832,-1.0517,-1.0989,-1.1978,-1.2538,-1.244,-1.2035,0.0,0.0,0.0,0.0,0.0,0.0,0.0,0.0,0.0,0.0,0.0,0.0,0.0,0.0,0.0,0.0,0.0,0.0,0.0,-1.1068,-1.1099,-1.151,-1.2131,-1.1915,-1.1941,-1.2148,-1.2006,-1.1988,-1.1949,-1.21,-1.2084,-1.1945,-1.1499,-1.1276,-1.1182,-1.0903,-1.0665,-1.0349,0.0,0.0,0.0,0.0,0.0,0.0,0.0,0.0,0.0,0.0,0.0,0.0,0.0,0.0,-0.7661,-0.7722,0.0,-0.7999,-0.7992,-0.867,-0.9139,-0.9127,-0.9678,-0.9808,-0.9297,-0.9298,-0.9598,-1.0271,-1.0228,-1.0421,-1.1014,-1.133,-1.1596,-1.2008,-1.2319,-1.2576,-1.2542,-1.327,-1.3603,-1.3478,-1.3838,-1.4024,-1.4019,-1.3899,-1.3718,-1.3478,-1.3762,-1.3941,-1.3918,-1.4075,-1.4208,-1.4298,-1.4298,-1.4298,-1.4298,-1.4298,-1.4298,-1.4262,-1.4002,-1.4075,-1.4262,0.0,0.0,0.0,0.0,0.0,0.0,0.0,0.0,0.0,0.0,0.0,-0.9769,-1.0165,-1.07,-1.1092,0.0,0.0,0.0,0.0,0.0,0.0,0.0,0.0,0.0,0.0,0.0,0.0,0.0,0.0,0.0,0.0,0.0,0.0,0.0,0.0,0.0,-1.1423,-1.129,-1.1822,-1.2654,-1.2241,-1.2331,-1.2806,-1.26,-1.2509,-1.2516,-1.2438,-1.2367,-1.2184,-1.1875,-1.1635,-1.1478,-1.1357,-1.1256,-1.1062,-0.9886,-0.9864,0.0,0.0,0.0,0.0,0.0,0.0,0.0,0.0,-0.8914,-0.8759,-0.886,-0.8589,-0.84,-0.8716,-0.8732,-0.8776,-0.9035,-0.9367,-0.9721,-0.9882,-1.0484,-1.0845,-1.0534,-1.0571,-1.0794,-1.1187,-1.1424,-1.1637,-1.1846,-1.2001,-1.2312,-1.291,-1.3126,-1.3399,-1.3431,-1.4511,-1.4953,-1.4647,-1.5047,-1.5252,-1.5252,-1.4734,-1.443,-1.4228,-1.4383,-1.4348,-1.4148,-1.4382,-1.4455,-1.4449,-1.4401,-1.4377,-1.4377,-1.4322,-1.4298,-1.4298,-1.4298,-1.4298,-1.4298,0.0,0.0,0.0,0.0,0.0,0.0,0.0,0.0,0.0,0.0,0.0,0.0,0.0,0.0,0.0,0.0,0.0,0.0,0.0,0.0,0.0,0.0,0.0,0.0,0.0,0.0,0.0,0.0,0.0,0.0,0.0,0.0,0.0,0.0,0.0,0.0,-1.2189,-1.2104,-1.2358,-1.2796,-1.2654,-1.2815,-1.3114,-1.2969,-1.2727,-1.2516,-1.2516,-1.2516,-1.2396,-1.2081,-1.1983,-1.1817,-1.1074,-1.0839,-1.0701,-1.0065,0.0,-0.9732,-0.884,-0.8325,-0.8202,-0.8645,-0.8848,-0.8913,0.0,-0.9366,-0.9647,-0.9443,-0.9264,-0.9311,-0.9734,-0.9715,-0.9501,-0.9346,-1.0136,-1.0799,-1.057,-1.1154,-1.1802,-1.2432,-1.1957,-1.1847,-1.2501,-1.2439,-1.2566,-1.3211,-1.3418,-1.354,-1.3672,-1.4109,-1.4432,-1.4484,-1.5108,-1.5452,-1.5394,-1.5624,-1.5843,-1.5843,-1.5506,-1.5376,-1.5341,-1.51,-1.4971,-1.4935,-1.5017,-1.5016,-1.4998,-1.4769,-1.4666,-1.4648,-1.4395,-1.4298,-1.4298,-1.4298,-1.4298,-1.4298,0.0,0.0,0.0,0.0,0.0,0.0,0.0,0.0,0.0,0.0,0.0,0.0,0.0,0.0,0.0,0.0,0.0,0.0,0.0,0.0,0.0,0.0,0.0,0.0,0.0,0.0,0.0,0.0,0.0,0.0,0.0,0.0,0.0,0.0,0.0,0.0,-1.1809,-1.1944,-1.2093,-1.2235,-1.2291,-1.2511,-1.2796,-1.2917,-1.3055,-1.3006,-1.2438,-1.2176,0.0,0.0,-1.1574,-1.1458,-1.1497,-1.1217,-1.0752,-1.0329,-1.0,0.0,-0.9303,-0.9137,-0.9136,-0.9379,-0.9612,-0.9777,-0.9715,-0.9997,-1.0162,-0.9963,-0.9976,-1.0092,-1.0339,-1.021,-1.0089,-1.028,-1.0668,-1.1032,-1.1231,-1.1903,-1.2431,-1.2727,-1.2791,-1.2797,-1.2764,-1.3021,-1.3243,-1.327,-1.3744,-1.404,-1.404,-1.4443,-1.4606,-1.4606,-1.5041,-1.5261,-1.5261,-1.5357,-1.554,-1.5916,-1.5808,-1.5808,-1.6012,-1.5893,-1.5761,-1.5611,-1.5608,-1.5565,-1.5553,-1.5445,-1.5403,-1.539,-1.527,-1.5131,-1.4938,-1.4467,-1.4298,-1.4298,0.0,0.0,0.0,0.0,0.0,0.0,0.0,0.0,0.0,0.0,0.0,0.0,0.0,0.0,0.0,0.0,0.0,0.0,0.0,0.0,0.0,0.0,0.0,0.0,0.0,0.0,0.0,0.0,0.0,0.0,0.0,0.0,0.0,0.0,0.0,0.0,-1.1864,-1.1988,-1.2111,-1.2218,-1.2262,-1.2483,-1.2816,-1.306,-1.3167,-1.3204,-1.2423,-1.2102,0.0,0.0,-1.1358,-1.1411,-1.1474,-1.1219,-1.0864,-1.0356,-0.9852,-0.953,-0.9599,-0.9624,-0.9723,-1.0,-1.019,-1.0269,-1.037,-1.0443,-1.046,-1.0383,-1.0473,-1.0645,-1.0778,-1.0641,-1.0616,-1.102,-1.1139,-1.1327,-1.1736,-1.2449,-1.2861,-1.2764,-1.3166,-1.3259,-1.2699,-1.3371,-1.374,-1.3421,-1.3895,-1.4196,-1.4196,-1.4401,-1.4504,-1.4504,-1.4713,-1.4928,-1.4928,-1.511,-1.5453,-1.5863,-1.605,-1.6184,-1.6398,-1.6398,-1.629,-1.6115,-1.6,-1.6,-1.5994,-1.5815,-1.5785,-1.5887,-1.5815,-1.5671,-1.5535,-1.495,-1.4642,-1.4521,0.0,0.0,0.0,0.0,0.0,0.0,0.0,0.0,0.0,0.0,0.0,0.0,0.0,0.0,0.0,0.0,0.0,0.0,0.0,0.0,0.0,0.0,0.0,0.0,0.0,0.0,0.0,0.0,0.0,0.0,0.0,0.0,0.0,0.0,0.0,0.0,-1.2744,-1.2744,-1.2945,-1.326,-1.3076,-1.3158,-1.3484,-1.3499,-1.3164,-1.2743,-1.2714,0.0,0.0,0.0,-1.175,-1.1995,-1.0583,-1.059,0.0,-0.9985,-0.9378,-0.9104,-0.9487,-0.9323,-0.9205,-1.0067,-1.0124,-1.0125,-1.0621,-1.0663,-1.0587,-1.085,-1.0757,-1.0745,-1.1205,-1.1128,-1.1047,-1.13,-1.1532,-1.1758,-1.2097,-1.2742,-1.3055,-1.2861,-1.3166,-1.3127,-1.2232,-1.3128,-1.3882,-1.4126,-1.4186,-1.4196,-1.4196,-1.4196,-1.4191,-1.4191,-1.4504,-1.4606,-1.4606,-1.5499,-1.5857,-1.5869,-1.645,-1.6688,-1.6688,-1.6688,-1.6682,-1.6676,-1.6328,-1.621,-1.6192,-1.5609,-1.5621,-1.5816,-1.557,-1.5571,-1.5873,-1.5849,-1.5517,-1.5083,0.0,0.0,0.0,0.0,0.0,0.0,0.0,0.0,0.0,0.0,0.0,0.0,0.0,0.0,0.0,0.0,0.0,0.0,0.0,0.0,0.0,0.0,0.0,0.0,0.0,0.0,0.0,0.0,0.0,0.0,0.0,0.0,0.0,0.0,0.0,0.0,-1.2367,-1.256,-1.2507,-1.2185,-1.2526,-1.2689,-1.2658,-1.2714,-1.2498,-1.214,0.0,0.0,0.0,0.0,-1.1071,-1.1115,-1.0775,-1.0509,-1.022,-0.9327,-0.9144,-0.9183,-0.9309,-0.9581,-0.988,-1.003,-1.045,-1.0674,-1.0622,-1.0802,-1.0958,-1.1045,-1.0835,-1.0729,-1.113,-1.0779,-1.0614,-1.1177,-1.1204,-1.1521,-1.2471,-1.2482,-1.2677,-1.3367,-1.3314,-1.3331,-1.3432,-1.3577,-1.3518,-1.3254,-1.3836,-1.4196,-1.4196,-1.4196,-1.4196,-1.4196,-1.4299,-1.4369,-1.4521,-1.4823,-1.525,-1.5801,-1.6518,-1.6994,-1.7219,-1.7219,-1.7104,-1.6878,-1.6762,-1.6634,-1.6396,-1.6195,-1.6155,-1.6264,-1.6418,-1.6392,-1.634,-1.657,-1.635,-1.5837,0.0,0.0,0.0,0.0,0.0,0.0,0.0,0.0,0.0,0.0,0.0,0.0,0.0,0.0,0.0,0.0,0.0,0.0,0.0,0.0,0.0,0.0,0.0,0.0,0.0,0.0,0.0,0.0,0.0,0.0,0.0,0.0,0.0,0.0,0.0,0.0,-1.2375,-1.2498,-1.2445,-1.217,-1.2135,-1.2223,-1.2312,-1.1941,-1.1735,0.0,0.0,0.0,0.0,-1.0519,-1.0509,-1.0473,-1.0344,-0.991,-0.9484,-0.9475,-0.9438,-0.9427,-0.9703,-1.0136,-1.0439,-1.042,-1.0718,-1.1037,-1.0738,-1.0948,-1.1169,-1.1178,-1.1107,-1.102,-1.1078,-1.0892,-1.0867,-1.1244,-1.1327,-1.1684,-1.2789,-1.2833,-1.2899,-1.3486,-1.3434,-1.3485,-1.3636,-1.3561,-1.3351,-1.3039,-1.3507,-1.3846,-1.3933,-1.3852,-1.3927,-1.4186,-1.438,-1.4494,-1.453,-1.4926,-1.5438,-1.6187,-1.6704,-1.7138,-1.7485,-1.7485,-1.7265,-1.6756,-1.6821,-1.6563,-1.6053,-1.611,-1.6307,-1.6431,-1.6549,-1.668,-1.6762,-1.7,-1.684,-1.6495,0.0,0.0,0.0,0.0,0.0,0.0,0.0,0.0,0.0,0.0,0.0,0.0,0.0,0.0,0.0,0.0,0.0,0.0,0.0,0.0,0.0,0.0,0.0,0.0,0.0,0.0,0.0,0.0,0.0,0.0,0.0,0.0,0.0,0.0,0.0,0.0,0.0,-1.2578,-1.2647,-1.2869,-1.1845,-1.186,-1.2369,-1.1336,0.0,0.0,0.0,0.0,0.0,-0.9999,-1.0147,-1.0222,-0.9524,-0.895,-0.8869,-1.018,-1.0154,-0.9867,-1.0549,-1.0805,-1.0829,-1.1058,-1.1111,-1.1111,-1.1111,-1.1112,-1.1222,-1.1192,-1.1372,-1.1382,-1.0972,-1.1167,-1.1505,-1.1572,-1.1763,-1.2163,-1.294,-1.3518,-1.3623,-1.3147,-1.3521,-1.3595,-1.2975,-1.3249,-1.3507,-1.348,-1.3281,-1.3265,-1.3502,-1.3287,-1.3475,-1.4169,-1.4735,-1.4861,-1.4552,-1.5596,-1.6431,-1.7026,-1.7026,-1.7138,-1.7485,-1.7485,-1.7092,-1.631,-1.6448,-1.6153,-1.5421,-1.553,-1.5839,-1.6087,-1.6081,-1.6436,-1.702,-1.702,-1.7089,-1.702,0.0,0.0,0.0,0.0,0.0,0.0,0.0,0.0,0.0,0.0,0.0,0.0,0.0,0.0,0.0,0.0,0.0,0.0,0.0,0.0,0.0,0.0,0.0,0.0,0.0,0.0,0.0,0.0,0.0,0.0,0.0,0.0,0.0,0.0,0.0,0.0,0.0,-1.1056,-1.1058,-1.1114,0.0,-1.067,-1.074,0.0,0.0,0.0,0.0,0.0,0.0,0.0,-0.9903,-0.9582,-1.0116,-0.9543,-0.8843,-0.9584,-0.9897,-1.0032,-1.0173,-1.0591,-1.1089,-1.1298,-1.1186,-1.1037,-1.0887,-1.1016,-1.1169,-1.0923,-1.0738,-1.0522,-1.0469,-1.0179,-1.0273,-1.1146,-1.1081,-1.1308,-1.2655,-1.265,-1.2748,-1.3303,-1.3539,-1.367,-1.3803,-1.3938,-1.3863,-1.3507,-1.375,-1.3943,-1.4008,-1.3949,-1.4003,-1.4186,-1.4521,-1.4727,-1.4794,-1.5389,-1.6009,-1.6655,-1.6655,-1.6897,-1.7485,-1.7485,-1.7295,-1.6832,-1.6603,-1.6234,-1.5904,-1.5671,-1.5601,-1.572,-1.6188,-1.6543,-1.6661,-1.7132,-1.7199,-1.7044,0.0,0.0,0.0,0.0,0.0,0.0,0.0,0.0,0.0,0.0,0.0,0.0,0.0,0.0,0.0,0.0,0.0,0.0,0.0,0.0,0.0,0.0,0.0,0.0,0.0,0.0,0.0,0.0,0.0,0.0,0.0,0.0,0.0,0.0,0.0,0.0,0.0,0.0,0.0,0.0,0.0,0.0,0.0,0.0,0.0,0.0,0.0,0.0,0.0,0.0,0.0,-0.9384,-1.0465,-0.9968,-0.9204,-1.0155,-1.0473,-1.0461,-1.0548,-1.0945,-1.126,-1.126,-1.1186,-1.1007,-1.0819,-1.0889,-1.0916,-1.0656,-1.053,-1.0351,-1.0102,-0.9995,-1.0245,-1.1141,-1.1022,-1.1305,-1.2762,-1.2533,-1.2544,-1.3389,-1.348,-1.3669,-1.4148,-1.4196,-1.4083,-1.3814,-1.3744,-1.3766,-1.3873,-1.3776,-1.3863,-1.4186,-1.463,-1.5084,-1.5429,-1.5585,-1.5952,-1.6537,-1.6537,-1.6891,-1.7485,-1.7485,-1.7125,-1.6455,-1.644,-1.6183,-1.5544,-1.5633,-1.5601,-1.5596,-1.5952,-1.6301,-1.6537,-1.6891,-1.7155,-1.7207,0.0,0.0,0.0,0.0,0.0,0.0,0.0,0.0,0.0,0.0,0.0,0.0,0.0,0.0,0.0,0.0,0.0,0.0,0.0,0.0,0.0,0.0,0.0,0.0,0.0,0.0,0.0,0.0,0.0,0.0,0.0,0.0,0.0,0.0,0.0,0.0,0.0,0.0,0.0,0.0,0.0,0.0,0.0,0.0,0.0,0.0,0.0,0.0,0.0,0.0,-1.0538,-0.9606,-1.081,-1.0533,-0.997,-1.1184,-1.1234,-1.093,-1.1192,-1.1354,-1.1335,-1.1186,-1.1111,-1.0977,-1.0749,-1.0716,-1.0638,-1.0364,-1.0496,-1.0443,-0.982,-1.0268,-1.0835,-1.1227,-1.126,-1.1585,-1.2692,-1.2566,-1.2708,-1.3292,-1.3421,-1.3669,-1.4148,-1.4239,-1.4228,-1.4191,-1.3708,-1.3442,-1.3561,-1.3367,-1.3566,-1.4261,-1.5016,-1.5582,-1.6081,-1.5839,-1.5952,-1.6537,-1.6537,-1.6891,-1.7485,-1.7485,-1.6994,-1.6017,-1.6343,-1.5937,-1.5123,-1.5429,-1.5596,-1.572,-1.572,-1.607,-1.6537,-1.6655,-1.7009,-1.7406,0.0,0.0,0.0,0.0,0.0,0.0,0.0,0.0,0.0,0.0,0.0,0.0,0.0,0.0,0.0,0.0,0.0,0.0,0.0,0.0,0.0,0.0,0.0,0.0,0.0,0.0,0.0,0.0,0.0,0.0,0.0,0.0,0.0,0.0,0.0,0.0,0.0,0.0,0.0,0.0,0.0,0.0,0.0,0.0,0.0,0.0,0.0,0.0,0.0,0.0,-1.1488,-1.0742,-1.1396,-1.152,-1.1362,-1.095,-1.0922,-1.0973,-1.0768,-1.0924,-1.1186,-1.1335,-1.1111,-1.0801,-1.0611,-1.0256,-1.0002,-0.982,-0.9753,-0.9691,-0.9898,-1.0122,-1.0421,-1.085,-1.1029,-1.1106,-1.1353,-1.214,-1.2721,-1.2614,-1.312,-1.3669,-1.4148,-1.4449,-1.4475,-1.4272,-1.4702,-1.4747,-1.4067,-1.4029,-1.4239,-1.4751,-1.4955,-1.5232,-1.5715,-1.5844,-1.6194,-1.6537,-1.6779,-1.7132,-1.7485,-1.7485,-1.7202,-1.6774,-1.6621,-1.6262,-1.5842,-1.5688,-1.572,-1.6081,-1.6307,-1.6543,-1.6903,-1.725,-1.7367,-1.7406,0.0,0.0,0.0,0.0,0.0,0.0,0.0,0.0,0.0,0.0,-1.0069,0.0,0.0,0.0,0.0,0.0,0.0,0.0,0.0,0.0,0.0,0.0,0.0,0.0,0.0,0.0,-0.9159,-0.8233,0.0,0.0,0.0,-0.9792,-0.9856,-0.9767,0.0,0.0,0.0,0.0,0.0,0.0,0.0,0.0,0.0,0.0,0.0,0.0,0.0,0.0,0.0,0.0,-1.1694,-1.1391,-1.2213,-1.2536,-1.2263,-1.1125,-1.1153,-1.1365,-1.0682,-1.0641,-1.0812,-1.1037,-1.0887,-1.0484,-1.0016,0.0,0.0,-0.9091,-0.9005,-0.9057,-0.9171,-0.9327,-0.9613,-1.0283,-1.04,-1.0643,-1.1118,-1.1869,-1.2473,-1.2575,-1.3479,-1.4071,-1.3903,-1.4727,-1.4885,-1.3908,-1.4537,-1.4756,-1.418,-1.4196,-1.4406,-1.4869,-1.4885,-1.5112,-1.5596,-1.572,-1.6076,-1.6537,-1.6661,-1.7015,-1.7485,-1.7485,-1.7367,-1.702,-1.6779,-1.64,-1.5836,-1.5858,-1.5814,-1.5721,-1.6093,-1.6431,-1.6779,-1.7132,-1.7367,-1.7406,0.0,0.0,0.0,0.0,0.0,0.0,0.0,-1.2027,-1.1258,-1.0755,-1.0101,-0.971,-0.9762,-0.9776,0.0,0.0,0.0,0.0,0.0,0.0,0.0,0.0,0.0,0.0,0.0,0.0,0.0,-0.7941,-0.8967,0.0,0.0,0.0,0.0,0.0,-0.9793,-0.9884,-0.9959,0.0,0.0,0.0,0.0,-0.9288,0.0,0.0,0.0,0.0,0.0,0.0,0.0,0.0,-1.1983,-1.2028,-1.2835,-1.3028,-1.2674,-1.1503,-1.1424,-1.1604,-1.0793,-1.058,-1.0519,-1.0663,-1.0588,-1.0262,-0.9565,-0.9321,-0.906,-0.8655,-0.8543,-0.856,-0.8771,-0.8843,-0.9157,0.0,-1.0105,-1.0326,-1.1237,-1.1848,-1.2266,-1.2589,-1.3875,-1.4514,-1.4029,-1.5263,-1.5543,-1.4235,-1.4539,-1.4613,-1.4169,-1.4196,-1.4406,-1.4869,-1.4885,-1.5112,-1.5596,-1.572,-1.5952,-1.6537,-1.6537,-1.6891,-1.7485,-1.7485,-1.7367,-1.7026,-1.7026,-1.6501,-1.5722,-1.5993,-1.5903,-1.5501,-1.6121,-1.6397,-1.6692,-1.6938,-1.7131,-1.7249,0.0,0.0,0.0,0.0,0.0,0.0,0.0,-1.2317,-1.1515,-1.1344,-1.0318,-0.9617,-0.9617,-0.9473,0.0,0.0,0.0,0.0,0.0,0.0,0.0,0.0,0.0,0.0,0.0,0.0,0.0,-0.7467,-0.763,0.0,0.0,0.0,0.0,0.0,0.0,-0.9487,-0.982,-0.9933,0.0,0.0,0.0,0.0,0.0,0.0,0.0,0.0,0.0,0.0,0.0,0.0,0.0,-1.2866,-1.2698,-1.246,-1.2223,-1.1959,0.0,0.0,-1.1436,-1.1075,-1.0513,-1.0513,-1.0368,-1.0085,-0.9585,0.0,-0.872,-0.9291,-0.8557,-0.8246,-0.9728,-0.9536,-0.9552,-1.0953,0.0,-1.0819,-1.1438,-1.2175,-1.2575,-1.242,-1.3774,-1.4853,-1.5234,-1.6401,-1.6927,-1.6405,-1.5807,-1.5091,-1.4191,-1.4196,-1.4406,-1.4869,-1.4885,-1.5112,-1.5596,-1.5844,-1.6194,-1.6537,-1.6785,-1.7138,-1.7485,-1.7485,-1.7367,-1.7026,-1.7026,-1.6501,-1.5722,-1.6215,-1.6356,-1.6174,-1.6698,-1.6996,-1.7014,-1.7129,-1.6978,-1.673,0.0,0.0,0.0,0.0,0.0,0.0,0.0,-1.2366,-1.1728,-1.0922,-1.0416,-0.9997,-0.9654,-0.9538,0.0,0.0,0.0,0.0,0.0,0.0,0.0,0.0,0.0,0.0,0.0,0.0,-0.9116,-0.8238,-0.874,0.0,0.0,0.0,0.0,0.0,0.0,-0.8747,-0.9153,-0.9505,0.0,0.0,0.0,0.0,0.0,0.0,0.0,0.0,0.0,0.0,-1.2379,0.0,0.0,0.0,-1.1983,-1.1659,0.0,0.0,-1.145,-1.1791,-1.0863,-1.112,-1.1409,-1.0513,-1.0513,-1.0522,-0.9773,0.0,-0.9074,-0.9188,-0.8863,-0.8733,-0.94,-0.9509,-0.9742,-1.0602,0.0,0.0,-1.2171,-1.3127,-1.377,-1.4179,-1.5738,-1.6439,-1.5822,-1.7035,-1.7603,-1.6932,-1.6062,-1.5669,-1.5956,-1.4826,-1.4342,-1.4665,-1.481,-1.5047,-1.5386,-1.565,-1.5957,-1.6312,-1.6543,-1.6897,-1.7256,-1.7367,-1.7485,-1.725,-1.725,-1.6684,-1.5611,-1.6319,-1.608,-1.5275,-1.6222,-1.6486,-1.6619,-1.6738,-1.6791,-1.6664,0.0,0.0,0.0,0.0,0.0,0.0,-1.2693,-1.2314,-1.1721,-1.0819,-1.04,-1.0031,-0.9613,-0.9591,-0.9632,-0.9762,0.0,0.0,0.0,0.0,0.0,0.0,0.0,0.0,0.0,0.0,-0.9514,-0.8571,-0.9285,-0.9169,0.0,0.0,-0.8205,-0.8064,0.0,0.0,0.0,0.0,0.0,0.0,0.0,0.0,0.0,0.0,0.0,0.0,0.0,0.0,0.0,0.0,0.0,0.0,0.0,0.0,0.0,0.0,-1.1452,-1.2086,-1.0965,-1.1467,-1.2077,-1.1037,-1.0991,-1.092,-1.0114,0.0,-0.9459,-0.93,-0.9192,-0.9146,-0.9398,-0.9559,-0.994,0.0,0.0,-1.1952,-1.2644,-1.3889,-1.4838,-1.5029,-1.6814,-1.7619,-1.6655,-1.7966,-1.8577,-1.7959,-1.7341,-1.7083,-1.7515,-1.5867,-1.4928,-1.4961,-1.4915,-1.501,-1.5593,-1.5538,-1.5971,-1.6902,-1.6547,-1.6697,-1.7363,-1.7292,-1.728,-1.7356,-1.7292,-1.6628,-1.5686,-1.6369,-1.5991,-1.511,-1.6003,-1.6298,-1.6233,-1.6462,-1.6525,-1.6435,0.0,0.0,0.0,0.0,0.0,0.0,0.0,-1.2234,-1.1472,-1.1406,-1.0298,-0.9497,-0.9497,-0.9564,-0.9632,-0.9684,0.0,0.0,0.0,0.0,0.0,0.0,0.0,0.0,0.0,0.0,-0.8812,-0.8003,-0.8491,-0.843,-0.7918,-0.7981,-0.8013,-0.7991,0.0,0.0,0.0,0.0,0.0,0.0,0.0,0.0,0.0,0.0,0.0,0.0,0.0,0.0,0.0,0.0,0.0,0.0,0.0,0.0,0.0,0.0,-1.1692,-1.1578,-1.2167,-1.2339,-1.2305,-1.2305,-1.1708,-1.1121,0.0,0.0,-0.9769,-0.9948,-0.9444,-0.9228,-1.0016,-0.9897,-1.0125,-1.1482,-1.2691,0.0,-1.2735,-1.446,-1.5312,-1.4272,-1.6353,-1.7956,-1.7991,-1.9228,-2.0055,-1.9922,-1.9914,-1.9494,-1.8457,-1.7305,-1.6493,-1.615,-1.5082,-1.5199,-1.6552,-1.5676,-1.6458,-1.8678,-1.7018,-1.6851,-1.8156,-1.712,-1.6741,-1.6874,-1.6802,-1.6398,-1.5928,-1.6483,-1.638,-1.5934,-1.6483,-1.6531,-1.6284,-1.6284,-1.6121,-1.5897,0.0,0.0,0.0,0.0,0.0,0.0,0.0,-1.2334,-1.174,-1.0907,-1.04,-0.9964,-0.9601,-0.9538,-0.9591,-0.9762,0.0,0.0,0.0,0.0,0.0,0.0,0.0,0.0,0.0,0.0,-0.9412,-0.9087,-0.9243,-0.895,-0.8237,-0.8607,-0.8656,-0.8495,-0.8888,-0.9298,0.0,0.0,0.0,0.0,0.0,0.0,-1.1166,0.0,0.0,0.0,0.0,0.0,0.0,0.0,0.0,0.0,0.0,0.0,0.0,0.0,0.0,0.0,-1.1279,-1.1914,-1.2422,-1.1421,-1.14,-1.1403,-1.0713,-1.0429,-1.0333,-1.0693,-1.0344,-1.0229,-1.0848,-1.1144,-1.1519,-1.2189,-1.3355,0.0,-1.4663,-1.592,-1.6928,-1.7478,-1.8981,-2.0023,-2.0246,-2.0059,-2.0327,-2.1135,-2.0712,-2.0614,-2.0931,-2.0017,-1.902,-1.7768,-1.6686,-1.6393,-1.6917,-1.7967,-1.8287,-1.7857,-1.8624,-1.8961,-1.8812,-1.9334,-1.9277,-1.8729,-1.893,-1.8514,-1.7805,-1.7486,-1.7064,-1.6727,-1.6361,-1.6306,-1.6542,-1.612,-1.5964,-1.5891,0.0,0.0,0.0,0.0,0.0,0.0,0.0,-1.2282,-1.1752,-1.1125,-1.0493,-1.0012,-0.9879,-0.9632,-0.9526,-0.971,0.0,0.0,0.0,0.0,0.0,0.0,0.0,0.0,0.0,-0.9958,-0.9852,-0.9627,-0.9982,-0.9818,-0.9161,-0.9496,-0.9524,-0.9311,-0.9626,-0.9908,0.0,0.0,0.0,0.0,0.0,0.0,-1.1325,0.0,0.0,0.0,0.0,0.0,0.0,0.0,0.0,0.0,0.0,0.0,0.0,0.0,-1.1032,-1.0902,0.0,-1.1894,-1.2552,-1.1663,-1.16,0.0,-1.1077,-1.0844,-1.0809,-1.1064,-1.1034,-1.1044,-1.1277,-1.1797,-1.224,-1.2403,-1.4063,-1.5237,-1.5072,-1.6522,-1.8048,-1.9116,-2.0119,-2.1026,-2.1903,-2.1303,-2.1285,-2.2383,-2.208,-2.2082,-2.2492,-2.1676,-2.0939,-2.0223,-1.8633,-1.7995,-1.842,-1.9348,-1.9662,-1.9349,-1.9891,-2.0083,-1.9977,-2.0338,-2.0277,-1.979,-1.9949,-1.9672,0.0,-1.8731,-1.845,-1.8362,-1.7818,-1.785,-1.8262,-1.7837,-1.7325,-1.6817,0.0,0.0,0.0,0.0,0.0,0.0,0.0,0.0,0.0,0.0,-1.0539,-0.9737,-1.0257,-0.9757,0.0,0.0,0.0,0.0,0.0,0.0,0.0,0.0,0.0,0.0,0.0,-0.9905,-1.0142,-0.9697,-1.0619,-1.0822,-1.0404,-1.0505,-1.0467,-1.0372,-1.0446,-1.0515,0.0,0.0,0.0,0.0,0.0,0.0,0.0,0.0,0.0,0.0,0.0,0.0,0.0,0.0,0.0,0.0,0.0,0.0,0.0,0.0,0.0,0.0,0.0,-1.2149,-1.2651,-1.2712,-1.2157,-1.1671,-1.1615,0.0,0.0,-1.1192,-1.1535,-1.1746,-1.1482,-1.2069,-1.2567,-1.2312,-1.4748,-1.6094,-1.4226,-1.6488,-1.8646,-1.9298,-2.0189,-2.1251,-2.2798,-2.2702,-2.2937,-2.3746,-2.3854,-2.3646,-2.3429,-2.2383,-2.2374,-2.3329,-2.0923,-1.9994,-2.0947,-2.0215,-2.0617,-2.234,-2.0939,-2.078,-2.1466,-2.0628,-2.0364,-2.0426,-2.0241,-2.0238,-2.0238,-2.0135,-2.0231,-2.0538,-2.0428,-2.0617,-2.0798,-2.0798,-1.9876,-1.8561,0.0,0.0,0.0,0.0,0.0,0.0,0.0,0.0,0.0,0.0,0.0,-1.0173,-1.0293,-0.9797,0.0,0.0,0.0,0.0,0.0,0.0,0.0,0.0,0.0,0.0,0.0,-0.9735,-0.9792,-0.9619,-1.0301,-1.0571,-1.0404,-1.0799,-1.0953,-1.0941,-1.1293,-1.1518,0.0,0.0,0.0,0.0,0.0,0.0,0.0,0.0,0.0,0.0,-1.3132,-1.2832,0.0,0.0,0.0,0.0,0.0,0.0,0.0,0.0,-1.0737,-1.025,-1.1032,0.0,-1.1383,-1.1595,-1.1461,-1.1179,0.0,0.0,0.0,0.0,0.0,0.0,-1.2375,-1.3425,-1.3882,-1.3014,-1.5002,-1.6207,-1.4904,-1.709,-1.895,-1.9476,-2.1174,-2.2519,-2.2601,-2.3198,-2.3646,-2.4053,-2.4152,-2.4053,-2.3945,-2.3737,-2.3728,-2.3945,-2.332,-2.2584,-2.155,-2.1676,-2.1512,-2.0956,-2.2525,-2.2708,-2.1708,-2.2699,-2.2903,-2.2307,-2.2481,-2.2501,-2.24,-2.1379,-2.1285,-2.1599,-2.0751,-2.0743,-2.1159,-2.0907,-2.0594,-2.0287,0.0,0.0,0.0,0.0,0.0,0.0,0.0,0.0,0.0,0.0,0.0,0.0,0.0,0.0,0.0,0.0,0.0,0.0,0.0,0.0,0.0,0.0,0.0,0.0,-0.9184,-0.9496,-0.9649,-0.9601,-1.0339,-1.0654,-1.0643,-1.1064,-1.1297,-1.1295,-1.1782,0.0,0.0,0.0,0.0,0.0,-1.3448,0.0,0.0,0.0,0.0,0.0,-1.342,-1.3218,0.0,-1.2735,-1.2461,-1.2126,0.0,0.0,0.0,0.0,-1.0737,-1.0254,-1.0913,-1.1074,-1.1107,-1.1591,-1.1378,-1.1056,0.0,0.0,0.0,0.0,0.0,0.0,0.0,0.0,-1.3811,-1.3336,-1.4812,-1.6122,-1.6445,-1.7986,-1.9246,-1.9772,-2.1336,-2.2447,-2.2488,-2.3383,-2.4053,-2.4152,-2.4152,-2.4152,-2.4152,-2.4152,-2.4152,-2.4152,-2.3646,-2.322,-2.2894,-2.312,-2.2646,-2.132,-2.3268,-2.34,-2.2061,-2.3501,-2.3914,-2.3501,-2.3275,-2.3305,-2.361,-2.2545,-2.2606,-2.3329,-2.2693,-2.2785,-2.3302,-2.3167,-2.2533,-2.1921,0.0,0.0,0.0,0.0,0.0,0.0,0.0,0.0,0.0,0.0,0.0,0.0,0.0,0.0,0.0,0.0,0.0,0.0,0.0,0.0,0.0,0.0,0.0,-0.8861,-0.8662,-0.9322,-0.9652,-0.9652,-1.0554,-1.0994,-1.1005,-1.133,-1.1571,-1.1643,-1.2036,-1.2287,0.0,0.0,-1.3824,-1.36,-1.4496,0.0,0.0,0.0,0.0,0.0,0.0,0.0,0.0,-1.2803,-1.2618,-1.251,-1.1895,0.0,0.0,0.0,0.0,0.0,-1.0971,-1.1124,-1.1302,-1.2045,-1.1567,-1.1112,0.0,0.0,0.0,0.0,0.0,0.0,0.0,-1.3022,-1.3555,-1.351,-1.4512,-1.6005,-1.8004,-1.8883,-1.9587,-2.0192,-2.132,-2.2144,-2.2519,-2.3587,-2.4152,-2.4152,-2.4152,-2.4152,-2.4152,-2.4152,-2.4152,-2.4152,-2.3238,-2.3238,-2.4152,-2.4053,-2.3372,-2.2437,-2.3689,-2.3634,-2.2456,-2.3717,-2.4251,-2.4214,-2.3428,-2.3529,-2.4097,-2.3419,-2.3731,-2.4833,-2.4833,-2.5137,-2.5635,-2.5645,-2.4805,-2.3665,0.0,0.0,0.0,0.0,0.0,0.0,0.0,0.0,0.0,0.0,0.0,0.0,0.0,0.0,0.0,0.0,0.0,0.0,0.0,0.0,0.0,0.0,-0.8656,-0.8589,-0.8439,-0.944,-0.9939,-0.9939,-1.0946,-1.1406,-1.1406,-1.1483,-1.1784,-1.2279,-1.2217,-1.2781,-1.3736,-1.3794,-1.4116,-1.4563,-1.4755,0.0,0.0,0.0,0.0,0.0,0.0,0.0,0.0,-1.3266,-1.3074,-1.2908,-1.1978,0.0,0.0,0.0,0.0,0.0,-1.1161,-1.1276,-1.1456,-1.2201,-1.1727,-1.1267,-1.1999,0.0,0.0,0.0,0.0,0.0,0.0,-1.4681,-1.5471,-1.3757,-1.4867,-1.6532,-1.8118,-1.912,-1.9885,-2.0189,-2.2122,-2.3266,-2.2911,-2.3684,-2.4152,-2.4152,-2.4152,-2.4152,-2.4152,-2.4152,-2.4152,-2.4152,-2.4053,-2.4044,-2.4152,-2.3238,-2.2823,-2.2868,-2.3925,-2.3966,-2.314,-2.4322,-2.4637,-2.443,-2.43,-2.423,-2.4143,-2.4024,-2.4141,-2.435,-2.4735,-2.4932,-2.5039,-2.5538,-2.5538,-2.5323,0.0,0.0,0.0,0.0,0.0,0.0,0.0,0.0,0.0,0.0,0.0,0.0,0.0,0.0,0.0,0.0,0.0,0.0,0.0,0.0,0.0,0.0,-0.8488,-0.8421,-0.841,-0.9124,-0.952,-0.9583,-1.042,-1.0916,-1.1035,-1.1556,-1.2106,-1.2625,-1.2888,-1.3302,-1.3872,-1.4116,-1.4416,-1.4673,0.0,0.0,0.0,0.0,0.0,0.0,0.0,0.0,0.0,0.0,-1.342,-1.3243,-1.2334,0.0,0.0,0.0,0.0,0.0,-1.1706,-1.1719,-1.1962,-1.2763,-1.2024,-1.153,-1.3152,0.0,0.0,0.0,0.0,0.0,0.0,-1.4118,-1.4858,-1.491,-1.6718,-1.8259,-1.8751,-1.9397,-2.017,-2.0979,-2.2122,-2.2831,-2.2875,-2.3675,-2.4152,-2.4152,-2.4152,-2.4152,-2.4152,-2.4152,-2.4152,-2.4152,-2.4152,-2.4152,-2.4152,-2.3836,-2.3223,-2.2621,-2.3745,-2.3892,-2.301,-2.415,-2.4735,-2.4707,-2.4256,-2.4225,-2.4313,-2.386,-2.3943,-2.444,-2.4735,-2.5039,-2.5137,-2.5538,-2.5742,-2.5742,0.0,0.0,0.0,0.0,0.0,0.0,0.0,0.0,0.0,0.0,0.0,0.0,0.0,0.0,0.0,0.0,0.0,0.0,0.0,0.0,-0.8751,-0.8544,-0.8375,-0.829,-0.8365,-0.8801,-0.9064,-0.9115,-0.9906,-1.0473,-1.0887,-1.1797,-1.2483,-1.2968,-1.3433,-1.375,-1.3871,-1.438,-1.4523,-1.4523,0.0,0.0,0.0,0.0,0.0,0.0,0.0,0.0,0.0,0.0,0.0,0.0,0.0,0.0,0.0,-1.2323,-1.2403,-1.2434,-1.2289,-1.2264,-1.2457,-1.3363,0.0,-1.1769,-1.4161,-1.2862,0.0,0.0,0.0,0.0,0.0,-1.3605,-1.4371,-1.626,-1.8171,-1.9498,-1.9574,-1.9938,-2.056,-2.1733,-2.2131,-2.2469,-2.2966,-2.3739,-2.4152,-2.4152,-2.4152,-2.4152,-2.4152,-2.4152,-2.4152,-2.4152,-2.4152,-2.4251,-2.4251,-2.444,-2.3966,-2.2852,-2.3897,-2.4044,-2.3345,-2.4303,-2.4833,-2.5001,-2.4345,-2.4239,-2.4581,-2.3944,-2.396,-2.4529,-2.4833,-2.5137,-2.544,-2.5635,-2.5742,-2.5742,0.0,0.0,0.0,0.0,0.0,0.0,0.0,0.0,0.0,0.0,0.0,0.0,0.0,0.0,0.0,0.0,0.0,0.0,0.0,0.0,-0.8421,-0.8319,-0.8233,-0.8215,-0.8215,-0.8672,-0.8911,-0.8911,-0.9791,-1.0735,-1.1739,-1.2318,-1.2893,-1.3453,-1.3486,-1.3835,-1.4329,-1.4408,-1.4419,-1.4419,-1.4419,0.0,0.0,0.0,0.0,0.0,0.0,0.0,0.0,0.0,0.0,0.0,0.0,0.0,-1.2944,-1.2446,-1.2619,-1.2919,-1.2791,-1.2774,-1.2938,-1.3753,-1.2586,0.0,-1.4161,-1.3027,0.0,-1.4005,0.0,0.0,-1.3965,-1.4589,-1.5703,-1.7569,-1.8197,-1.9021,-2.0368,-2.0853,-2.1119,-2.1594,-2.2713,-2.3377,-2.322,-2.3806,-2.4152,-2.4152,-2.4152,-2.4152,-2.4152,-2.4152,-2.4152,-2.4152,-2.4152,-2.4251,-2.444,-2.4529,-2.4492,-2.43,-2.4894,-2.5187,-2.5101,-2.5499,-2.5538,-2.5235,-2.5178,-2.508,-2.4833,-2.4767,-2.4679,-2.4529,-2.5039,-2.544,-2.5635,-2.5732,-2.5742,-2.5742,0.0,0.0,0.0,0.0,0.0,0.0,0.0,0.0,0.0,0.0,0.0,0.0,0.0,0.0,0.0,0.0,0.0,0.0,0.0,0.0,-1.0155,-1.0114,-1.0018,-0.9837,-0.9563,-0.9045,-0.9129,-0.9833,-1.1212,-1.2229,-1.2872,-1.3152,-1.3575,-1.4065,-1.4065,-1.4163,-1.428,-1.4373,-1.4373,-1.428,-1.428,-1.4326,0.0,0.0,0.0,0.0,0.0,0.0,0.0,0.0,-1.3703,-1.3641,0.0,0.0,-1.3488,-1.3303,-1.354,-1.3811,-1.3406,-1.3064,-1.3154,-1.4505,-1.3243,0.0,0.0,-1.3785,-1.3061,-1.4906,-1.3945,-1.3067,-1.411,-1.5583,-1.7033,-1.8162,-1.9088,-1.9894,-2.0633,-2.0694,-2.0979,-2.1961,-2.2324,-2.2808,-2.3308,-2.3587,-2.3877,-2.4134,-2.4152,-2.4152,-2.4152,-2.4152,-2.4152,-2.4152,-2.4152,-2.4251,-2.4341,-2.4637,-2.4735,-2.4735,-2.4932,-2.5137,-2.5333,-2.5235,-2.5235,-2.5333,-2.5137,-2.4932,-2.4627,-2.4627,-2.4538,-2.4341,-2.4843,-2.5235,-2.544,-2.5635,-2.5742,-2.5742,0.0,0.0,0.0,0.0,0.0,0.0,0.0,0.0,0.0,0.0,0.0,0.0,0.0,0.0,0.0,0.0,0.0,0.0,0.0,-1.1326,-1.1174,-1.1131,-1.1051,-1.0833,-1.0507,-0.9761,-0.9713,-1.0358,-1.1994,-1.3022,-1.3452,-1.3658,-1.3987,-1.4326,-1.4291,-1.4233,-1.414,-1.4233,-1.4233,-1.414,-1.414,-1.4186,0.0,0.0,0.0,0.0,0.0,0.0,0.0,0.0,-1.3576,-1.3477,0.0,0.0,0.0,0.0,-1.3967,-1.4093,-1.3716,-1.3314,-1.3372,-1.4639,0.0,0.0,-1.4925,-1.4246,-1.3606,-1.516,-1.4422,-1.3845,-1.469,-1.6333,-1.7681,-1.8329,-1.9287,-2.019,-2.0738,-2.0597,-2.0846,-2.178,-2.198,-2.2371,-2.3012,-2.3185,-2.3474,-2.3758,-2.3886,-2.396,-2.396,-2.4079,-2.4152,-2.4152,-2.4024,-2.4058,-2.4058,-2.4406,-2.4534,-2.464,-2.464,-2.488,-2.544,-2.5235,-2.5235,-2.5333,-2.5137,-2.4833,-2.4637,-2.4637,-2.4538,-2.4449,-2.4637,-2.5039,-2.5333,-2.5538,-2.5635,-2.5742,0.0,0.0,0.0,0.0,0.0,0.0,0.0,0.0,0.0,0.0,0.0,0.0,0.0,0.0,0.0,0.0,0.0,0.0,0.0,-1.1149,-1.1039,-1.1044,-1.1013,-1.0951,-1.0731,-1.0849,-1.0718,-1.0211,-1.1774,-1.2774,-1.3329,-1.3797,-1.4057,-1.4176,-1.4067,-1.4031,-1.402,-1.4031,-1.4031,-1.402,-1.402,-1.402,-1.402,0.0,0.0,0.0,0.0,0.0,0.0,0.0,-1.3217,-1.2889,0.0,0.0,0.0,0.0,-1.3658,-1.3621,-1.3631,-1.3621,-1.3634,0.0,0.0,0.0,-1.5093,-1.4236,-1.3519,-1.4495,-1.5435,-1.6024,-1.5865,-1.6713,-1.7595,-1.798,-1.8684,-1.9592,-2.0578,-2.0766,-2.0835,-2.0944,-2.1798,-2.2236,-2.2061,-2.2526,-2.2857,-2.2857,-2.3222,-2.3538,-2.3538,-2.3923,-2.4143,-2.4143,-2.3749,-2.3634,-2.3923,-2.3796,-2.3868,-2.4063,-2.4063,-2.4694,-2.5723,-2.5723,-2.5528,-2.5323,-2.5323,-2.5128,-2.4922,-2.4932,-2.4932,-2.4833,-2.4637,-2.4833,-2.5333,-2.5333,-2.544,-2.5742,0.0,0.0,0.0,0.0,0.0,0.0,0.0,0.0,0.0,0.0,0.0,0.0,0.0,0.0,0.0,0.0,0.0,0.0,0.0,-1.3213,-1.3149,-1.3239,-1.3432,-1.3364,-1.3027,-1.3267,-1.2821,-1.1774,-1.2936,-1.3634,-1.3818,-1.3956,-1.402,-1.4136,-1.5218,-1.5189,-1.4417,-1.5337,-1.5178,-1.4326,-1.401,-1.3915,-1.3973,0.0,0.0,0.0,0.0,0.0,0.0,0.0,0.0,0.0,0.0,0.0,0.0,-1.4801,-1.4607,-1.429,-1.4857,-1.4037,0.0,-1.4408,0.0,0.0,0.0,-1.4449,0.0,0.0,-1.5323,-1.5232,-1.5643,-1.6905,-1.7997,-1.8538,-1.9367,-2.0164,-2.0863,-2.0899,-2.1051,-2.1445,-2.1743,-2.1934,-2.2217,-2.2345,-2.2639,-2.2838,-2.2966,-2.3039,-2.3039,-2.3244,-2.3308,-2.3308,-2.3189,-2.3229,-2.3513,-2.3458,-2.3579,-2.3868,-2.3868,-2.4095,-2.4533,-2.4146,-2.3956,-2.3852,-2.3681,-2.3595,-2.3518,-2.3795,-2.418,-2.4637,-2.4735,-2.4833,-2.5039,-2.544,-2.5635,-2.5742,0.0,0.0,0.0,0.0,0.0,0.0,0.0,0.0,0.0,0.0,0.0,0.0,0.0,0.0,0.0,0.0,0.0,0.0,0.0,0.0,-1.4587,-1.4099,-1.4475,-1.4553,-1.4228,-1.4329,-1.407,-1.3558,-1.4149,-1.4466,-1.4512,-1.4466,-1.4466,-1.4581,-1.5454,-1.5482,-1.4776,-1.5561,-1.5423,-1.4686,-1.4419,-1.4419,-1.4455,0.0,0.0,0.0,0.0,0.0,0.0,0.0,0.0,0.0,0.0,0.0,0.0,-1.487,-1.4761,-1.468,-1.5192,-1.4512,0.0,-1.4982,-1.4398,-1.3569,-1.3886,0.0,0.0,-1.5722,-1.5554,-1.5523,-1.6043,-1.7149,-1.8211,-1.891,-1.9704,-2.039,-2.0799,-2.1006,-2.1284,-2.1562,-2.1651,-2.1832,-2.2071,-2.2089,-2.2199,-2.2456,-2.2528,-2.2703,-2.2703,-2.2774,-2.2857,-2.2857,-2.2701,-2.2703,-2.2889,-2.2815,-2.2915,-2.3098,-2.3098,-2.3189,-2.33,-2.3428,-2.3392,-2.3299,-2.3036,-2.2857,-2.2875,-2.3112,-2.3538,-2.4091,-2.4296,-2.4594,-2.4932,-2.5235,-2.5538,-2.5742,0.0,0.0,0.0,0.0,0.0,0.0,0.0,0.0,0.0,0.0,0.0,0.0,0.0,0.0,0.0,0.0,0.0,0.0,0.0,0.0,-1.5466,-1.4232,-1.466,-1.4914,-1.4833,-1.4611,-1.4789,-1.5467,-1.5233,-1.5187,-1.5311,-1.5187,-1.5187,-1.5311,-1.5336,-1.5234,-1.5153,-1.5245,-1.5211,-1.5084,-1.5039,-1.5095,-1.5081,-1.4552,0.0,0.0,0.0,0.0,0.0,0.0,0.0,0.0,0.0,0.0,0.0,-1.4323,-1.4445,-1.4892,-1.5027,0.0,0.0,-1.5487,-1.4926,0.0,-1.4638,-1.4194,-1.415,-1.5636,-1.6074,-1.6328,-1.6781,-1.7475,-1.822,-1.8956,-1.9618,-2.0218,-2.0648,-2.1096,-2.1401,-2.1392,-2.1562,-2.1741,-2.1741,-2.1741,-2.1741,-2.1741,-2.2071,-2.2272,-2.2272,-2.263,-2.2747,-2.2747,-2.2474,-2.2272,-2.2272,-2.2104,-2.2097,-2.2097,-2.2097,-2.2097,-2.2124,-2.3044,-2.3373,-2.3094,-2.2925,-2.2868,-2.2896,-2.2896,-2.3134,-2.3483,-2.3483,-2.4022,-2.4777,-2.4875,-2.5197,-2.5645,0.0,0.0,0.0,0.0,0.0,0.0,0.0,0.0,0.0,0.0,0.0,0.0,0.0,0.0,0.0,0.0,0.0,0.0,0.0,0.0,-1.6163,-1.6342,-1.611,-1.6153,-1.6475,-1.6178,-1.622,-1.6641,-1.5576,-1.5187,-1.5389,-1.5187,-1.5187,-1.5424,-1.6491,-1.6501,-1.5715,-1.6609,-1.6238,-1.5078,-1.4716,-1.4344,-1.4027,-1.3902,-1.3899,0.0,0.0,0.0,0.0,0.0,0.0,0.0,-1.3605,-1.3979,-1.4386,-1.4816,-1.5151,-1.551,-1.6032,-1.5569,0.0,0.0,-1.4621,-1.4494,-1.5318,-1.5349,-1.5477,-1.6464,-1.5789,-1.5326,-1.6285,-1.7081,-1.774,-1.8211,-1.9272,-2.021,-2.0466,-2.1016,-2.1482,-2.1651,-2.1651,-2.1741,-2.1741,-2.1741,-2.1741,-2.1741,-2.1814,-2.1869,-2.1869,-2.1951,-2.1997,-2.1997,-2.1915,-2.1959,-2.2138,-2.1876,-2.1919,-2.2097,-2.1919,-2.183,-2.183,-2.2005,-2.2078,-2.2078,-2.1997,-2.2262,-2.2741,-2.2548,-2.2787,-2.3335,-2.3335,-2.369,-2.416,-2.4631,-2.5035,-2.544,0.0,0.0,0.0,0.0,0.0,0.0,0.0,0.0,0.0,0.0,0.0,0.0,0.0,0.0,0.0,0.0,0.0,0.0,0.0,0.0,0.0,-1.691,-1.6346,-1.6323,-1.6834,-1.663,-1.6718,-1.7183,-1.6466,-1.6107,0.0,0.0,0.0,-1.5957,-1.6856,-1.6826,-1.6188,-1.6765,-1.6404,-1.5422,-1.5132,-1.4788,-1.4459,-1.4433,-1.432,-1.4145,-1.4116,0.0,0.0,0.0,0.0,0.0,0.0,0.0,-1.4443,-1.4435,-1.4911,-1.5468,-1.5848,0.0,0.0,-1.5997,0.0,-1.6098,-1.6186,-1.6209,-1.6416,-1.684,-1.6014,-1.5446,-1.6199,-1.6807,-1.7467,-1.8106,-1.9024,-1.9927,-2.056,-2.1222,-2.1599,-2.1713,-2.1909,-2.1909,-2.1741,-2.1741,-2.1741,-2.1741,-2.1741,-2.1741,-2.1741,-2.1741,-2.1741,-2.1741,-2.1741,-2.1741,-2.1919,-2.1741,-2.1731,-2.1919,-2.1741,-2.1741,-2.1741,-2.1741,-2.1741,-2.1741,-2.1741,-2.186,-2.2224,-2.2043,-2.2373,-2.2815,-2.2815,-2.3168,-2.3653,-2.4136,-2.4545,-2.487,0.0,0.0,0.0,0.0,0.0,0.0,0.0,0.0,0.0,0.0,0.0,0.0,0.0,0.0,0.0,0.0,0.0,0.0,0.0,0.0,0.0,0.0,-1.6407,-1.6317,-1.6823,-1.6692,-1.689,-1.7404,-1.7295,0.0,0.0,0.0,0.0,-1.6985,0.0,-1.6926,-1.6565,-1.6565,-1.6229,-1.5703,-1.5676,-1.5465,-1.5145,-1.5109,-1.4933,-1.4716,-1.4675,-1.4299,-1.3752,-1.3752,0.0,0.0,0.0,0.0,-1.4614,-1.3838,-1.4372,-1.5216,0.0,0.0,-1.6859,-1.7287,-1.7624,0.0,-1.7021,-1.7015,-1.7098,-1.7111,-1.6403,-1.5891,-1.6191,-1.6559,-1.7123,-1.8048,-1.8779,-1.9576,-2.0558,-2.1304,-2.1673,-2.1762,-2.2095,-2.2105,-2.1722,-2.1612,-2.1646,-2.1621,-2.1566,-2.152,-2.152,-2.152,-2.1557,-2.1621,-2.163,-2.1667,-2.1741,-2.1741,-2.1741,-2.1741,-2.1741,-2.1741,-2.1741,-2.1741,-2.1741,-2.1741,-2.1741,-2.1741,-2.1741,-2.1741,-2.1933,-2.2226,-2.2226,-2.2557,-2.314,-2.3588,-2.3965,-2.4278,0.0,0.0,0.0,0.0,0.0,0.0,0.0,0.0,0.0,0.0,0.0,0.0,0.0,0.0,0.0,0.0,0.0,0.0,-1.9391,0.0,0.0,-1.7787,-1.7451,-1.733,-1.741,-1.7205,-1.7244,-1.7488,0.0,0.0,0.0,0.0,0.0,-1.8882,0.0,-1.7586,-1.6833,-1.6833,-1.6232,-1.5274,-1.5452,-1.5153,-1.4624,-1.4663,-1.4904,-1.5228,-1.533,-1.4946,-1.4365,-1.4365,-1.4014,0.0,0.0,0.0,-1.3776,-1.3652,-1.4422,-1.5258,0.0,0.0,-1.6686,0.0,-1.7191,-1.7277,0.0,-1.788,-1.7945,-1.788,-1.6751,-1.5814,-1.5865,-1.6318,-1.6781,-1.7281,-1.8284,-1.9317,-2.0181,-2.0893,-2.1447,-2.1778,-2.1844,-2.1816,-2.1667,-2.1453,-2.1268,-2.1163,-2.0879,-2.0686,-2.0686,-2.0686,-2.0842,-2.1181,-2.119,-2.1365,-2.1731,-2.1741,-2.1741,-2.1741,-2.1741,-2.1741,-2.1741,-2.1741,-2.1741,-2.1741,-2.1741,-2.1741,-2.1741,-2.1741,-2.1768,-2.1814,-2.1814,-2.2061,-2.2502,-2.3025,-2.3464,-2.3918,0.0,0.0,0.0,0.0,0.0,0.0,0.0,0.0,0.0,0.0,0.0,0.0,0.0,0.0,0.0,-1.8806,-1.9334,-1.9551,-1.9198,-1.8998,-1.8631,-1.795,-1.7788,-1.7733,-1.7733,-1.7625,-1.7625,-1.7733,0.0,0.0,0.0,-2.0083,-1.9551,0.0,0.0,0.0,0.0,-1.7612,-1.6938,-1.5451,-1.5569,-1.5247,-1.4774,-1.5156,-1.5372,-1.5418,-1.5684,-1.5189,-1.4444,-1.4444,-1.4071,-1.3621,-1.3621,0.0,0.0,0.0,-1.3948,-1.4549,-1.5635,-1.5888,-1.6322,0.0,-1.7952,-1.7539,-1.8889,-1.8649,-1.8238,-1.8649,-1.7949,-1.7335,-1.7335,-1.7456,-1.7661,-1.7879,-1.8537,-1.9216,-1.9949,-2.0738,-2.1332,-2.1765,-2.2065,-2.2095,-2.1788,-2.1587,-2.1539,-2.153,-2.1304,-2.1219,-2.119,-2.0979,-2.0924,-2.1099,-2.0897,-2.0869,-2.1053,-2.1053,-2.1163,-2.1383,-2.1621,-2.1741,-2.1741,-2.1741,-2.1741,-2.1741,-2.1741,-2.1741,-2.1741,-2.1741,-2.1741,-2.1741,-2.1741,-2.1841,-2.2025,-2.2518,-2.2713,-2.3019,0.0,0.0,0.0,0.0,0.0,0.0,0.0,0.0,0.0,0.0,0.0,0.0,0.0,0.0,0.0,0.0,-1.9551,-1.9578,-1.8818,-1.8754,-1.8467,-1.7855,-1.7882,-1.7882,-1.7882,-1.7882,-1.7882,0.0,0.0,0.0,-2.0989,-2.1046,-2.0483,0.0,-2.0501,-1.9872,0.0,-1.8611,-1.7835,-1.6232,-1.6368,-1.5931,-1.5306,-1.588,-1.5998,-1.5944,-1.6188,-1.5668,-1.4834,-1.4834,-1.4362,-1.38,-1.38,-1.3716,0.0,0.0,0.0,-1.3972,0.0,0.0,-1.5967,-1.8491,-1.8082,-1.7445,-1.9116,-1.8868,-1.8485,-1.9264,-1.936,-1.9378,-1.9378,-1.8735,-1.8347,-1.8613,-1.876,-1.8966,-1.9687,-2.0449,-2.1035,-2.1475,-2.202,-2.219,-2.1836,-2.1752,-2.1637,-2.1654,-2.1578,-2.14,-2.1272,-2.0994,-2.0789,-2.0805,-2.0521,-2.042,-2.0521,-2.0521,-2.0668,-2.0961,-2.1273,-2.1475,-2.1575,-2.1575,-2.164,-2.1741,-2.1741,-2.1741,-2.1741,-2.1741,-2.1741,-2.1741,-2.1741,-2.1741,-2.1768,-2.2071,-2.2272,-2.2418,0.0,0.0,0.0,0.0,0.0,0.0,0.0,0.0,0.0,0.0,0.0,0.0,-1.9591,-2.0134,-2.0229,-1.97,-2.0161,-1.9908,-1.8674,-1.8207,-1.7869,-1.7733,-1.7842,0.0,-1.7882,-1.7882,-1.7882,0.0,0.0,0.0,-1.9809,-2.086,-2.1237,-2.0953,-2.0746,-2.0706,-2.0793,0.0,0.0,0.0,-1.8286,-1.7499,-1.6152,-1.6507,-1.6783,-1.6951,-1.7102,-1.6595,-1.5901,-1.5901,-1.5232,-1.4384,-1.4384,-1.3999,-1.3621,0.0,0.0,0.0,0.0,-1.5248,0.0,-1.6824,-1.6634,-1.6454,-1.7665,-1.834,-1.8955,-1.9529,-2.0752,-2.1741,-2.1741,-1.9704,-1.8223,-1.8944,-1.8531,-1.8457,-1.9224,-1.9727,-2.0232,-2.0576,-2.1332,-2.1822,-2.1777,-2.1451,-2.1222,-2.1269,-2.0908,-2.0439,-1.9995,-1.9976,-1.9986,-1.998,-1.9971,-2.0136,-2.0512,-2.0521,-2.053,-2.0549,-2.0567,-2.0778,-2.1135,-2.1135,-2.1355,-2.1741,-2.1741,-2.1741,-2.1741,-2.1741,-2.1741,-2.1741,-2.1741,-2.1741,-2.1741,-2.2036,-2.2134,-2.219,0.0,0.0,0.0,0.0,0.0,0.0,0.0,0.0,0.0,0.0,0.0,0.0,0.0,-2.0373,-2.0562,-2.0785,-2.0311,-1.9439,-1.8234,-1.8004,-1.7882,-1.7842,-1.7882,-1.7882,-1.7882,-1.7882,-1.7882,0.0,0.0,-1.8506,-1.9714,-2.0121,-2.0671,-2.1345,-2.2763,-2.2135,-2.004,-2.1149,-1.996,-1.7517,-1.9309,-1.8684,-1.6797,-1.7816,-1.8284,-1.835,-1.7515,-1.7324,-1.7314,-1.6372,-1.5421,-1.4582,-1.4582,-1.4269,-1.3868,-1.3868,-1.4057,-1.445,-1.534,0.0,0.0,-1.7286,-1.6684,-1.6035,-1.779,-1.8483,-1.8804,-1.8841,-2.0393,-2.1625,-2.1129,-2.059,-2.0124,-1.9873,-1.961,-1.9403,-1.9222,-1.9601,-2.0012,-2.0457,-2.0698,-2.1018,-2.1328,-2.1257,-2.1151,-2.1182,-2.0576,-2.0216,-2.029,-1.9585,-1.9395,-1.9907,-1.9668,-1.9595,-1.9732,-2.0008,-2.0136,-2.0145,-2.0393,-2.0594,-2.0741,-2.0989,-2.119,-2.1346,-2.1621,-2.1741,-2.1741,-2.1741,-2.1741,-2.1741,-2.1741,-2.1741,-2.1731,-2.183,-2.183,-2.1937,0.0,0.0,0.0,0.0,0.0,0.0,0.0,0.0,0.0,0.0,0.0,0.0,0.0,0.0,-2.0793,-2.084,-1.9768,-1.875,-1.7896,-1.7882,-1.7882,-1.7842,-1.7882,-1.7882,-1.7882,-1.7909,-1.7909,0.0,0.0,0.0,0.0,-1.951,-2.0107,-2.0935,-2.2916,-2.2609,0.0,-2.2307,-2.1444,-1.9094,-2.0468,-1.9967,-1.8448,-1.9021,-1.9269,-1.9248,-1.8715,-1.8494,-1.8431,-1.7852,-1.6779,-1.5672,-1.5567,-1.4849,-1.402,-1.4161,-1.4395,-1.4713,-1.5333,0.0,0.0,0.0,-1.6251,-1.5787,-1.7196,-1.8263,-1.8881,-1.8762,-2.0439,-2.1822,-2.1366,-2.1614,-2.1661,-2.0967,-2.0398,-1.982,-1.9404,-1.9484,-1.9707,-1.9981,-2.0114,-2.0401,-2.0855,-2.073,-2.07,-2.076,-2.0404,-2.0149,-2.0105,-1.9511,-1.9321,-1.9705,-1.9448,-1.9301,-1.9301,-1.9577,-1.9723,-1.9723,-1.998,-2.0182,-2.0328,-2.0594,-2.0851,-2.1117,-2.1401,-2.1603,-2.1741,-2.1741,-2.1741,-2.1741,-2.1741,-2.1741,-2.1741,-2.1741,-2.1741,-2.1741,0.0,0.0,0.0,0.0,0.0,0.0,0.0,0.0,0.0,-1.9823,0.0,0.0,0.0,0.0,0.0,-1.9795,-1.8601,-1.7855,-1.7733,-1.7842,-1.7842,-1.772,-1.7842,-1.7882,-1.7882,-1.7962,-1.7975,0.0,0.0,0.0,0.0,0.0,-1.9646,-1.97,-2.0853,-2.202,-2.3094,-2.3162,-2.3029,-2.2683,-2.1853,-2.1304,-2.0917,-2.0097,-1.9607,-1.9461,-2.0668,-2.0218,-1.9265,-2.043,-1.9379,-1.7569,-1.7267,-1.5711,-1.4114,-1.4488,-1.4627,-1.4662,0.0,0.0,0.0,-1.5108,-1.5379,-1.5635,-1.5792,-1.7557,-1.9174,-1.9319,-2.0933,-2.2433,-2.2628,-2.2775,-2.2653,-2.2075,-2.0655,-1.9628,-1.9562,-1.9359,-1.9233,-1.9233,-1.9616,-2.0032,-2.0329,-2.0042,-1.9909,-1.9847,-2.0239,-2.0098,-1.9279,-1.9686,-1.9687,-1.9283,-1.9292,-1.9301,-1.9301,-1.9301,-1.9301,-1.9301,-1.9301,-1.9512,-1.9916,-1.9925,-2.0347,-2.1071,-2.1099,-2.1337,-2.1722,-2.1731,-2.1741,-2.1741,-2.1741,-2.1741,-2.1741,-2.1741,-2.1741,-2.1741,0.0,0.0,0.0,0.0,0.0,0.0,0.0,0.0,0.0,0.0,0.0,0.0,-2.1315,-2.0996,-2.0487,-1.9768,-1.9024,-1.8343,-1.7869,-1.7882,-1.7882,-1.7842,-1.7882,-1.7882,-1.7882,-1.7909,0.0,0.0,0.0,0.0,0.0,0.0,0.0,0.0,-1.9646,-2.0365,-2.0785,-2.2458,-2.1686,-1.9543,-2.2715,-2.1903,-1.903,-2.1348,-2.1145,-1.9746,-2.0907,-2.1062,-2.0737,-2.0926,-1.9804,-1.8037,-1.6404,-1.5611,-1.5266,-1.4915,-1.5017,-1.5244,-1.521,0.0,0.0,0.0,0.0,0.0,-1.5957,-1.7024,-1.8067,-1.808,-1.9673,-2.116,-2.1464,-2.2221,-2.2726,-2.2763,-2.1628,-2.0355,-1.9386,-1.9168,-1.9116,-1.9116,-1.9229,-1.9503,-1.9913,-1.9655,-1.9434,-1.9476,-1.8737,-1.8361,-1.8397,-1.8813,-1.8957,-1.8871,-1.9155,-1.9301,-1.9301,-1.9301,-1.9301,-1.9301,-1.9301,-1.9366,-1.9485,-1.9787,-2.0044,-2.0292,-2.086,-2.1172,-2.131,-2.1612,-2.1741,-2.1741,-2.1741,-2.1741,-2.1741,-2.1741,-2.1741,-2.1731,0.0,0.0,0.0,0.0,0.0,0.0,0.0,0.0,0.0,0.0,0.0,0.0,-2.0623,-2.0161,-1.9659,-1.9334,-1.875,-1.8303,-1.7896,-1.7882,-1.7882,-1.7882,-1.7882,-1.7882,-1.7882,-1.7909,0.0,0.0,0.0,0.0,0.0,0.0,0.0,0.0,0.0,0.0,-1.9062,-2.0962,-2.1125,-2.0311,-2.259,-2.2441,-2.103,-2.2579,-2.2322,-2.1328,-2.2495,-2.2603,-2.22,-2.2598,-2.1215,-1.9127,-1.7782,-1.659,-1.5784,-1.61,-1.5889,-1.557,-1.5525,-1.5659,-1.5792,-1.5792,0.0,0.0,-1.5988,-1.7133,-1.8198,-1.8248,-1.9848,-2.1198,-2.1039,-2.1513,-2.1989,-2.1965,-2.1296,-2.0653,-2.0041,-1.9452,-1.9075,-1.9075,-1.8942,-1.9044,-1.9448,-1.9127,-1.8884,-1.873,-1.8228,-1.7991,-1.8091,-1.8339,-1.8467,-1.8467,-1.8852,-1.9054,-1.9054,-1.9219,-1.9301,-1.9301,-1.9301,-1.9301,-1.9311,-1.9558,-1.976,-1.9962,-2.042,-2.0805,-2.1126,-2.1374,-2.1575,-2.1741,-2.1741,-2.1741,-2.1741,-2.1741,-2.1741,-2.1741,0.0,0.0,0.0,0.0,0.0,0.0,0.0,0.0,0.0,0.0,-1.9307,-1.9673,-1.9605,-1.9103,-1.8806,-1.8806,-1.8262,-1.7882,-1.7882,-1.7882,-1.7882,-1.7882,-1.7882,-1.7882,-1.7882,-1.7975,0.0,0.0,0.0,0.0,0.0,0.0,0.0,0.0,0.0,0.0,0.0,-1.9035,-2.0785,-2.2715,-2.1903,-2.2821,-2.4517,-2.373,-2.3216,-2.3162,-2.453,-2.4245,-2.3337,-2.4462,-2.2991,-2.0627,-2.0117,-1.8111,-1.6158,-1.7449,-1.68,-1.5715,-1.5792,-1.5792,-1.5792,-1.5792,-1.5792,0.0,-1.5957,-1.7376,-1.8726,-1.8964,-2.0402,-2.1488,-2.0819,-2.0783,-2.0714,-2.0423,-2.0351,-2.0405,-2.0751,-1.9901,-1.9156,-1.8996,-1.8757,-1.8674,-1.9075,-1.8674,-1.8347,-1.8008,-1.829,-1.8314,-1.7972,-1.8027,-1.8054,-1.8054,-1.844,-1.8669,-1.8715,-1.9063,-1.9256,-1.9301,-1.9301,-1.9301,-1.9301,-1.9301,-1.9503,-1.9861,-1.9907,-2.0328,-2.0979,-2.1071,-2.1355,-2.1741,-2.1741,-2.1741,-2.1741,-2.1741,-2.1741,-2.1741,-2.0318,0.0,0.0,0.0,0.0,0.0,0.0,0.0,0.0,-1.882,-1.9307,-1.951,-1.9051,-1.8888,-1.8806,-1.8806,-1.8262,-1.7882,-1.7882,-1.7882,-1.7882,-1.7882,-1.7882,-1.7882,-1.7882,-1.7909,0.0,0.0,0.0,0.0,0.0,0.0,0.0,0.0,0.0,0.0,0.0,-1.814,-1.9076,-2.0541,-2.216,-2.2525,-2.2305,-2.4015,-2.3458,-2.2061,-2.4232,-2.4245,-2.3229,-2.3446,-2.3163,-2.2266,-1.9921,-1.8647,-1.776,-1.6826,-1.6138,-1.5715,-1.5792,-1.5792,-1.5792,-1.5792,-1.5792,0.0,-1.5836,-1.6161,-1.669,-1.7556,-1.8061,-1.8714,-1.9952,-1.9915,-1.9969,-2.0795,-1.9865,-1.9095,-1.9159,-1.9604,-1.9437,-1.8144,-1.8565,-1.9008,-1.9075,-1.8472,-1.8076,-1.8008,-1.7527,-1.7195,-1.7138,-1.744,-1.7614,-1.7614,-1.8018,-1.8394,-1.8705,-1.8643,-1.8843,-1.9301,-1.9152,-1.9152,-1.9301,-1.9301,-1.9347,-1.9439,-1.9787,-2.0017,-2.0209,-2.0842,-2.1355,-2.1741,-2.1741,-2.1741,-2.1741,-2.1741,-2.1741,-2.1741,-2.0775,0.0,0.0,0.0,0.0,0.0,0.0,0.0,-1.8563,-1.8426,-1.8658,-1.8575,-1.7882,-1.7814,-1.7666,-1.7329,-1.7033,-1.6858,-1.6858,-1.718,-1.7342,-1.7342,-1.7719,-1.7882,-1.7882,-1.7882,0.0,0.0,0.0,0.0,0.0,0.0,0.0,0.0,0.0,0.0,0.0,-1.7882,-1.8587,-1.9849,-2.1627,-2.2282,-2.2522,-2.4327,-2.4259,-2.3363,-2.4571,-2.4625,-2.4028,-2.3378,-2.3189,-2.2972,-2.1605,-2.0125,-1.8702,-1.7772,-1.6828,-1.6057,-1.5836,-1.5792,-1.5792,-1.5792,-1.5792,0.0,0.0,-1.62,-1.6727,-1.7303,-1.7832,-1.8277,-1.8645,-1.859,-1.879,-1.9662,-1.8995,-1.845,-1.8757,-1.9017,-1.9156,-1.8892,-1.8992,-1.9075,-1.9075,-1.8741,-1.8414,-1.8008,-1.7323,-1.6908,-1.6908,-1.7092,-1.7202,-1.7202,-1.7596,-1.7908,-1.81,-1.8294,-1.8593,-1.9008,-1.8982,-1.9073,-1.9301,-1.9301,-1.9301,-1.9311,-1.9522,-1.9732,-1.9962,-2.0356,-2.0879,-2.1447,-2.1649,-2.1741,-2.1741,-2.1741,-2.1741,-2.1741,-2.0986,0.0,0.0,0.0,0.0,0.0,0.0,0.0,-1.8068,-1.7798,-1.7784,-1.761,-1.7208,-1.7047,-1.6794,-1.6394,-1.6329,-1.6182,-1.5835,-1.6539,-1.6913,-1.6805,-1.7287,-1.7651,-1.7882,-1.7773,-1.776,0.0,0.0,0.0,0.0,0.0,0.0,0.0,0.0,0.0,0.0,-1.8235,-1.8927,-2.0134,-2.1301,-2.2173,-2.2986,-2.4462,-2.4869,-2.4693,-2.4924,-2.5005,-2.4829,-2.3581,-2.3189,-2.32,-2.3125,-2.1334,-1.9248,-1.8989,-1.7779,-1.6436,-1.6057,-1.5881,-1.5792,-1.5792,-1.5792,-1.5792,0.0,0.0,0.0,-1.7111,-1.7796,-1.8181,-1.7532,-1.7352,-1.7593,-1.8432,-1.813,-1.8129,-1.8992,-1.8703,-1.8665,-1.9456,-1.9137,-1.8835,-1.8741,-1.8702,-1.8491,-1.793,-1.7323,-1.6978,-1.6908,-1.683,-1.683,-1.6908,-1.7211,-1.7341,-1.7423,-1.7857,-1.8262,-1.8561,-1.8731,-1.9,-1.9222,-1.9301,-1.9301,-1.9301,-1.9301,-1.9494,-1.9815,-1.9897,-2.0301,-2.0934,-2.142,-2.1667,-2.1741,-2.1741,-2.1741,-2.1741,-2.0375,-2.0582,0.0,0.0,0.0,0.0,0.0,0.0,-1.7678,-1.7006,-1.6938,-1.7316,-1.8284,-1.7935,-1.7759,-1.8257,-1.8298,-1.7585,-1.5915,-1.6914,-1.7343,-1.6819,-1.6426,-1.6734,-1.7868,-1.7366,-1.7353,0.0,0.0,0.0,0.0,0.0,0.0,0.0,-1.7882,0.0,-1.9497,-1.9497,-2.0161,-2.1328,-2.2485,-2.2417,-2.1871,-2.4137,-2.4354,-2.3513,-2.4639,-2.5005,-2.4829,-2.3581,-2.3189,-2.3051,-2.2142,-2.0718,-1.9338,-1.9382,-1.803,-1.6479,-1.6436,-1.6132,-1.5792,-1.5792,-1.5792,-1.5792,-1.5792,0.0,-1.5972,-1.5972,0.0,-1.6404,-1.7267,0.0,0.0,-1.8642,-1.7922,-1.775,-1.9599,-1.9155,-1.8379,-1.771,-1.7888,-1.7835,-1.7356,-1.7378,-1.7447,-1.755,-1.747,-1.7254,-1.6908,-1.6751,-1.6751,-1.6908,-1.6797,-1.6847,-1.7216,-1.7161,-1.7471,-1.8166,-1.8219,-1.8494,-1.9073,-1.9222,-1.9301,-1.9301,-1.9301,-1.9329,-1.9402,-1.9778,-1.998,-2.0136,-2.0888,-2.141,-2.1741,-2.1741,-2.1741,-2.1741,-2.0186,-2.0306,0.0,0.0,0.0,0.0,0.0,0.0,-1.7029,-1.6508,-1.6578,-1.6907,-1.7544,-1.7423,-1.7571,-1.8208,-1.8166,-1.7921,-1.7383,-1.7733,-1.7855,-1.7608,-1.7395,-1.7484,-1.7868,-1.7704,-1.7676,-1.7975,-1.7909,0.0,0.0,0.0,0.0,0.0,-1.7801,-1.8518,-1.97,-1.9642,-2.0305,-2.1464,-2.193,-2.1821,-2.1681,-2.4096,-2.4706,-2.4245,-2.4055,-2.4422,-2.472,-2.2821,-2.3105,-2.3933,-2.2281,-2.1274,-2.0724,-2.0683,-1.903,-1.7329,-1.7537,-1.7612,-1.7509,-1.6878,-1.7029,-1.7214,-1.6797,-1.6236,-1.5792,-1.5792,0.0,0.0,0.0,0.0,0.0,0.0,-1.7382,-1.7511,-1.8684,-1.8571,-1.8428,-1.8506,-1.8407,-1.8313,-1.8239,-1.7339,-1.6921,-1.7223,-1.7171,-1.6778,-1.6127,-1.6506,-1.676,-1.6751,-1.6612,-1.6684,-1.6865,-1.6875,-1.7151,-1.7787,-1.8114,-1.8497,-1.8816,-1.9122,-1.9301,-1.9301,-1.9301,-1.9301,-1.932,-1.9494,-1.9714,-1.9962,-2.0292,-2.0814,-2.1401,-2.1649,-2.1741,-2.1741,-1.9905,0.0,0.0,0.0,0.0,0.0,0.0,-1.7213,-1.6888,-1.6614,-1.6673,-1.6964,-1.747,-1.7066,-1.7161,-1.8153,-1.8167,-1.8275,-1.858,-1.844,-1.8535,-1.8936,-1.814,-1.793,-1.8467,-1.8029,-1.7917,-1.8068,0.0,0.0,0.0,0.0,0.0,0.0,0.0,-1.8476,-1.9714,-1.9921,-2.0732,-2.1903,-2.2264,-2.24,-2.2549,-2.3987,-2.472,-2.4896,-2.4028,-2.4272,-2.4693,-2.2617,-2.3078,-2.4327,-2.282,-2.2083,-2.189,-2.2131,-2.0603,-1.8865,-1.9192,-1.924,-1.9008,-1.7955,-1.8005,-1.8101,-1.717,-1.6618,-1.6233,-1.6122,-1.6206,0.0,0.0,0.0,-1.6654,-1.719,0.0,-1.7529,-1.7844,-1.8049,-1.8325,-1.8758,-1.8464,-1.8326,-1.8449,-1.7551,-1.6927,-1.681,-1.6907,-1.6553,-1.5624,-1.6526,-1.6968,-1.6682,-1.6742,-1.6733,-1.6542,-1.6617,-1.6884,-1.7288,-1.7854,-1.8317,-1.8656,-1.9118,-1.9301,-1.9301,-1.9301,-1.9301,-1.9301,-1.9301,-1.9476,-1.9769,-1.9888,-2.0107,-2.0576,-2.1277,-2.164,-2.183,-1.9332,-1.973,0.0,0.0,-1.8021,-1.7561,-1.6761,-1.7263,-1.7681,-1.7502,-1.7348,-1.7702,-1.8906,-1.7342,-1.6937,-1.8714,-1.8892,-1.8877,-1.8891,-1.8961,-1.9525,-2.0749,-1.7958,-1.7477,-1.9887,-1.823,-1.7633,-1.8305,0.0,0.0,0.0,0.0,0.0,0.0,-1.7963,-1.856,-1.9768,-2.0894,-2.2024,-2.3229,-2.4422,-2.4883,-2.4774,-2.3649,-2.4001,-2.4991,-2.4964,-2.4978,-2.4815,-2.3541,-2.3332,-2.3543,-2.3616,-2.2859,-2.2281,-2.3596,-2.2762,-2.1356,-2.1397,-2.0631,-1.9636,-1.8634,-1.8289,-1.7772,-1.6188,-1.6654,-1.7255,-1.6876,-1.718,-1.7751,-1.8387,-1.8105,-1.7933,-1.8474,-1.8215,0.0,0.0,-1.7858,-1.7803,-1.7331,-1.729,-1.7317,-1.7183,-1.7679,-1.7545,-1.6218,-1.694,-1.6878,-1.5753,-1.692,-1.7442,-1.6908,-1.7217,-1.7001,-1.6342,-1.6219,-1.627,-1.6645,-1.7287,-1.7904,-1.8434,-1.9049,-1.9301,-1.9301,-1.9301,-1.9301,-1.9301,-1.9301,-1.9311,-1.9366,-1.9769,-1.9515,-1.9108,-2.0576,-2.1567,-2.1919,-1.8921,0.0,0.0,-1.8288,-1.7754,-1.7165,-1.6436,-1.6225,-1.6379,-1.6966,-1.7454,-1.8489,-2.04,-2.0442,-2.0569,-2.1276,-2.2048,-2.2216,-2.1657,-2.1769,-2.2085,-2.2614,-2.1087,-2.0158,-1.9998,-1.9488,-1.8905,-1.8305,-1.8187,0.0,0.0,0.0,0.0,0.0,0.0,-1.8476,-1.9768,-2.0853,-2.2042,-2.3229,-2.3622,-2.3784,-2.3879,-2.4259,-2.4652,-2.5005,-2.5005,-2.5005,-2.4829,-2.3741,-2.3917,-2.4545,-2.401,-2.352,-2.3473,-2.4857,-2.3699,-2.2102,-2.261,-2.2423,-2.176,-2.069,-1.9872,-1.908,-1.8137,-1.7424,-1.6963,-1.6827,-1.7323,-1.7811,-1.8044,-1.7969,-1.8003,-1.8189,-1.8161,-1.7972,0.0,-1.695,-1.6732,-1.6904,-1.6762,-1.6847,-1.7431,-1.7002,-1.6461,-1.6083,-1.5914,-1.5399,-1.4487,-1.6038,-1.6608,-1.5912,-1.6887,-1.7028,-1.6281,-1.6272,-1.6272,-1.6404,-1.6863,-1.7335,-1.781,-1.8261,-1.874,-1.9073,-1.9073,-1.9152,-1.9301,-1.9301,-1.9301,-1.932,-1.9457,-1.9516,-1.9605,-2.0128,-2.0237,-2.0119,-1.837,-1.7768,-1.7539,-1.7505,-1.6953,-1.6532,-1.6561,-1.6445,-1.6886,-1.8458,-1.8869,-1.9775,-2.1682,-2.1882,-2.2038,-2.2572,-2.2865,-2.3283,-2.3829,-2.2677,-2.2696,-2.434,-2.2566,-2.1535,-2.1481,-2.0689,-2.0133,-1.9838,-1.8777,-1.8542,0.0,0.0,0.0,0.0,0.0,-1.8316,-1.9157,-2.0678,-2.1799,-2.2579,-2.3013,-2.3446,-2.3906,-2.419,-2.4583,-2.5005,-2.5061,-2.5061,-2.4995,-2.4408,-2.4709,-2.526,-2.4702,-2.4556,-2.471,-2.56,-2.4755,-2.3624,-2.4149,-2.3865,-2.3161,-2.2098,-2.1121,-2.0163,-1.9226,-1.8545,-1.8127,-1.8032,-1.8522,-1.883,-1.8536,-1.8561,-1.8459,-1.7897,-1.7856,-1.7668,0.0,-1.6308,-1.6078,-1.6463,-1.6869,-1.7183,-1.7351,-1.7012,-1.657,-1.5862,-1.5466,-1.4894,-1.4183,-1.5856,-1.6526,-1.5817,-1.6863,-1.7157,-1.6691,-1.6281,-1.6211,-1.6281,-1.6669,-1.7066,-1.7539,-1.792,-1.8389,-1.8922,-1.8922,-1.9002,-1.9073,-1.9152,-1.9222,-1.9231,-1.9301,-1.9307,-1.938,-1.9782,-1.9488,-1.8933,-1.7737,-1.6858,-1.6308,-1.6213,-1.5763,-1.5821,-1.7069,-1.7853,-1.9174,-2.1627,-2.1411,-2.1513,-2.2711,-2.1816,-2.1499,-2.2515,-2.1584,-2.2126,-2.5069,-2.1865,-2.1705,-2.5926,-2.263,-2.178,-2.4061,-2.1823,-2.125,-2.2615,-2.0124,0.0,0.0,0.0,0.0,0.0,-1.8228,-1.8083,-1.8031,-2.0419,-2.145,-2.1613,-2.2609,-2.3798,-2.4801,-2.3568,-2.392,-2.5005,-2.5174,-2.523,-2.5244,-2.5425,-2.5592,-2.5729,-2.5729,-2.5784,-2.5893,-2.5893,-2.5893,-2.5839,-2.5839,-2.4951,-2.3715,-2.2756,-2.192,-2.0959,-1.942,-1.9853,-2.0487,-2.022,-2.0662,-2.0767,-2.0022,-1.9836,-1.9296,-1.7752,-1.7438,-1.7097,-1.6318,-1.5969,-1.5836,-1.6001,-1.7517,-1.8104,-1.6787,-1.7683,-1.7564,-1.5698,-1.551,-1.5304,-1.4848,-1.6351,-1.7031,-1.651,-1.7025,-1.7338,-1.7373,-1.6315,-1.5895,-1.6281,-1.6517,-1.6902,-1.7428,-1.7885,-1.8284,-1.8674,-1.8692,-1.87,-1.87,-1.8931,-1.9002,-1.9002,-1.9222,-1.8895,-1.8469,-1.9444,-1.9256,-1.8551,-1.7196,-1.6184,-1.5753,-1.6126,-1.6488,-1.6996,-1.7824,-1.8898,-2.0016,-2.1104,-2.2367,-2.3235,-2.3569,-2.4597,-2.4612,-2.2987,-2.3435,-2.3739,-2.3548,-2.3396,-2.4253,-2.6318,-2.5346,-2.4668,-2.4383,-2.3792,-2.315,-2.2615,-2.0941,-2.0328,-2.0627,0.0,0.0,0.0,0.0,-1.8083,-1.8086,-2.0571,-2.2163,-2.2916,-2.2278,-2.2668,-2.3608,-2.3297,-2.3974,-2.5174,-2.5174,-2.53,-2.5425,-2.5578,-2.5674,-2.5729,-2.5839,-2.5893,-2.5893,-2.5893,-2.5564,-2.523,-2.523,-2.4323,-2.3251,-2.303,-2.1848,-2.0706,-2.0261,-2.0249,-2.0238,-2.0104,-2.0773,-2.1281,-2.0926,-2.0257,-1.966,-1.9246,-1.8106,-1.6983,-1.6318,-1.6057,-1.5913,-1.5881,-1.6718,-1.7044,-1.6384,-1.6256,-1.6204,-1.6157,-1.4744,-1.4304,-1.5345,-1.5285,-1.5615,-1.6452,-1.5847,-1.6119,-1.7226,-1.5824,-1.5436,-1.5938,-1.5971,-1.6203,-1.6646,-1.7035,-1.7501,-1.804,-1.8329,-1.8531,-1.87,-1.8931,-1.9002,-1.9002,-1.9222,-1.9222,-1.9029,-1.878,-1.8575,-1.8629,-1.7362,-1.6627,-1.6354,-1.6688,-1.7952,-1.9074,-1.9377,-2.0277,-2.1452,-2.2904,-2.3804,-2.4515,-2.5096,-2.6126,-2.6199,-2.4747,-2.4268,-2.421,-2.4588,-2.3576,-2.4033,-2.6409,-2.585,-2.5183,-2.4469,-2.4469,-2.4161,-2.3478,-2.1627,-2.1026,-2.1513,0.0,0.0,0.0,0.0,-1.8135,-1.8099,-2.0511,-2.2292,-2.3278,-2.2546,-2.2929,0.0,-2.3378,-2.4028,-2.5174,-2.5174,-2.53,-2.5494,-2.5633,-2.5688,-2.5633,-2.5839,-2.5839,-2.5839,-2.5893,-2.5453,-2.5005,-2.5005,-2.4047,-2.3088,-2.3088,-2.2186,-2.1296,-2.1284,-2.1172,-2.1071,-2.1071,-2.1547,-2.184,-2.1274,-2.0403,-1.9534,-1.8795,-1.7859,-1.7057,-1.667,-1.6651,-1.6536,-1.6029,-1.6636,-1.6852,-1.6274,-1.5738,-1.577,-1.6497,-1.4942,-1.4353,-1.5275,-1.5309,-1.5371,-1.565,-1.5392,-1.5517,-1.6224,-1.5187,-1.4927,-1.5437,-1.5377,-1.5668,-1.6345,-1.6739,-1.72,-1.7657,-1.8028,-1.8362,-1.8612,-1.8772,-1.8922,-1.9002,-1.9222,-1.9301,-1.925,-1.867,-1.8294,-1.8062,-1.7885,-1.75,-1.7518,-1.7871,-1.9801,-2.143,-2.1727,-2.2222,-2.3327,-2.5502,-2.5458,-2.5618,-2.6663,-2.6939,-2.6968,-2.6794,-2.466,-2.4268,-2.6504,-2.3349,-2.2956,-2.6366,-2.5437,-2.4762,-2.4733,-2.4762,-2.4812,-2.4883,-2.2408,-2.1715,0.0,0.0,0.0,0.0,0.0,0.0,-1.8687,-2.0457,-2.2029,-2.3294,-2.3294,-2.3852,-2.4679,-2.3757,-2.4164,-2.5174,-2.523,-2.5369,-2.5494,-2.5633,-2.5592,-2.5536,-2.5798,-2.5784,-2.5729,-2.5839,-2.5397,-2.4935,-2.4892,-2.3989,-2.3027,-2.2967,-2.258,-2.2197,-2.2197,-2.2197,-2.2247,-2.2359,-2.2555,-2.2443,-2.1584,-2.0461,-1.9183,-1.7588,-1.7202,-1.7102,-1.7115,-1.7429,-1.7276,-1.6323,-1.6914,0.0,-1.6352,-1.5753,-1.5789,-1.6588,-1.5477,-1.4831,-1.5091,-1.5566,-1.5463,-1.4591,-1.5116,-1.5315,-1.4993,-1.463,-1.4613,-1.4993,-1.4835,-1.5283,-1.6276,-1.6721,-1.7098,-1.7424,-1.7852,-1.8201,-1.8442,-1.8612,-1.8851,-1.9082,-1.9143,-1.9143,-1.9143,-1.8576,-1.7934,-1.7196,-1.7885,-1.7584,-1.8233,-2.0336,-2.1477,-2.2952,-2.5541,-2.5599,-2.5433,-2.5785,-2.662,-2.7113,-2.6823,-2.7723,-2.7926,-2.6881,-2.5865,-2.5473,-2.5937,-2.4785,-2.4901,-2.664,-2.6509,-2.6393,-2.6393,-2.6393,-2.6393,-2.6393,-2.3815,-2.2626,0.0,0.0,0.0,0.0,0.0,0.0,-2.1479,-2.0654,-2.1755,-2.3965,-2.4067,-2.3989,-2.3847,-2.475,-2.5121,-2.523,-2.5369,-2.5494,-2.5494,-2.555,-2.5592,-2.5633,-2.5592,-2.5633,-2.5674,-2.5592,-2.5118,-2.4509,-2.4105,-2.3471,-2.2836,-2.2482,-2.2309,-2.2197,-2.2197,-2.2309,-2.2359,-2.2247,-2.2494,-2.2628,-2.2492,-2.0971,-1.9384,-1.8194,-1.723,-1.6616,-1.6542,-1.7355,-1.7486,-1.6323,-1.7066,-1.7374,-1.6754,-1.566,-1.5417,-1.6396,-1.5115,-1.4644,-1.5473,-1.4282,-1.4,-1.4974,-1.4383,-1.4541,-1.5558,-1.5191,-1.5231,-1.5661,-1.5274,-1.5394,-1.5917,-1.661,-1.6953,-1.7055,-1.7978,-1.8362,-1.8442,-1.8763,-1.9082,-1.9222,-1.8656,-1.8496,-1.8336,-1.7204,-1.6714,-1.6714,-2.0848,-1.9834,-1.9604,-2.1198,-2.2562,-2.4059,-2.5835,-2.7034,-2.763,-2.7341,-2.7824,-2.81,-2.7795,-2.8318,-2.8434,-2.7824,-2.6881,-2.6445,-2.6779,-2.5879,-2.5763,-2.6736,-2.6779,-2.6474,-2.5821,-2.6445,-2.646,-2.5807,-2.3876,-2.2888,-2.2799,-2.0215,0.0,0.0,0.0,-2.0091,-2.1164,-2.1801,-2.2728,-2.3854,-2.4703,-2.481,-2.4612,-2.5424,-2.5633,-2.5564,-2.5688,-2.5702,-2.5702,-2.5812,-2.5702,-2.5647,-2.5867,-2.5798,-2.5674,-2.5688,-2.516,-2.4567,-2.4323,-2.3636,-2.2932,-2.2689,-2.242,-2.2197,-2.2197,-2.2247,-2.2309,-2.2197,-2.2371,-2.2384,-2.1952,-2.1374,-2.0644,-1.957,-1.8495,-1.7781,-1.7734,-1.784,-1.7743,-1.7281,-1.7946,-1.819,-1.7503,-1.6645,-1.615,-1.6279,-1.5342,-1.4784,-1.4852,-1.4438,-1.4263,-1.438,-1.4222,-1.4317,-1.4728,-1.4732,-1.4899,-1.5223,-1.5026,-1.524,-1.5831,-1.6641,-1.7061,-1.7104,-1.811,-1.8603,-1.8754,-1.8993,-1.8984,-1.8745,-1.8416,-1.8095,-1.7683,-1.6714,-1.6394,-1.6394,-2.3999,-2.273,-2.1887,-2.2855,-2.4224,-2.5473,-2.6411,-2.8121,-2.9252,-2.9024,-2.8997,-2.8984,-2.913,-2.9144,-2.8971,-2.8695,-2.7882,-2.7432,-2.752,-2.6692,-2.6373,-2.6765,-2.6779,-2.6315,-2.5313,-2.6271,-2.63,-2.5284,-2.3978,-2.3163,-2.2844,-2.0489,-1.9329,-1.9241,-2.0344,-2.0878,-2.1122,-2.3126,-2.4054,-2.4257,-2.5446,-2.5798,-2.5647,-2.5893,-2.5948,-2.5893,-2.5934,-2.5948,-2.5948,-2.6111,-2.5907,-2.5702,-2.6071,-2.6002,-2.5784,-2.5893,-2.5425,-2.4851,-2.4624,-2.3904,-2.3207,-2.298,-2.2531,-2.2197,-2.2197,-2.2197,-2.2197,-2.2197,-2.2309,-2.2165,-2.1501,-2.1675,-2.1567,-2.0461,-1.947,-1.8769,-1.8482,-1.8174,-1.8001,-1.8204,-1.8622,-1.8706,-1.8124,-1.7339,-1.6705,-1.6162,-1.5599,-1.4958,-1.4317,-1.4758,-1.4641,-1.3736,-1.4277,-1.4412,-1.4001,-1.4372,-1.4693,-1.4982,-1.4904,-1.5222,-1.5831,-1.6789,-1.7203,-1.7247,-1.8346,-1.8851,-1.9073,-1.9222,-1.8984,-1.8505,-1.8175,-1.7844,-1.7277,-1.6476,-1.6154,-1.6072,-2.53,-2.527,-2.5734,-2.7619,-2.759,-2.8077,-3.0372,-2.9941,-2.943,-2.9908,-2.9883,-3.0002,-3.0528,-3.0513,-2.9929,-2.8782,-2.9087,-2.8652,-2.6982,-2.7287,-2.7316,-2.6808,-2.6779,-2.6721,-2.6605,-2.6721,-2.6721,-2.6605,-2.5299,-2.4018,-2.2768,-2.1383,-2.0651,-2.0569,-2.1782,-2.3012,-2.4244,-2.4305,-2.5061,-2.6246,-2.6563,-2.6447,-2.6056,-2.619,-2.6096,-2.5948,-2.619,-2.6096,-2.5948,-2.619,-2.6204,-2.6016,-2.5948,-2.6002,-2.6056,-2.5948,-2.5784,-2.537,-2.4323,-2.3917,-2.3518,-2.2543,-2.2247,-2.2197,-2.2197,-2.2197,-2.2197,-2.2197,-2.2309,-2.2396,-2.2286,-2.1756,-2.0983,-1.9877,-1.8883,-1.7928,-1.6898,-1.7543,-1.8204,-1.8204,-1.8136,-1.8149,-1.8169,-1.6822,-1.5924,-1.5832,-1.5404,-1.4953,-1.455,-1.4398,-1.4169,-1.3819,-1.4487,-1.483,-1.4688,-1.5079,-1.5551,-1.5957,-1.5617,-1.5541,-1.5831,-1.6946,-1.7362,-1.7247,-1.8494,-1.9073,-1.9301,-1.9301,-1.9222,-1.9054,-1.7925,-1.744,-1.7277,-1.5989,-1.5506,-1.5506,-2.7949,-2.7021,-2.6572,-2.7769,-2.8098,-2.8682,-3.0078,-3.047,-3.0723,-3.0919,-3.0675,-3.0543,-3.0792,-3.0702,-3.0364,-2.9856,-3.0045,-2.9711,-2.8565,-2.8724,-2.8419,-2.7389,-2.7345,-2.7171,-2.6794,-2.6779,-2.6779,-2.6779,-2.4704,-2.3395,-2.2814,-2.157,-2.1311,-2.2002,-2.3267,-2.4115,-2.4611,-2.5357,-2.5907,-2.6258,-2.6525,-2.6472,-2.6258,-2.6486,-2.6539,-2.6447,-2.6539,-2.6553,-2.6447,-2.6539,-2.6326,-2.6002,-2.6096,-2.5948,-2.5757,-2.5839,-2.5743,-2.5411,-2.4509,-2.4092,-2.3741,-2.2932,-2.2469,-2.2197,-2.2197,-2.2197,-2.2197,-2.2197,-2.2247,-2.2309,-2.242,-2.2261,-2.1799,-2.0797,-2.0357,-1.9773,-1.8643,-1.8882,-1.9409,-2.01,-1.947,-1.9231,-1.9967,-1.8118,-1.6868,-1.6821,-1.5833,-1.5003,-1.4482,-1.4513,-1.4769,-1.529,-1.4995,-1.537,-1.6548,-1.5916,-1.5805,-1.6202,-1.6052,-1.5992,-1.6167,-1.7231,-1.7988,-1.8524,-1.9006,-1.9231,-1.9222,-1.8727,-1.8407,-1.8086,-1.7025,-1.6468,-1.6154,-1.559,-1.5431,-1.5431,-3.0163,-2.9026,-2.8188,-2.8652,-2.9146,-2.949,-2.9564,-3.0687,-3.1405,-3.1001,-3.0939,-3.094,-3.094,-3.0747,-3.0482,-3.0148,-3.0409,-3.0147,-2.9131,-2.9406,-2.9058,-2.7781,-2.7668,-2.7432,-2.6794,-2.6779,-2.6779,-2.6779,-2.4965,-2.3829,-2.3424,-2.2556,-2.2569,-2.345,-2.4737,-2.5265,-2.5236,-2.6217,-2.6486,-2.634,-2.6539,-2.6525,-2.6472,-2.6712,-2.6779,-2.6779,-2.6779,-2.6779,-2.6779,-2.6712,-2.6379,-2.6042,-2.6244,-2.6042,-2.5798,-2.5839,-2.5688,-2.5425,-2.4637,-2.4221,-2.3859,-2.316,-2.2653,-2.2309,-2.2185,-2.2197,-2.2197,-2.2197,-2.2197,-2.2247,-2.2309,-2.2494,-2.2321,-2.1341,-2.1325,-2.1037,-1.9962,-1.9798,-2.01,-2.0891,-1.9907,-1.9631,-2.0727,-1.893,-1.7545,-1.7351,-1.635,-1.5427,-1.4644,-1.4505,-1.4756,-1.5599,-1.4654,-1.5058,-1.6956,-1.5807,-1.5667,-1.6412,-1.6412,-1.6404,-1.6537,-1.7539,-1.8497,-1.9301,-1.9301,-1.9301,-1.9222,-1.8318,-1.7836,-1.7521,-1.6542,-1.5899,-1.5665,-1.5506,-1.559,-1.5748,-3.1452,-3.1437,-3.1422,-3.1422,-3.1437,-3.1061,-2.9774,-3.0687,-3.1076,-2.9774,-3.0604,-3.1278,-3.1278,-3.0999,-3.0295,-2.9007,-2.9959,-2.9769,-2.7882,-2.8927,-2.9058,-2.7781,-2.7668,-2.7432,-2.6794,-2.6779,-2.6779,-2.6779,-2.675,-2.6068,-2.4771,-2.4742,-2.4742,-2.4814,-2.6184,-2.6765,-2.6765,-2.6779,-2.6779,-2.6779,-2.6779,-2.6779,-2.6779,-2.6779,-2.6779,-2.6779,-2.6779,-2.6779,-2.6727,-2.6418,-2.6283,-2.6297,-2.6283,-2.6404,-2.6404,-2.5879,-2.5729,-2.5495,-2.458,-2.4176,-2.3897,-2.2921,-2.269,-2.2616,-2.2259,-2.2197,-2.2197,-2.2197,-2.2197,-2.2197,-2.2197,-2.2309,-2.2128,-2.1158,-2.1144,-2.0859,-1.991,-1.9798,-1.9811,-1.9823,-1.8882,-1.8643,-1.971,-1.8586,-1.7557,-1.6936,-1.6811,-1.6311,-1.5257,-1.4058,-1.3591,-1.3985,-1.314,-1.3422,-1.5147,-1.4506,-1.5052,-1.6603,-1.6603,-1.6669,-1.6927,-1.7934,-1.8752,-1.9301,-1.9301,-1.9301,-1.9222,-1.8318,-1.8086,-1.8175,-1.6706,-1.6221,-1.6312,-1.5673,-1.5906,-1.6535,-2.8919,-3.0186,-3.1198,-3.0246,-3.0869,-3.1332,-3.0971,-3.127,-3.1317,-3.0971,-3.1213,-3.1409,-3.1409,-3.119,-3.0793,-3.0236,-2.971,-2.9493,-2.9653,-2.9232,-2.8797,-2.839,-2.7955,-2.7215,-2.6126,-2.6112,-2.6112,-2.6112,-2.5691,-2.5284,-2.4878,-2.48,-2.5313,-2.6184,-2.6605,-2.6779,-2.6779,-2.6779,-2.6779,-2.6779,-2.6779,-2.6779,-2.6779,-2.6779,-2.6779,-2.6779,-2.6779,-2.6779,-2.6779,-2.6659,-2.6659,-2.6592,-2.6457,-2.6351,-2.6272,-2.6365,-2.6297,-2.6014,-2.4881,-2.4483,-2.4092,-2.2969,-2.2506,-2.2321,-2.2185,-2.2197,-2.2197,-2.2197,-2.2197,-2.2197,-2.2197,-2.2309,-2.2068,-2.1055,-2.1611,-2.1885,-2.0871,-2.0747,-2.0747,-2.0953,-1.9947,-1.9709,-2.084,-1.9897,-1.9032,-1.8675,-1.7497,-1.6289,-1.5341,-1.518,-1.5543,-1.6542,-1.5772,-1.5885,-1.7084,-1.6088,-1.6039,-1.683,-1.683,-1.7115,-1.7723,-1.8315,-1.8848,-1.9301,-1.9301,-1.9301,-1.9222,-1.7844,-1.744,-1.7521,-1.5982,-1.5582,-1.5748,-1.6147,-1.6064,-1.5824,-3.022,-3.1321,-3.2109,-3.0938,-3.1485,-3.1931,-3.1498,-3.1826,-3.196,-3.1541,-3.1958,-3.2273,-3.2273,-3.1827,-3.1353,-3.0969,-3.0133,-2.9886,-3.0584,-2.9827,-2.9174,-2.8695,-2.8303,-2.749,-2.6184,-2.617,-2.617,-2.617,-2.5778,-2.5604,-2.5604,-2.5575,-2.601,-2.6779,-2.6779,-2.6779,-2.6779,-2.6779,-2.6779,-2.6779,-2.6779,-2.6779,-2.6779,-2.6779,-2.6779,-2.6779,-2.6779,-2.6779,-2.6779,-2.6846,-2.6899,-2.6884,-2.6855,-2.675,-2.6592,-2.6525,-2.6283,-2.5892,-2.4881,-2.4368,-2.393,-2.2969,-2.2567,-2.2383,-2.2259,-2.2197,-2.2197,-2.2197,-2.2197,-2.2197,-2.2197,-2.2247,-2.214,-2.1474,-2.2055,-2.2371,-2.186,-2.1371,-2.1181,-2.1325,-2.03,-2.0064,-2.1269,-2.0732,-2.0213,-1.9902,-1.8474,-1.7364,-1.6852,-1.5821,-1.5887,-1.7308,-1.6394,-1.6316,-1.7216,-1.6457,-1.6365,-1.6908,-1.722,-1.7633,-1.8137,-1.8687,-1.9063,-1.9301,-1.9301,-1.9301,-1.9143,-1.7602,-1.7277,-1.7602,-1.6057,-1.5575,-1.5831,-1.6386,-1.6304,-1.5906,-3.407,-3.404,-3.3921,-3.3051,-3.2945,-3.2667,-3.1649,-3.2466,-3.2853,-3.1824,-3.2736,-3.3499,-3.3546,-3.284,-3.2064,-3.1324,-3.0925,-3.0659,-3.0628,-3.0495,-2.9914,-2.8739,-2.8637,-2.8013,-2.6736,-2.6721,-2.6736,-2.6779,-2.6779,-2.6779,-2.6779,-2.6779,-2.6779,-2.6779,-2.6779,-2.6779,-2.6779,-2.6779,-2.6779,-2.6779,-2.6779,-2.6779,-2.6779,-2.6779,-2.6779,-2.6779,-2.6779,-2.6779,-2.6832,-2.6951,-2.7003,-2.7055,-2.7299,-2.7401,-2.7233,-2.6457,-2.5837,-2.5342,-2.4738,-2.4118,-2.3509,-2.2921,-2.2739,-2.2629,-2.2321,-2.2197,-2.2197,-2.2197,-2.2197,-2.2197,-2.2197,-2.2197,-2.2247,-2.2359,-2.242,-2.2457,-2.2518,-2.1707,-2.1031,-2.0876,-2.0042,-1.9924,-2.1089,-2.1193,-2.1035,-2.0574,-1.9648,-1.912,-1.9256,-1.6119,-1.5084,-1.6753,-1.5527,-1.5256,-1.6075,-1.5901,-1.6156,-1.6917,-1.7734,-1.8128,-1.8155,-1.8944,-1.9301,-1.9301,-1.9301,-1.9301,-1.9222,-1.7683,-1.761,-1.8175,-1.6788,-1.6304,-1.6476,-1.655,-1.6624,-1.6624,-3.1397,-3.2677,-3.3532,-3.1976,-3.2615,-3.3395,-3.3485,-3.3336,-3.335,-3.3765,-3.3593,-3.3668,-3.4193,-3.3653,-3.32,-3.3156,-3.082,-2.9696,-3.0569,-2.9668,-2.9,-2.8695,-2.8216,-2.7345,-2.6054,-2.6025,-2.6271,-2.6779,-2.6779,-2.6779,-2.6779,-2.6779,-2.6779,-2.6779,-2.6779,-2.6779,-2.6779,-2.6779,-2.6779,-2.6779,-2.6779,-2.6779,-2.6779,-2.6779,-2.6779,-2.6779,-2.6779,-2.6779,-2.6832,-2.6951,-2.7003,-2.7055,-2.7299,-2.7401,-2.7386,-2.7255,-2.6826,-2.6283,-2.5673,-2.4908,-2.4118,-2.3556,-2.3042,-2.269,-2.2629,-2.2371,-2.2197,-2.2197,-2.2197,-2.2197,-2.2197,-2.2197,-2.2197,-2.2247,-2.2247,-2.2019,-2.1326,-2.0916,-2.0499,-1.9846,-2.0208,-2.0592,-2.1006,-2.1343,-2.1055,-1.9901,-1.9251,-1.8865,-1.8922,-1.7634,-1.7471,-1.8617,-1.783,-1.7358,-1.7167,-1.71,-1.6999,-1.6917,-1.7734,-1.8128,-1.8155,-1.8944,-1.9301,-1.9301,-1.9301,-1.9301,-1.9222,-1.8336,-1.8095,-1.8256,-1.7908,-1.7423,-1.7033,-1.8149,-1.7836,-1.6804,-3.3438,-3.4175,-3.4643,-3.3393,-3.3826,-3.4445,-3.4942,-3.4742,-3.4804,-3.5368,-3.508,-3.5003,-3.5368,-3.4546,-3.401,-3.4119,-3.1812,-3.0544,-3.1081,-3.0148,-2.929,-2.871,-2.8347,-2.7563,-2.6271,-2.6242,-2.6416,-2.6779,-2.6779,-2.6779,-2.6779,-2.6779,-2.6779,-2.6779,-2.6779,-2.6779,-2.6779,-2.6779,-2.6779,-2.6779,-2.6779,-2.6779,-2.6779,-2.6779,-2.6779,-2.6779,-2.6779,-2.6779,-2.6832,-2.7041,-2.7093,-2.7144,-2.7386,-2.7488,-2.7423,-2.7255,-2.6774,-2.6122,-2.5398,-2.4681,-2.3956,-2.333,-2.2921,-2.2678,-2.2494,-2.2321,-2.2197,-2.2197,-2.2197,-2.2197,-2.2197,-2.2197,-2.2197,-2.2197,-2.1789,-2.1272,-2.0798,-2.0222,-1.9872,-1.9964,-2.0419,-2.0836,-2.1129,-2.136,-2.1132,-2.0198,-1.943,-1.9264,-1.9834,-1.8711,-1.8553,-1.9607,-1.8798,-1.8202,-1.794,-1.7813,-1.7703,-1.7754,-1.8326,-1.8731,-1.9014,-1.9648,-1.9775,-1.9539,-1.9539,-1.946,-1.9222,-1.8816,-1.8807,-1.9054,-1.9027,-1.847,-1.7836,-1.8789,-1.8078,-1.6812,-3.7005,-3.6505,-3.6118,-3.5569,-3.5429,-3.5509,-3.6037,-3.6148,-3.6274,-3.6616,-3.6554,-3.6554,-3.6616,-3.5457,-3.4685,-3.4748,-3.3238,-3.2161,-3.1787,-3.1052,-3.006,-2.8739,-2.8681,-2.8086,-2.6808,-2.6881,-2.6982,-2.707,-2.707,-2.7026,-2.6924,-2.6924,-2.6881,-2.6779,-2.6779,-2.6779,-2.6779,-2.6779,-2.6779,-2.6779,-2.6779,-2.6779,-2.6779,-2.6779,-2.6779,-2.6779,-2.6779,-2.6779,-2.6884,-2.713,-2.7233,-2.7269,-2.7524,-2.7625,-2.7458,-2.6774,-2.6176,-2.5618,-2.4794,-2.4131,-2.3569,-2.3042,-2.286,-2.2739,-2.2432,-2.2321,-2.2259,-2.2259,-2.2197,-2.2197,-2.2197,-2.2197,-2.2137,-2.1969,-2.1199,-2.0562,-2.0394,-1.9598,-1.94,-2.0318,-2.051,-2.0699,-2.1181,-2.1123,-2.0921,-2.0632,-1.9694,-1.9605,-2.0696,-1.931,-1.8932,-1.9944,-1.8931,-1.8482,-1.8482,-1.8144,-1.8232,-1.8662,-1.9092,-1.9521,-2.0026,-2.0448,-2.0411,-2.002,-2.002,-1.9784,-1.946,-1.9283,-1.9529,-2.0098,-2.0148,-1.9659,-1.8957,-1.9097,-1.8238,-1.7139,-3.7025,-3.6746,-3.6459,-3.5988,-3.591,-3.61,-3.6754,-3.6367,-3.6352,-3.7225,-3.6862,-3.6739,-3.7285,-3.6244,-3.5601,-3.5917,-3.4528,-3.3069,-3.166,-3.1052,-3.0134,-2.8739,-2.8681,-2.8086,-2.6808,-2.7316,-2.7853,-2.839,-2.839,-2.8115,-2.7578,-2.7578,-2.7302,-2.6779,-2.6779,-2.6779,-2.6779,-2.6779,-2.6779,-2.6779,-2.6779,-2.6779,-2.6779,-2.6779,-2.6779,-2.6779,-2.6779,-2.6899,-2.7003,-2.713,-2.7284,-2.7401,-2.7524,-2.7625,-2.7408,-2.6283,-2.5837,-2.5687,-2.5104,-2.4492,-2.3995,-2.3878,-2.37,-2.345,-2.3283,-2.2921,-2.2555,-2.242,-2.2309,-2.2197,-2.2197,-2.2197,-2.1885,-2.0971,-2.0706,-2.0286,-1.9372,-1.935,-1.9506,-1.9678,-1.9947,-2.0189,-2.0279,-1.9901,-1.9628,-1.9562,-1.9117,-1.8986,-1.9121,-1.9062,-1.9052,-1.9253,-1.9065,-1.8808,-1.8482,-1.8144,-1.8232,-1.8662,-1.9092,-1.9521,-2.0026,-2.0448,-2.0566,-2.0489,-2.0489,-2.0489,-2.0411,-2.0323,-2.0479,-2.0789,-2.1328,-2.1088,-2.045,-2.0294,-1.9678,-1.8816,-3.6921,-3.6551,-3.6352,-3.6352,-3.6289,-3.6476,-3.7029,-3.6907,-3.6968,-3.7421,-3.7225,-3.7165,-3.748,-3.6507,-3.5864,-3.5991,-3.4703,-3.3308,-3.2121,-3.1576,-3.0703,-2.9247,-2.9189,-2.8753,-2.7824,-2.81,-2.839,-2.8681,-2.8681,-2.8521,-2.8231,-2.7897,-2.7578,-2.7273,-2.6939,-2.6779,-2.6779,-2.6779,-2.6779,-2.6779,-2.6779,-2.6779,-2.6779,-2.6779,-2.6779,-2.6779,-2.6899,-2.6951,-2.7055,-2.7248,-2.735,-2.7437,-2.7575,-2.7357,-2.693,-2.6054,-2.5356,-2.4821,-2.4549,-2.4287,-2.4054,-2.3878,-2.3688,-2.3569,-2.3271,-2.2969,-2.2678,-2.2555,-2.2371,-2.2197,-2.2197,-2.2197,-2.2029,-2.1524,-2.0983,-2.0442,-1.9937,-1.9633,-1.9502,-1.9502,-1.9957,-2.0096,-1.9704,-1.9518,-1.932,-1.9054,-1.8875,-1.8875,-1.8942,-1.9065,-1.9075,-1.9075,-1.9075,-1.9008,-1.8808,-1.8917,-1.9192,-1.9636,-2.0081,-2.0525,-2.0969,-2.1171,-2.1108,-2.0886,-2.0886,-2.0809,-2.0644,-2.0809,-2.1041,-2.1262,-2.1873,-2.1711,-2.1145,-2.1221,-2.0692,-1.9844,-3.7312,-3.689,-3.6718,-3.6925,-3.6832,-3.6848,-3.715,-3.7329,-3.7464,-3.748,-3.748,-3.748,-3.748,-3.6631,-3.6054,-3.5913,-3.4902,-3.3839,-3.2902,-3.2434,-3.1423,-2.9682,-2.9493,-2.9247,-2.8913,-2.8898,-2.8971,-2.9116,-2.9116,-2.9044,-2.8884,-2.8405,-2.7958,-2.7654,-2.7229,-2.6924,-2.6779,-2.6779,-2.6779,-2.6779,-2.6779,-2.6779,-2.6779,-2.6779,-2.6832,-2.6846,-2.6951,-2.7055,-2.7093,-2.735,-2.7401,-2.7437,-2.7575,-2.7203,-2.6563,-2.596,-2.4978,-2.4112,-2.4112,-2.4112,-2.4054,-2.3793,-2.3734,-2.3628,-2.3378,-2.309,-2.286,-2.2739,-2.2494,-2.2247,-2.2197,-2.2197,-2.2113,-2.1873,-2.1139,-2.061,-2.061,-1.9878,-1.9414,-1.9701,-1.9849,-1.9704,-1.9177,-1.933,-1.9208,-1.8808,-1.8808,-1.8942,-1.9075,-1.9075,-1.9075,-1.9075,-1.9075,-1.9075,-1.9075,-1.9599,-1.9986,-2.0431,-2.0897,-2.1362,-2.1807,-2.1807,-2.1655,-2.1359,-2.1359,-2.1195,-2.0876,-2.1272,-2.1502,-2.1731,-2.2252,-2.2241,-2.1852,-2.1766,-2.1308,-2.0615,-3.866,-3.8596,-3.8379,-3.7714,-3.759,-3.7499,-3.7228,-3.7194,-3.727,-3.748,-3.748,-3.748,-3.748,-3.6968,-3.6445,-3.5913,-3.5834,-3.5292,-3.3947,-3.3472,-3.2121,-2.9697,-2.9058,-2.9,-2.9537,-2.9552,-2.9842,-3.0437,-3.0437,-3.0132,-2.9552,-2.9508,-2.8855,-2.7668,-2.7679,-2.7331,-2.6779,-2.6779,-2.6779,-2.6779,-2.6779,-2.6779,-2.6779,-2.6779,-2.6899,-2.7003,-2.7003,-2.7159,-2.735,-2.7401,-2.7488,-2.7575,-2.7625,-2.7203,-2.6563,-2.596,-2.4978,-2.4112,-2.4112,-2.4112,-2.4112,-2.4247,-2.4144,-2.4054,-2.4054,-2.37,-2.3271,-2.2969,-2.2604,-2.2359,-2.2185,-2.2197,-2.1873,-2.0887,-2.0634,-2.0586,-2.061,-1.9584,-1.9249,-2.0209,-1.9354,-1.8617,-1.8539,-1.8741,-1.8808,-1.8808,-1.8998,-1.9065,-1.9075,-1.9075,-1.9075,-1.9075,-1.9075,-1.9075,-1.9075,-1.9599,-1.9986,-2.0431,-2.0897,-2.1362,-2.1807,-2.1807,-2.1807,-2.1731,-2.1731,-2.1731,-2.1731,-2.1949,-2.2176,-2.2327,-2.2628,-2.2767,-2.2767,-2.1842,-2.1461,-2.1308,-3.8815,-3.8443,-3.8072,-3.7934,-3.7639,-3.7387,-3.7377,-3.7405,-3.7405,-3.748,-3.748,-3.748,-3.748,-3.7029,-3.6585,-3.6274,-3.6022,-3.5353,-3.439,-3.389,-3.2631,-3.0337,-3.0148,-3.0134,-3.0205,-3.0219,-3.0335,-3.0568,-3.0568,-3.0451,-3.0205,-2.9813,-2.916,-2.8303,-2.7911,-2.7374,-2.6779,-2.6779,-2.6779,-2.6779,-2.6779,-2.6846,-2.6899,-2.6832,-2.6937,-2.713,-2.713,-2.7248,-2.7401,-2.7488,-2.7575,-2.7509,-2.7152,-2.6616,-2.596,-2.5034,-2.4434,-2.4112,-2.4112,-2.4112,-2.4112,-2.4157,-2.3982,-2.3819,-2.3949,-2.3522,-2.309,-2.3017,-2.2787,-2.2555,-2.2494,-2.2494,-2.236,-2.1825,-2.1692,-2.156,-2.1136,-2.0313,-1.983,-1.9879,-1.9208,-1.8684,-1.8684,-1.8875,-1.9008,-1.9008,-1.9075,-1.9075,-1.9075,-1.9075,-1.9075,-1.9075,-1.9075,-1.9075,-1.9075,-1.9799,-2.0255,-2.0431,-2.1186,-2.1631,-2.1807,-2.1807,-2.1807,-2.1807,-2.1807,-2.1807,-2.1807,-2.1883,-2.2035,-2.2252,-2.2327,-2.2478,-2.2553,-2.2166,-2.209,-2.1928,-3.9172,-3.8738,-3.8321,-3.8091,-3.7792,-3.7506,-3.7512,-3.748,-3.748,-3.748,-3.748,-3.748,-3.748,-3.7089,-3.6785,-3.6492,-3.6211,-3.5698,-3.5007,-3.4318,-3.3051,-3.0969,-3.097,-3.0851,-3.0628,-3.0568,-3.0568,-3.0568,-3.0747,-3.0747,-3.0568,-3.0294,-2.9697,-2.8942,-2.8303,-2.7679,-2.707,-2.6866,-2.6779,-2.6779,-2.6779,-2.6846,-2.6951,-2.6846,-2.6937,-2.713,-2.7181,-2.7284,-2.7401,-2.7524,-2.7625,-2.7524,-2.71,-2.6549,-2.5851,-2.4721,-2.439,-2.4345,-2.4171,-2.4112,-2.4112,-2.4229,-2.4099,-2.3982,-2.4171,-2.37,-2.321,-2.3258,-2.2969,-2.2739,-2.2678,-2.269,-2.2678,-2.2555,-2.2482,-2.2359,-2.1839,-2.1071,-2.0442,-2.0053,-1.933,-1.8875,-1.8875,-1.9008,-1.9075,-1.9075,-1.9075,-1.9075,-1.9075,-1.9075,-1.9075,-1.9075,-1.9075,-1.9137,-1.9349,-2.0048,-2.0493,-2.0648,-2.1435,-2.1807,-2.1807,-2.1807,-2.1807,-2.1807,-2.1807,-2.1807,-2.1807,-2.1883,-2.1959,-2.2111,-2.2176,-2.2252,-2.2402,-2.2327,-2.2327,-2.2252,-3.988,-3.9823,-3.9439,-3.8404,-3.8215,-3.8056,-3.7575,-3.748,-3.748,-3.748,-3.748,-3.748,-3.748,-3.7329,-3.7013,-3.6554,-3.66,-3.6523,-3.6022,-3.4713,-3.3244,-3.1597,-3.1204,-3.0851,-3.0628,-3.0568,-3.0568,-3.0628,-3.1043,-3.1043,-3.0642,-3.1102,-3.0704,-2.9595,-2.8971,-2.8332,-2.7639,-2.7055,-2.6779,-2.6779,-2.6779,-2.6779,-2.6779,-2.6779,-2.6899,-2.7003,-2.713,-2.7284,-2.7401,-2.7524,-2.7625,-2.7575,-2.7575,-2.7152,-2.6457,-2.5328,-2.5005,-2.4835,-2.4287,-2.4112,-2.4171,-2.4505,-2.462,-2.462,-2.4778,-2.4345,-2.3832,-2.3628,-2.321,-2.2848,-2.2739,-2.269,-2.269,-2.269,-2.269,-2.269,-2.2678,-2.1663,-2.0903,-2.0892,-1.9857,-1.9142,-1.9075,-1.9075,-1.9075,-1.9075,-1.9075,-1.9075,-1.9075,-1.9075,-1.9075,-1.9075,-1.9075,-1.9292,-1.9827,-2.0203,-2.0659,-2.1124,-2.159,-2.1807,-2.1807,-2.1807,-2.1807,-2.1807,-2.1807,-2.1807,-2.1807,-2.2035,-2.2101,-2.2101,-2.2327,-2.2402,-2.2402,-2.2176,-2.2101,-2.2101,-3.9869,-3.9227,-3.8592,-3.8231,-3.796,-3.7642,-3.7512,-3.748,-3.748,-3.748,-3.748,-3.748,-3.748,-3.7464,-3.7285,-3.6877,-3.6877,-3.6336,-3.5017,-3.4333,-3.3244,-3.1597,-3.1204,-3.0851,-3.0628,-3.0568,-3.0747,-3.1102,-3.1219,-3.1394,-3.1537,-3.1394,-3.0863,-3.0098,-2.9579,-2.8739,-2.7668,-2.7534,-2.72,-2.6779,-2.6779,-2.6846,-2.6951,-2.6846,-2.6937,-2.713,-2.7093,-2.7144,-2.7284,-2.7335,-2.7321,-2.7218,-2.6443,-2.5797,-2.5216,-2.4563,-2.4287,-2.4229,-2.4112,-2.4112,-2.4171,-2.4363,-2.4189,-2.4086,-2.4421,-2.4118,-2.3826,-2.3956,-2.3675,-2.339,-2.333,-2.315,-2.2969,-2.2848,-2.286,-2.2665,-2.2211,-2.1827,-2.1262,-2.0431,-2.0042,-1.9649,-1.9142,-1.9075,-1.9075,-1.9075,-1.9075,-1.9075,-1.9075,-1.9075,-1.9075,-1.9075,-1.9453,-1.9768,-2.0224,-2.0358,-2.0659,-2.1124,-2.159,-2.1807,-2.1807,-2.1807,-2.1807,-2.1807,-2.1807,-2.1807,-2.1807,-2.1883,-2.1883,-2.1883,-2.1959,-2.1959,-2.1959,-2.1883,-2.1883,-2.1883,-3.929,-3.8622,-3.8136,-3.7946,-3.7689,-3.748,-3.748,-3.748,-3.748,-3.748,-3.748,-3.748,-3.748,-3.7405,-3.7285,-3.7015,-3.6877,-3.6181,-3.4611,-3.403,-3.3185,-3.1742,-3.1146,-3.0851,-3.0866,-3.0866,-3.1043,-3.1278,-3.1452,-3.1495,-3.1364,-3.1336,-3.0997,-3.0366,-2.9842,-2.9058,-2.8086,-2.7839,-2.736,-2.6779,-2.6779,-2.6846,-2.6899,-2.6832,-2.6884,-2.7041,-2.7003,-2.7041,-2.7144,-2.7181,-2.7181,-2.7063,-2.6457,-2.5865,-2.5258,-2.4765,-2.4376,-2.4099,-2.3936,-2.3936,-2.4054,-2.4203,-2.4203,-2.4261,-2.4478,-2.4292,-2.4105,-2.4234,-2.3897,-2.3628,-2.3628,-2.3318,-2.3078,-2.2957,-2.2909,-2.2787,-2.2334,-2.1827,-2.1262,-2.0495,-1.9977,-1.9528,-1.9131,-1.9075,-1.9075,-1.9075,-1.9075,-1.9075,-1.9075,-1.9075,-1.9075,-1.9075,-1.9588,-1.9975,-2.042,-2.0607,-2.0928,-2.1393,-2.1673,-2.1807,-2.1807,-2.1807,-2.1807,-2.1807,-2.1807,-2.1807,-2.1807,-2.1807,-2.1807,-2.1807,-2.1807,-2.1807,-2.1807,-2.1807,-2.1807,-2.1807,-3.8404,-3.8167,-3.7993,-3.7575,-3.748,-3.748,-3.748,-3.748,-3.748,-3.748,-3.748,-3.748,-3.748,-3.7329,-3.715,-3.6999,-3.6631,-3.5861,-3.4552,-3.3834,-3.2991,-3.2042,-3.1161,-3.0925,-3.1394,-3.1336,-3.1336,-3.1394,-3.1766,-3.1537,-3.0807,-3.1161,-3.1102,-3.0613,-2.9972,-2.9363,-2.8724,-2.8086,-2.7447,-2.6866,-2.6808,-2.6779,-2.6779,-2.6779,-2.6779,-2.6832,-2.6951,-2.7003,-2.7003,-2.713,-2.7181,-2.713,-2.7063,-2.6616,-2.6068,-2.5453,-2.4851,-2.4292,-2.3734,-2.37,-2.3891,-2.3995,-2.439,-2.4734,-2.4778,-2.465,-2.4523,-2.4523,-2.4015,-2.3628,-2.3628,-2.3318,-2.3078,-2.3078,-2.2969,-2.2848,-2.2848,-2.1851,-2.1031,-2.0955,-1.9977,-1.933,-1.9208,-1.9131,-1.9075,-1.9075,-1.9075,-1.9075,-1.9075,-1.9075,-1.9085,-1.9137,-1.9582,-2.0038,-2.0483,-2.0948,-2.1393,-2.1807,-2.1807,-2.1807,-2.1807,-2.1807,-2.1807,-2.1807,-2.1807,-2.1807,-2.1807,-2.1807,-2.1807,-2.1807,-2.1807,-2.1807,-2.1807,-2.1807,-2.1807,-2.1807,-3.8215,-3.7912,-3.7654,-3.7512,-3.748,-3.748,-3.748,-3.748,-3.748,-3.748,-3.748,-3.748,-3.748,-3.7329,-3.715,-3.6999,-3.6198,-3.5353,-3.4522,-3.3617,-3.2773,-3.2027,-3.1625,-3.1667,-3.2176,-3.1625,-3.161,-3.2327,-3.2437,-3.2367,-3.2145,-3.1879,-3.1552,-3.1102,-3.0601,-3.0016,-2.9377,-2.8753,-2.81,-2.7476,-2.6982,-2.6779,-2.6779,-2.6779,-2.6779,-2.6779,-2.6832,-2.6846,-2.6846,-2.6884,-2.6884,-2.6712,-2.5906,-2.5563,-2.5231,-2.4292,-2.3852,-2.3628,-2.3628,-2.3582,-2.3522,-2.3688,-2.3878,-2.4171,-2.4563,-2.4607,-2.4607,-2.4607,-2.4086,-2.3628,-2.3628,-2.315,-2.28,-2.28,-2.2739,-2.2739,-2.2739,-2.2482,-2.2099,-2.1502,-2.1376,-2.0869,-1.9868,-1.9341,-1.9075,-1.9075,-1.9075,-1.9075,-1.9075,-1.9075,-1.9297,-1.9671,-2.0048,-2.0503,-2.0959,-2.1424,-2.1704,-2.1807,-2.1807,-2.1807,-2.1807,-2.1807,-2.1807,-2.1807,-2.1807,-2.1807,-2.1807,-2.1807,-2.1807,-2.1807,-2.1807,-2.1807,-2.1807,-2.1807,-2.1807,-2.1807,-3.7928,-3.7657,-3.748,-3.748,-3.748,-3.748,-3.748,-3.748,-3.748,-3.748,-3.748,-3.748,-3.748,-3.7329,-3.7074,-3.6862,-3.6059,-3.5199,-3.4522,-3.3539,-3.2894,-3.2563,-3.2007,-3.2104,-3.2996,-3.2272,-3.2145,-3.2695,-3.2695,-3.2641,-3.2492,-3.2351,-3.1962,-3.1379,-3.1218,-3.0587,-2.961,-2.9261,-2.8594,-2.7639,-2.7374,-2.7055,-2.6779,-2.6779,-2.6779,-2.6779,-2.6779,-2.6779,-2.6779,-2.6779,-2.6621,-2.6272,-2.5701,-2.5133,-2.4567,-2.4015,-2.3556,-2.3271,-2.3318,-2.345,-2.3509,-2.3569,-2.3819,-2.4067,-2.4287,-2.4434,-2.4492,-2.4549,-2.4261,-2.3897,-2.376,-2.3403,-2.309,-2.2909,-2.286,-2.28,-2.28,-2.2543,-2.2149,-2.1815,-2.1302,-2.0613,-1.9605,-1.9274,-1.9075,-1.9075,-1.9075,-1.9075,-1.9075,-1.9075,-1.9349,-1.9817,-2.0193,-2.0648,-2.1114,-2.158,-2.1883,-2.1959,-2.1883,-2.1883,-2.1959,-2.1807,-2.1807,-2.1807,-2.1807,-2.1807,-2.1807,-2.1807,-2.1807,-2.1807,-2.1807,-2.1807,-2.1807,-2.1807,-2.2025,-2.2402,-3.7591,-3.748,-3.748,-3.748,-3.748,-3.748,-3.748,-3.748,-3.748,-3.748,-3.748,-3.7464,-3.7464,-3.727,-3.7013,-3.6723,-3.5829,-3.5076,-3.4506,-3.3475,-3.2982,-3.3161,-3.2407,-3.2547,-3.3797,-3.314,-3.2803,-3.2803,-3.2803,-3.2656,-3.2287,-3.2501,-3.217,-3.1422,-3.1592,-3.0949,-2.9784,-2.9668,-2.9015,-2.8028,-2.777,-2.7418,-2.6924,-2.6823,-2.6779,-2.6779,-2.6779,-2.6779,-2.6779,-2.6779,-2.6447,-2.6056,-2.5948,-2.5203,-2.435,-2.4176,-2.3721,-2.3258,-2.3138,-2.3318,-2.3497,-2.3569,-2.3747,-2.3995,-2.4054,-2.4157,-2.4305,-2.4505,-2.4319,-2.4131,-2.3878,-2.37,-2.3437,-2.3198,-2.2969,-2.2848,-2.2909,-2.2396,-2.1951,-2.1877,-2.0794,-1.9846,-1.933,-1.9198,-1.9075,-1.9075,-1.9075,-1.9075,-1.9075,-1.9214,-1.9396,-1.9862,-2.0307,-2.0762,-2.1228,-2.1611,-2.1959,-2.2176,-2.1873,-2.1883,-2.2101,-2.1883,-2.1807,-2.1807,-2.1807,-2.1807,-2.1807,-2.1807,-2.1807,-2.1807,-2.1807,-2.1873,-2.2025,-2.2241,-2.2756,-2.3423,-3.7496,-3.748,-3.748,-3.748,-3.748,-3.748,-3.748,-3.748,-3.748,-3.748,-3.7329,-3.7254,-3.7254,-3.6952,-3.6723,-3.6554,-3.5397,-3.4568,-3.4534,-3.326,-3.2695,-3.3198,-3.3161,-3.3491,-3.4201,-3.3882,-3.3351,-3.2641,-3.2904,-3.2648,-3.1781,-3.212,-3.1823,-3.1087,-3.1073,-3.0852,-3.0408,-2.9856,-2.9523,-2.9276,-2.8117,-2.7679,-2.7534,-2.6997,-2.6779,-2.6779,-2.6779,-2.6779,-2.6779,-2.6779,-2.6727,-2.6621,-2.6056,-2.5784,-2.5439,-2.4408,-2.4015,-2.3839,-2.3258,-2.3138,-2.3198,-2.339,-2.3463,-2.3582,-2.3832,-2.4054,-2.4099,-2.4171,-2.3923,-2.3675,-2.3628,-2.3378,-2.3198,-2.333,-2.2982,-2.28,-2.3017,-2.2653,-2.2149,-2.169,-2.0624,-1.9922,-1.9977,-1.9452,-1.9075,-1.9075,-1.9075,-1.9075,-1.9075,-1.9448,-1.9872,-2.0327,-2.0783,-2.1248,-2.1704,-2.1776,-2.1949,-2.2327,-2.1959,-2.1883,-2.2101,-2.1883,-2.1807,-2.1807,-2.1807,-2.1807,-2.1807,-2.1807,-2.1807,-2.1807,-2.1807,-2.2262,-2.299,-2.3963,-2.4385,-2.4529,-3.748,-3.748,-3.748,-3.748,-3.748,-3.748,-3.748,-3.748,-3.748,-3.748,-3.7329,-3.7194,-3.7194,-3.7222,-3.7163,-3.6997,-3.5763,-3.4852,-3.4534,-3.3167,-3.2749,-3.3614,-3.3475,-3.3799,-3.4756,-3.4399,-3.3724,-3.2681,-3.3035,-3.2973,-3.2633,-3.2888,-3.2492,-3.1537,-3.1664,-3.1334,-3.0613,-3.044,-3.0061,-2.9537,-2.8776,-2.8152,-2.765,-2.7026,-2.6779,-2.6779,-2.6779,-2.6779,-2.6779,-2.6779,-2.6568,-2.6233,-2.6002,-2.5439,-2.4808,-2.4234,-2.3897,-2.3616,-2.333,-2.339,-2.3582,-2.3641,-2.376,-2.3819,-2.4008,-2.4067,-2.4112,-2.4112,-2.4028,-2.3969,-2.3819,-2.3688,-2.3628,-2.3509,-2.333,-2.3271,-2.3378,-2.2884,-2.2125,-2.106,-2.0366,-1.9922,-1.9584,-1.9264,-1.9075,-1.9075,-1.9075,-1.9075,-1.9075,-1.9578,-1.9965,-2.041,-2.0876,-2.1342,-2.1797,-2.1807,-2.1959,-2.2252,-2.1959,-2.1949,-2.2252,-2.1949,-2.1807,-2.1807,-2.1807,-2.1807,-2.1807,-2.1807,-2.2025,-2.2478,-2.2478,-2.2905,-2.3768,-2.4898,-2.531,-2.5463]},{"header":{"parameterUnit":"m.s-1","parameterCategory":1,"la1":30.6,"la2":28.766,"lo1":-90.7593,"lo2":-88.6598,"dy":0.0162,"dx":0.0183,"nx":116,"ny":114,"refTime":"2023-07-10T00:00:00:Z","depth":0,"parameterNumber":3,"parameterNumberName":"V-component_of_WINDS"},"data":[0.0,0.0,0.0,0.0,0.0,0.0,0.0,0.0,0.0,0.0,0.0,0.0,0.0,0.0,0.0,0.0,0.0,0.0,0.0,0.0,0.0,0.0,0.0,0.0,0.0,0.0,0.0,0.0,0.0,0.0,0.0,0.0,0.0,0.0,0.0,0.0,0.0,0.0,0.0,0.0,0.0,0.0,0.0,0.0,0.0,0.0,0.0,0.0,0.0,0.0,0.0,0.0,0.0,0.0,0.0,0.0,0.0,0.0,0.0,0.0,0.0,0.0,0.0,0.0,0.0,0.0,0.0,0.0,0.0,0.0,0.0,0.0,0.0,0.0,0.0,0.0,0.0,0.0,0.0,0.0,0.0,0.0,0.0,0.0,0.0,0.0,0.0,0.0,0.0,0.0,0.0,0.0,0.0,0.0,0.0,0.0,0.0,0.0,0.0,0.0,0.0,0.0,0.0,0.0,0.0,0.0,0.0,0.0,0.0,0.0,0.0,0.0,0.0,0.0,0.0,0.0,0.0,0.0,0.0,0.0,0.0,0.0,0.0,0.0,0.0,0.0,0.0,0.0,0.0,0.0,0.0,0.0,0.0,0.0,0.0,0.0,0.0,0.0,0.0,0.0,0.0,0.0,0.0,0.0,0.0,0.0,0.0,0.0,0.0,0.0,0.0,0.0,0.0,0.0,0.0,0.0,0.0,0.0,0.0,0.0,0.0,0.0,0.0,0.0,0.0,0.0,0.0,0.0,0.0,0.0,0.0,0.0,0.0,0.0,0.0,0.0,0.0,0.0,0.0,0.0,0.0,0.0,0.0,0.0,0.0,0.0,0.0,0.0,0.0,0.0,0.0,0.0,0.0,0.0,0.0,0.0,0.0,0.0,0.0,0.0,0.0,0.0,0.0,0.0,0.0,0.0,0.0,0.0,0.0,0.0,0.0,0.0,0.0,0.0,0.0,0.0,0.0,0.0,0.0,0.0,0.0,0.0,0.0,0.0,0.0,0.0,0.0,0.0,0.0,0.0,0.0,0.0,0.0,0.0,0.0,0.0,0.0,0.0,0.0,0.0,0.0,0.0,0.0,0.0,0.0,0.0,0.0,0.0,0.0,0.0,0.0,0.0,0.0,0.0,0.0,0.0,0.0,0.0,0.0,0.0,0.0,0.0,0.0,0.0,0.0,0.0,0.0,0.0,0.0,0.0,0.0,0.0,0.0,0.0,0.0,0.0,0.0,0.0,0.0,0.0,0.0,0.0,0.0,0.0,0.0,0.0,0.0,0.0,0.0,0.0,0.0,0.0,0.0,0.0,0.0,0.0,0.0,0.0,0.0,0.0,0.0,0.0,0.0,0.0,0.0,0.0,0.0,0.0,0.0,0.0,0.0,0.0,0.0,0.0,0.0,0.0,0.0,0.0,0.0,0.0,0.0,0.0,0.0,0.0,0.0,0.0,0.0,0.0,0.0,0.0,0.0,0.0,0.0,0.0,0.0,0.0,0.0,0.0,0.0,0.0,0.0,0.0,0.0,0.0,0.0,0.0,0.0,0.0,0.0,0.0,0.0,0.0,0.0,0.0,0.0,0.0,0.0,0.0,0.0,0.0,0.0,0.0,0.0,0.0,0.0,0.0,0.0,0.0,0.0,0.0,0.0,0.0,0.0,0.0,0.0,0.0,0.0,0.0,0.0,0.0,0.0,0.0,0.0,0.0,0.0,0.0,0.0,0.0,0.0,0.0,0.0,0.0,0.0,0.0,0.0,0.0,0.0,0.0,0.0,0.0,0.0,0.0,0.0,0.0,0.0,0.0,0.0,0.0,0.0,0.0,0.0,0.0,0.0,0.0,0.0,0.0,0.0,0.0,0.0,0.0,0.0,0.0,0.0,0.0,0.0,0.0,0.0,0.0,0.0,0.0,0.0,0.0,0.0,0.0,0.0,0.0,0.0,0.0,0.0,0.0,0.0,0.0,0.0,0.0,0.0,0.0,0.0,0.0,0.0,0.0,0.0,0.0,0.0,0.0,0.0,0.0,0.0,0.0,0.0,0.0,0.0,0.0,0.0,0.0,0.0,0.0,0.0,0.0,0.0,0.0,0.0,0.0,0.0,0.0,0.0,0.0,0.0,0.0,0.0,0.0,0.0,0.0,0.0,0.0,0.0,0.0,0.0,0.0,0.0,0.0,0.0,0.0,0.0,0.0,0.0,0.0,0.0,0.0,0.0,0.0,0.0,0.0,0.0,0.0,0.0,0.0,0.0,0.0,0.0,0.0,0.0,0.0,0.0,0.0,0.0,0.0,0.0,0.0,0.0,0.0,0.0,0.0,0.0,0.0,0.0,0.0,0.0,0.0,0.0,0.0,0.0,0.0,0.0,0.0,0.0,0.0,0.0,0.0,0.0,0.0,0.0,0.0,0.0,0.0,0.0,0.0,0.0,0.0,0.0,0.0,0.0,0.0,0.0,0.0,0.0,0.0,0.0,0.0,0.0,0.0,0.0,0.0,0.0,0.0,0.0,0.0,0.0,0.0,0.0,0.0,0.0,0.0,0.0,0.0,0.0,0.0,0.0,0.0,0.0,0.0,0.0,0.0,0.0,0.0,0.0,0.0,0.0,0.0,0.0,0.0,0.0,0.0,0.0,0.0,0.0,0.0,0.0,0.0,0.0,0.0,0.0,0.0,0.0,0.0,0.0,0.0,0.0,0.0,0.0,0.0,0.0,0.0,0.0,0.0,0.0,0.0,0.0,0.0,0.0,0.0,0.0,0.0,0.0,0.0,0.0,0.0,0.0,0.0,0.0,0.0,0.0,0.0,0.0,0.0,0.0,0.0,0.0,0.0,0.0,0.0,0.0,0.0,0.0,0.0,0.0,0.0,0.0,0.0,0.0,0.0,0.0,0.0,0.0,0.0,0.0,0.0,0.0,0.0,0.0,0.0,0.0,0.0,0.0,0.0,0.0,0.0,0.0,0.0,0.0,0.0,0.0,0.0,0.0,0.0,0.0,0.0,0.0,0.0,0.0,0.0,0.0,0.0,0.0,0.0,0.0,0.0,0.0,0.0,0.0,0.0,0.0,0.0,0.0,0.0,0.0,0.0,0.0,0.0,0.0,0.0,0.0,0.0,0.0,0.0,0.0,0.0,0.0,0.0,0.0,0.0,0.0,0.0,0.0,0.0,0.0,0.0,0.0,0.0,0.0,0.0,0.0,0.0,0.0,0.0,0.0,0.0,0.0,0.0,0.0,0.0,0.0,0.0,0.0,0.0,0.0,0.0,0.0,0.0,0.0,0.0,0.0,0.0,0.0,0.0,0.0,0.0,0.0,0.0,0.0,0.0,0.0,0.0,0.0,0.0,0.0,0.0,0.0,0.0,0.0,0.0,0.0,0.0,0.0,0.0,0.0,0.0,0.0,0.0,0.0,0.0,0.0,0.0,0.0,0.0,0.0,0.0,0.0,0.0,0.0,0.0,0.0,0.0,0.0,0.0,0.0,0.0,0.0,0.0,0.0,0.0,0.0,0.0,0.0,0.0,0.0,0.0,0.0,0.0,0.0,0.0,0.0,0.0,0.0,0.0,0.0,0.0,0.0,0.0,0.0,0.0,0.0,0.0,0.0,0.0,0.0,0.0,0.0,0.0,0.0,0.0,0.0,0.0,0.0,0.0,0.0,0.0,0.0,0.0,0.0,0.0,0.0,0.0,0.0,0.0,0.0,0.0,0.0,0.0,0.0,0.0,0.0,0.0,0.0,0.0,0.0,0.0,0.0,0.0,0.0,0.0,0.0,0.0,0.0,0.0,0.0,0.0,0.0,0.0,0.0,0.0,0.0,0.0,0.0,0.0,0.0,0.0,0.0,0.0,0.0,0.0,0.0,0.0,0.0,0.0,0.0,0.0,0.0,0.0,0.0,0.0,0.0,0.0,0.0,0.0,0.0,0.0,0.0,0.0,0.0,0.0,0.0,0.0,0.0,0.0,0.0,0.0,0.0,0.0,0.0,0.0,0.0,0.0,0.0,0.0,0.0,0.0,0.0,0.0,0.0,0.0,0.0,0.0,0.0,0.0,0.0,0.0,0.0,0.0,0.0,0.0,0.0,0.0,0.0,0.0,0.0,0.0,0.0,0.0,0.0,0.0,0.0,0.0,0.0,0.0,0.0,0.0,0.0,0.0,0.0,0.0,0.0,0.0,0.0,0.0,0.0,0.0,0.0,0.0,0.0,0.0,0.0,0.0,0.0,0.0,0.0,0.0,0.0,0.0,0.0,0.0,0.0,0.0,0.0,0.0,0.0,0.0,0.0,0.0,0.0,0.0,0.0,0.0,0.0,0.0,0.0,0.0,0.0,0.0,0.0,0.0,0.0,0.0,0.0,0.0,0.0,0.0,0.0,0.0,0.0,0.0,0.0,0.0,0.0,0.0,0.0,0.0,0.0,0.0,0.0,0.0,0.0,0.0,0.0,0.0,0.0,0.0,0.0,0.0,0.0,0.0,0.0,0.0,0.0,0.0,0.0,0.0,0.0,0.0,0.0,0.0,0.0,0.0,0.0,0.0,0.0,0.0,0.0,0.0,0.0,0.0,0.0,0.0,0.0,0.0,0.0,0.0,0.0,0.0,0.0,0.0,0.0,0.0,0.0,0.0,0.0,0.0,0.0,0.0,0.0,0.0,0.0,0.0,0.0,0.0,0.0,0.0,0.0,0.0,0.0,0.0,0.0,0.0,0.0,0.0,0.0,0.0,0.0,0.0,0.0,0.0,0.0,0.0,0.0,0.0,0.0,0.0,0.0,0.0,0.0,0.0,0.0,0.0,0.0,0.0,0.0,0.0,0.0,0.0,0.0,0.0,0.0,0.0,0.0,0.0,0.0,0.0,0.0,0.0,0.0,0.0,0.0,0.0,0.0,0.0,0.0,0.0,0.0,0.0,0.0,0.0,0.0,0.0,0.0,0.0,0.0,0.0,0.0,0.0,0.0,0.0,0.0,0.0,0.0,0.0,0.0,0.0,0.0,0.0,0.0,0.0,0.0,0.0,0.0,0.0,0.0,0.0,0.0,0.0,0.0,0.0,0.0,0.0,0.0,0.0,0.0,0.0,0.0,0.0,0.0,0.0,0.0,0.0,0.0,0.0,0.0,0.0,0.0,0.0,0.0,0.0,0.0,0.0,0.0,0.0,0.0,0.0,0.0,0.0,0.0,0.0,0.0,0.0,0.0,0.0,0.0,0.0,0.0,0.0,0.0,0.0,0.0,0.0,0.0,0.0,0.0,0.0,0.0,0.0,0.0,0.0,0.0,0.0,0.0,0.0,0.0,0.0,0.0,0.0,0.0,0.0,0.0,0.0,0.0,0.0,0.0,0.0,0.0,0.0,0.0,0.0,0.0,0.0,0.0,0.0,0.0,0.0,0.0,0.0,0.0,0.0,0.0,0.0,0.0,0.0,0.0,0.0,0.0,0.0,0.0,0.0,0.0,0.0,0.0,0.0,0.0,0.0,0.0,0.0,0.0,0.0,0.0,0.0,0.0,0.0,0.0,0.0,0.0,0.0,0.0,0.0,0.0,0.0,0.0,0.0,0.0,0.0,0.0,0.0,0.0,0.0,0.0,0.0,0.0,0.0,0.0,0.0,0.0,0.0,0.0,0.0,0.0,0.0,0.0,0.0,0.0,0.0,0.0,0.0,0.0,0.0,0.0,0.0,0.0,0.0,0.0,0.0,0.0,0.0,0.0,0.0,0.0,0.0,0.0,0.0,0.0,0.0,0.0,0.0,0.0,0.0,0.0,0.0,0.0,0.0,0.0,0.0,0.0,0.0,0.0,0.0,0.0,0.0,0.0,0.0,0.0,0.0,0.0,0.0,0.0,0.0,0.0,0.0,0.0,0.0,0.0,0.0,0.0,0.0,0.0,0.0,0.0,0.0,0.0,0.0,0.0,0.0,0.0,0.0,0.0,0.0,0.0,0.0,0.0,0.0,0.0,0.0,0.0,0.0,0.0,0.0,0.0,0.0,0.0,0.0,0.0,0.0,0.0,0.0,0.0,0.0,0.0,0.0,0.0,0.0,0.0,0.0,0.0,0.0,0.0,0.0,0.0,0.0,0.0,0.0,0.0,0.0,0.0,0.0,0.0,0.0,-2.997,-2.8065,0.0,0.0,0.0,0.0,0.0,0.0,0.0,0.0,0.0,0.0,0.0,0.0,0.0,0.0,0.0,0.0,0.0,0.0,0.0,0.0,0.0,0.0,0.0,0.0,0.0,0.0,0.0,0.0,0.0,0.0,0.0,0.0,0.0,0.0,0.0,0.0,0.0,0.0,0.0,0.0,0.0,0.0,0.0,0.0,0.0,0.0,0.0,0.0,0.0,0.0,0.0,0.0,0.0,0.0,0.0,0.0,0.0,0.0,0.0,0.0,0.0,0.0,0.0,0.0,0.0,0.0,0.0,0.0,0.0,0.0,0.0,0.0,0.0,0.0,0.0,0.0,0.0,0.0,0.0,0.0,0.0,0.0,0.0,0.0,0.0,0.0,0.0,0.0,0.0,0.0,0.0,0.0,0.0,0.0,0.0,0.0,0.0,0.0,0.0,0.0,0.0,0.0,0.0,0.0,0.0,0.0,0.0,0.0,0.0,0.0,0.0,0.0,0.0,0.0,-3.0781,-3.0136,0.0,0.0,0.0,0.0,0.0,0.0,0.0,0.0,0.0,0.0,0.0,0.0,0.0,0.0,0.0,0.0,0.0,0.0,0.0,0.0,0.0,0.0,0.0,0.0,0.0,0.0,0.0,0.0,0.0,0.0,0.0,0.0,0.0,0.0,0.0,0.0,0.0,0.0,0.0,0.0,0.0,0.0,0.0,0.0,0.0,0.0,0.0,0.0,0.0,0.0,0.0,0.0,0.0,0.0,0.0,0.0,0.0,0.0,0.0,0.0,0.0,0.0,0.0,0.0,0.0,0.0,0.0,0.0,0.0,0.0,0.0,0.0,0.0,0.0,0.0,0.0,0.0,0.0,0.0,0.0,0.0,0.0,0.0,0.0,0.0,0.0,0.0,0.0,0.0,0.0,0.0,0.0,0.0,0.0,0.0,0.0,0.0,0.0,0.0,0.0,0.0,0.0,0.0,0.0,0.0,0.0,0.0,0.0,-2.953,-2.9696,-2.9027,-2.9755,-3.0107,-3.0267,-3.2034,-3.279,-3.2641,-3.1301,0.0,0.0,0.0,0.0,0.0,0.0,0.0,0.0,0.0,0.0,0.0,0.0,0.0,0.0,0.0,0.0,0.0,0.0,0.0,0.0,0.0,0.0,0.0,0.0,0.0,0.0,0.0,0.0,0.0,0.0,0.0,0.0,0.0,0.0,0.0,0.0,0.0,0.0,-2.6177,-2.6165,-2.6403,-2.679,0.0,0.0,0.0,0.0,0.0,0.0,0.0,0.0,0.0,0.0,0.0,0.0,0.0,0.0,0.0,0.0,0.0,0.0,0.0,0.0,0.0,0.0,0.0,0.0,0.0,0.0,0.0,0.0,0.0,0.0,0.0,0.0,0.0,0.0,0.0,0.0,0.0,0.0,0.0,0.0,0.0,0.0,0.0,0.0,-2.5713,-2.7278,0.0,0.0,0.0,0.0,0.0,0.0,0.0,0.0,0.0,0.0,0.0,0.0,0.0,-2.9391,-2.8523,-3.1073,-3.1919,-3.1016,-3.3295,-3.4312,-3.4216,-3.4331,-3.4385,-3.4327,-3.3268,0.0,-3.2851,-3.2634,0.0,0.0,0.0,0.0,0.0,0.0,0.0,0.0,0.0,0.0,0.0,0.0,0.0,0.0,0.0,0.0,0.0,0.0,0.0,0.0,0.0,0.0,0.0,0.0,0.0,0.0,0.0,0.0,0.0,0.0,0.0,0.0,0.0,0.0,0.0,0.0,-2.6328,-2.7888,-2.9251,-2.9864,-3.0553,-3.1236,-3.1061,-2.9312,-2.6488,-2.6207,0.0,0.0,0.0,0.0,0.0,0.0,0.0,0.0,0.0,0.0,0.0,0.0,0.0,0.0,0.0,0.0,0.0,0.0,0.0,0.0,0.0,0.0,0.0,0.0,0.0,0.0,0.0,0.0,0.0,0.0,0.0,0.0,0.0,0.0,0.0,0.0,0.0,0.0,0.0,-2.6324,-2.7826,-2.9063,-2.9543,-2.9125,0.0,0.0,0.0,0.0,0.0,0.0,0.0,0.0,0.0,-2.9632,-3.1015,-3.1322,-3.0412,-3.29,-3.3976,-3.3582,-3.4725,-3.5509,-3.6004,-3.5982,-3.6249,-3.6671,-3.5971,-3.5695,-3.5561,-3.3637,-3.2837,-3.2694,0.0,0.0,0.0,0.0,-2.8473,-2.9109,0.0,0.0,0.0,0.0,0.0,0.0,0.0,0.0,0.0,0.0,0.0,0.0,0.0,0.0,0.0,-1.9576,0.0,0.0,0.0,0.0,0.0,0.0,0.0,0.0,0.0,0.0,0.0,0.0,0.0,-2.9689,-3.187,-3.2723,-3.3415,-3.3998,-3.4023,-3.2154,-2.8977,-2.8832,-2.7158,0.0,0.0,0.0,0.0,0.0,0.0,0.0,0.0,0.0,0.0,0.0,0.0,0.0,0.0,0.0,0.0,0.0,0.0,0.0,0.0,0.0,0.0,0.0,0.0,0.0,0.0,0.0,0.0,0.0,0.0,0.0,0.0,0.0,0.0,0.0,0.0,0.0,0.0,-2.8006,-2.966,-3.0529,-3.12,-3.0964,0.0,0.0,0.0,0.0,0.0,0.0,-3.1044,-3.1068,-3.096,-3.0695,-3.2756,-3.3536,-3.2809,-3.4902,-3.5921,-3.5876,-3.5892,-3.6252,-3.6865,-3.6878,-3.7239,-3.7852,-3.7865,-3.7849,-3.7661,-3.5147,-3.4112,-3.4064,-3.3604,-3.2666,-3.1451,-3.1016,-3.1135,-3.1484,0.0,0.0,0.0,0.0,0.0,0.0,0.0,0.0,0.0,0.0,0.0,0.0,0.0,0.0,-2.119,-2.119,-2.1344,-2.0814,0.0,0.0,0.0,0.0,0.0,0.0,0.0,0.0,0.0,0.0,0.0,0.0,0.0,-3.2347,-3.293,-3.3998,-3.3947,-3.3165,-3.184,-3.1012,-2.9643,-2.7773,0.0,0.0,0.0,0.0,0.0,0.0,0.0,0.0,0.0,0.0,0.0,0.0,0.0,0.0,0.0,0.0,0.0,0.0,0.0,0.0,0.0,0.0,0.0,0.0,0.0,0.0,0.0,0.0,0.0,0.0,0.0,0.0,0.0,0.0,0.0,0.0,0.0,0.0,0.0,-3.1424,-3.3604,0.0,0.0,0.0,0.0,-3.0386,-3.0348,-3.1107,-3.2774,-3.287,-3.3513,-3.4932,-3.5993,-3.6458,-3.6342,-3.7226,-3.7666,-3.7685,-3.7596,-3.7597,-3.7636,-3.7636,-3.7672,-3.771,-3.771,-3.771,-3.771,-3.7661,-3.7655,-3.7466,-3.5818,-3.5117,-3.4852,-3.3264,-3.3635,-3.4961,0.0,0.0,0.0,0.0,0.0,0.0,0.0,0.0,0.0,0.0,0.0,0.0,0.0,-2.0917,-2.2671,-2.27,-2.4083,-2.4096,-2.2156,0.0,0.0,0.0,0.0,0.0,0.0,0.0,0.0,0.0,0.0,0.0,0.0,0.0,0.0,-3.3478,-3.3584,-3.3603,-3.3574,-3.3209,-3.1803,-2.9692,-2.848,-2.6079,0.0,0.0,0.0,0.0,0.0,0.0,0.0,0.0,0.0,0.0,0.0,0.0,0.0,0.0,0.0,0.0,0.0,0.0,0.0,0.0,0.0,0.0,0.0,0.0,0.0,0.0,0.0,0.0,0.0,0.0,0.0,0.0,0.0,0.0,0.0,0.0,0.0,-3.225,-3.3182,0.0,-3.2948,-3.2891,-3.2641,-3.1994,-3.2987,-3.4101,-3.5259,-3.535,-3.584,-3.6878,-3.729,-3.7428,-3.7307,-3.7682,-3.8104,-3.857,-3.8588,-3.9162,-4.0194,-4.012,-4.0368,-4.0864,-4.0724,-4.068,-4.0718,-4.0739,-3.9546,-3.764,-3.6993,-3.6691,-3.6578,-3.5988,-3.6122,-3.6616,0.0,0.0,0.0,0.0,0.0,0.0,0.0,0.0,0.0,0.0,0.0,-1.9704,-1.9811,-2.2473,-2.4347,-2.4649,-2.5819,-2.5644,-2.3431,0.0,0.0,0.0,0.0,0.0,0.0,0.0,0.0,0.0,0.0,0.0,0.0,0.0,0.0,0.0,0.0,-3.3626,-3.4316,-3.4293,-3.3315,-3.179,-3.0931,-2.8123,-2.4391,0.0,0.0,0.0,0.0,0.0,0.0,0.0,0.0,0.0,0.0,0.0,0.0,0.0,0.0,0.0,0.0,0.0,0.0,0.0,0.0,0.0,0.0,0.0,0.0,0.0,0.0,0.0,0.0,0.0,0.0,0.0,0.0,0.0,0.0,-2.9513,-3.1426,-3.2346,-3.3149,-3.3667,-3.3728,-3.3714,-3.3949,-3.4491,-3.5565,-3.6562,-3.7405,-3.7479,-3.7731,-3.8221,-3.8561,-3.8829,-3.901,-3.9367,-3.9808,-4.0272,-4.0328,-4.1074,-4.2412,-4.2274,-4.2347,-4.2595,-4.2663,-4.2399,-4.1926,-4.2114,-4.0967,-3.9094,-3.9155,-3.9115,-3.9075,-3.9053,-3.9053,-3.9053,0.0,0.0,0.0,0.0,0.0,0.0,0.0,0.0,0.0,0.0,-2.0781,-2.1909,-2.3295,-2.494,-2.6204,-2.6889,-2.6324,-2.5047,-2.2875,-2.2685,0.0,0.0,0.0,0.0,0.0,0.0,0.0,0.0,0.0,0.0,0.0,0.0,0.0,0.0,0.0,0.0,-3.416,-3.4179,-3.4245,-3.4088,-3.1682,-2.92,-2.6803,0.0,0.0,0.0,0.0,0.0,0.0,0.0,0.0,0.0,0.0,0.0,0.0,0.0,0.0,0.0,0.0,0.0,0.0,0.0,0.0,0.0,0.0,0.0,0.0,0.0,0.0,0.0,0.0,0.0,0.0,0.0,0.0,0.0,-2.6799,-3.0215,-3.2532,-3.1808,-3.3844,-3.5343,-3.5436,-3.5377,-3.6055,-3.7753,-3.7855,-3.8219,-3.9095,-3.9114,-3.9116,-3.9141,-3.9959,-4.0783,-4.1589,-4.2431,-4.2852,-4.2891,-4.2871,-4.3291,-4.4034,-4.3888,-4.3406,-4.2683,-4.3275,-4.2591,-4.1156,-4.1807,-4.2066,-4.2093,-4.2289,-4.2385,-4.2385,-4.2319,-4.2295,-4.2252,0.0,0.0,0.0,0.0,0.0,0.0,0.0,0.0,0.0,0.0,-1.9358,-2.0977,-2.0264,-2.4096,-2.6514,-2.6109,-2.651,-2.5832,-2.3577,0.0,0.0,0.0,0.0,0.0,0.0,0.0,0.0,0.0,0.0,0.0,0.0,0.0,0.0,0.0,0.0,0.0,-3.3361,-3.3956,-3.4173,-3.4093,-3.3473,-3.137,-2.8656,0.0,0.0,0.0,0.0,0.0,0.0,0.0,0.0,0.0,0.0,0.0,0.0,0.0,0.0,0.0,0.0,0.0,0.0,0.0,0.0,0.0,0.0,0.0,0.0,0.0,0.0,0.0,0.0,0.0,0.0,0.0,-2.9746,-3.1255,-3.1021,-3.1996,-3.3115,-3.4165,-3.4879,-3.555,-3.6213,-3.6255,-3.6664,-3.767,-3.8376,-3.9103,-3.9946,-3.9372,-3.9316,-3.9947,-4.0157,-4.0654,-4.1514,-4.2947,-4.3999,-4.461,-4.4505,-4.4576,-4.4805,-4.4554,-4.4317,-4.4058,-4.4073,-4.3812,-4.3399,-4.3548,-4.3613,-4.3539,-4.2406,-4.1965,-4.1965,-4.1919,-4.1938,-4.1769,0.0,0.0,0.0,0.0,0.0,0.0,0.0,0.0,0.0,0.0,-1.8975,-2.0671,-2.045,-2.4091,-2.6358,-2.5834,-2.6319,-2.5661,-2.3423,0.0,0.0,0.0,0.0,0.0,0.0,0.0,0.0,0.0,0.0,0.0,0.0,0.0,0.0,0.0,0.0,0.0,-3.298,-3.3467,-3.3809,-3.4074,-3.4099,-3.2149,-2.9348,-3.0475,-2.8661,-2.5649,-2.6829,-2.7255,-2.7089,-2.6128,0.0,0.0,0.0,0.0,0.0,0.0,0.0,0.0,0.0,0.0,0.0,0.0,0.0,0.0,0.0,0.0,0.0,0.0,0.0,0.0,0.0,0.0,0.0,0.0,-3.0929,-3.3042,-3.4143,-3.3971,-3.4251,-3.5649,-3.6093,-3.6668,-3.7565,-3.7625,-3.8223,-3.9718,-3.9985,-4.0578,-4.1722,-4.1646,-4.1493,-4.1244,-4.2172,-4.2759,-4.2936,-4.4186,-4.5099,-4.5593,-4.5209,-4.5223,-4.5542,-4.5299,-4.4952,-4.4624,-4.4699,-4.4367,-4.3722,-4.4016,-4.4135,-4.4084,0.0,0.0,0.0,0.0,-4.2789,-4.2582,0.0,0.0,0.0,0.0,0.0,0.0,0.0,0.0,0.0,0.0,0.0,-2.0755,-2.2197,-2.4538,-2.5887,-2.5672,-2.563,-2.4746,0.0,0.0,0.0,0.0,0.0,0.0,0.0,0.0,0.0,0.0,0.0,0.0,0.0,0.0,0.0,0.0,0.0,0.0,-3.2612,-3.2797,-3.3253,-3.3869,-3.3843,-3.2103,-2.966,-3.1078,-2.937,-2.6366,-2.7893,-2.8467,-2.8473,-2.823,0.0,0.0,0.0,0.0,0.0,0.0,0.0,0.0,0.0,0.0,0.0,0.0,0.0,0.0,0.0,0.0,0.0,0.0,0.0,0.0,0.0,0.0,0.0,0.0,-3.186,-3.3817,-3.615,-3.5883,-3.5728,-3.6539,-3.7252,-3.8075,-3.9087,-3.9145,-4.0139,-4.2563,-4.22,-4.2484,-4.3843,-4.4684,0.0,0.0,0.0,-4.5622,-4.5016,-4.5855,-4.6282,-4.6263,-4.5597,-4.5647,-4.6266,-4.593,-4.5368,-4.4729,-4.5088,-4.4426,-4.3074,-4.3739,-4.4005,-4.4005,-4.4177,-4.4255,-4.4237,-4.4009,-4.3937,-4.3968,0.0,0.0,0.0,0.0,0.0,0.0,0.0,0.0,0.0,-1.6891,-1.8795,-2.0525,-2.1368,-2.4167,-2.5459,-2.4154,-2.35,-2.274,0.0,0.0,0.0,0.0,0.0,0.0,0.0,0.0,0.0,0.0,0.0,0.0,0.0,0.0,0.0,0.0,0.0,0.0,-3.082,-3.2219,-3.2865,-3.2937,-3.2893,-3.2525,-3.2053,-3.2348,-3.155,-3.038,-3.1354,-3.1703,-3.1501,-3.0197,-2.9756,-2.9687,-2.9255,0.0,0.0,0.0,0.0,0.0,0.0,0.0,0.0,0.0,0.0,0.0,0.0,0.0,0.0,0.0,0.0,0.0,0.0,0.0,0.0,-3.2126,-3.4049,-3.5685,-3.6272,-3.6711,-3.7091,-3.7355,-3.7525,-3.8175,-3.96,-3.9813,-4.0613,-4.2367,-4.3577,-4.4374,-4.4673,-4.4764,-4.4638,-4.4304,-4.461,-4.5074,-4.5636,-4.7164,-4.7938,-4.7919,-4.774,0.0,-4.6826,-4.5998,-4.5506,-4.5279,-4.4692,-4.4191,-4.3813,-4.3931,-4.4005,-4.4005,-4.4036,-4.4067,-4.3918,-4.2586,-4.2921,-4.3819,0.0,0.0,0.0,0.0,0.0,0.0,0.0,0.0,0.0,0.0,-1.6944,-1.8779,-1.9522,-2.1721,-2.2973,-2.2559,-2.1823,0.0,0.0,0.0,0.0,0.0,0.0,0.0,0.0,0.0,0.0,0.0,0.0,0.0,0.0,0.0,0.0,0.0,0.0,0.0,-3.0204,-3.1127,-3.1623,-3.1808,-3.1869,-3.2151,-3.2491,-3.2543,-3.2279,-3.196,-3.2363,-3.2535,-3.2379,-3.1169,-3.0772,-3.0723,-3.0368,-2.9706,-2.8823,0.0,0.0,0.0,0.0,0.0,0.0,0.0,0.0,0.0,0.0,0.0,0.0,0.0,0.0,-2.9893,-2.9857,0.0,-3.2084,-3.2971,-3.4453,-3.5986,-3.7298,-3.8107,-3.8618,-3.8724,-3.9105,-3.9977,-4.1582,-4.2196,-4.2993,-4.4175,-4.5022,-4.566,-4.6018,-4.638,-4.6129,-4.5227,-4.6279,-4.6671,-4.624,-4.7477,-4.8115,-4.8096,-4.7684,-4.7065,-4.624,-4.5728,-4.5245,-4.4822,-4.4302,-4.4055,-4.4005,-4.4005,-4.4005,-4.4005,-4.4005,-4.4005,-4.3893,-4.3095,-4.3318,-4.3893,0.0,0.0,0.0,0.0,0.0,0.0,0.0,0.0,0.0,0.0,0.0,-1.7093,-1.8058,-1.9303,-2.0113,0.0,0.0,0.0,0.0,0.0,0.0,0.0,0.0,0.0,0.0,0.0,0.0,0.0,0.0,0.0,0.0,0.0,0.0,0.0,0.0,0.0,-2.9758,-2.9996,-3.0399,-3.093,-3.1074,-3.171,-3.251,-3.2402,-3.2375,-3.2393,-3.2402,-3.2429,-3.2373,-3.155,-3.1327,-3.1323,-3.0992,-3.0925,-3.0393,-2.7724,-2.7856,0.0,0.0,0.0,0.0,0.0,0.0,0.0,0.0,-3.0094,-3.0546,-3.0151,-3.0453,-3.0809,-3.0904,-3.1487,-3.2468,-3.4016,-3.4958,-3.6279,-3.8558,-3.9471,-4.0123,-4.073,-4.1245,-4.2115,-4.3648,-4.4575,-4.5407,-4.6221,-4.6403,-4.6766,-4.7354,-4.8145,-4.7908,-4.6457,-4.8215,-4.853,-4.7173,-4.7723,-4.8006,-4.8006,-4.7452,-4.6831,-4.6178,-4.5966,-4.5506,-4.4873,-4.4594,-4.4488,-4.4469,-4.4321,-4.4246,-4.4246,-4.4079,-4.4005,-4.4005,-4.4005,-4.4005,-4.4005,0.0,0.0,0.0,0.0,0.0,0.0,0.0,0.0,0.0,0.0,0.0,0.0,0.0,0.0,0.0,0.0,0.0,0.0,0.0,0.0,0.0,0.0,0.0,0.0,0.0,0.0,0.0,0.0,0.0,0.0,0.0,0.0,0.0,0.0,0.0,0.0,-2.8541,-2.9403,-3.0207,-3.0892,-3.093,-3.1918,-3.3291,-3.2508,-3.231,-3.2393,-3.2393,-3.2393,-3.2292,-3.1472,-3.1217,-3.0987,-2.9619,-2.9185,-2.9007,-2.8033,0.0,-2.7675,-2.6041,-2.5245,-2.5244,-2.6804,-2.8277,-2.9381,0.0,-3.1875,-3.3644,-3.2137,-3.3123,-3.4447,-3.5101,-3.5329,-3.5771,-3.68,-3.7502,-3.8291,-3.9448,-4.022,-4.1499,-4.3716,-4.3484,-4.3453,-4.4325,-4.5235,-4.6091,-4.6844,-4.7578,-4.801,-4.8074,-4.8802,-4.9115,-4.8896,-4.9034,-4.9008,-4.8822,-4.881,-4.876,-4.876,-4.8807,-4.8766,-4.8654,-4.7891,-4.7481,-4.7369,-4.6564,-4.6215,-4.616,-4.5454,-4.5138,-4.5082,-4.4302,-4.4005,-4.4005,-4.4005,-4.4005,-4.4005,0.0,0.0,0.0,0.0,0.0,0.0,0.0,0.0,0.0,0.0,0.0,0.0,0.0,0.0,0.0,0.0,0.0,0.0,0.0,0.0,0.0,0.0,0.0,0.0,0.0,0.0,0.0,0.0,0.0,0.0,0.0,0.0,0.0,0.0,0.0,0.0,-2.851,-2.8835,-2.9196,-2.9539,-3.0044,-3.0966,-3.2073,-3.2172,-3.2516,-3.2809,-3.1374,-3.0911,0.0,0.0,-2.9762,-2.9849,-3.0148,-2.9606,-2.8759,-2.7999,-2.7475,0.0,-2.7017,-2.7507,-2.8329,-2.9522,-3.0719,-3.1731,-3.2281,-3.3481,-3.4308,-3.3634,-3.4505,-3.5487,-3.5762,-3.5901,-3.6381,-3.7706,-3.8146,-3.8794,-4.0158,-4.1856,-4.3351,-4.4383,-4.4608,-4.4627,-4.4515,-4.6168,-4.6957,-4.6279,-4.7932,-4.8964,-4.8964,-4.9152,-4.9308,-4.9308,-4.9197,-4.915,-4.915,-4.9079,-4.9288,-4.9722,-4.9756,-4.9756,-4.965,-4.9278,-4.8869,-4.8404,-4.8036,-4.7906,-4.7868,-4.7534,-4.7404,-4.7367,-4.6995,-4.6568,-4.5974,-4.4525,-4.4005,-4.4005,0.0,0.0,0.0,0.0,0.0,0.0,0.0,0.0,0.0,0.0,0.0,0.0,0.0,0.0,0.0,0.0,0.0,0.0,0.0,0.0,0.0,0.0,0.0,0.0,0.0,0.0,0.0,0.0,0.0,0.0,0.0,0.0,0.0,0.0,0.0,0.0,-2.8466,-2.8414,-2.8532,-2.8784,-2.9422,-3.0324,-3.1327,-3.1924,-3.2386,-3.2477,-3.0749,-3.0142,0.0,0.0,-2.8651,-2.9155,-2.9696,-2.9418,-2.8675,-2.7698,-2.6885,-2.6544,-2.768,-2.8765,-2.9925,-3.1477,-3.2318,-3.3071,-3.4184,-3.4427,-3.4483,-3.4772,-3.5356,-3.5937,-3.6386,-3.6508,-3.7024,-3.8432,-3.8845,-3.9502,-4.0929,-4.3061,-4.4487,-4.4515,-4.5171,-4.5123,-4.3924,-4.625,-4.7526,-4.6805,-4.8457,-4.9509,-4.9509,-4.9409,-4.9358,-4.9358,-4.9276,-4.9211,-4.9211,-4.9421,-4.9765,-5.0312,-5.0519,-5.0559,-5.0469,-5.0469,-5.0135,-4.9596,-4.9612,-4.9612,-4.9594,-4.9405,-4.9312,-4.9259,-4.9036,-4.859,-4.7813,-4.6011,-4.5064,-4.4692,0.0,0.0,0.0,0.0,0.0,0.0,0.0,0.0,0.0,0.0,0.0,0.0,0.0,0.0,0.0,0.0,0.0,0.0,0.0,0.0,0.0,0.0,0.0,0.0,0.0,0.0,0.0,0.0,0.0,0.0,0.0,0.0,0.0,0.0,0.0,0.0,-2.8126,-2.8126,-2.8571,-2.9265,-2.9369,-3.0442,-3.1959,-3.1995,-3.1585,-3.0956,-3.0884,0.0,0.0,0.0,-2.8366,-2.9321,-2.7214,-2.7588,0.0,-2.7065,-2.6121,-2.5887,-2.7553,-2.7465,-2.771,-3.0984,-3.1868,-3.2359,-3.3943,-3.434,-3.4629,-3.5488,-3.5741,-3.6274,-3.7828,-3.8177,-3.8525,-3.9408,-4.0215,-4.1004,-4.1841,-4.3362,-4.443,-4.4487,-4.5171,-4.4674,-4.231,-4.504,-4.7627,-4.9265,-4.9471,-4.9509,-4.9509,-4.9509,-4.949,-4.949,-4.9358,-4.9308,-4.9308,-4.9915,-5.0294,-5.0331,-5.1007,-5.1361,-5.1361,-5.1361,-5.1342,-5.1323,-5.1394,-5.1411,-5.1355,-5.0658,-5.0306,-5.0163,-4.9381,-4.9012,-4.8853,-4.8779,-4.7757,-4.642,0.0,0.0,0.0,0.0,0.0,0.0,0.0,0.0,0.0,0.0,0.0,0.0,0.0,0.0,0.0,0.0,0.0,0.0,0.0,0.0,0.0,0.0,0.0,0.0,0.0,0.0,0.0,0.0,0.0,0.0,0.0,0.0,0.0,0.0,0.0,0.0,-2.8273,-2.8209,-2.8425,-2.8882,-2.9332,-3.026,-3.1329,-3.0694,-3.074,-3.082,0.0,0.0,0.0,0.0,-2.6892,-2.7339,-2.718,-2.72,-2.6976,-2.5454,-2.5645,-2.648,-2.7036,-2.8635,-3.0408,-3.157,-3.2646,-3.3599,-3.4209,-3.4787,-3.5291,-3.5571,-3.5717,-3.5932,-3.6403,-3.6101,-3.6414,-3.8346,-3.8439,-3.9527,-4.3136,-4.3173,-4.3849,-4.6617,-4.5677,-4.5367,-4.6843,-4.6963,-4.6757,-4.6223,-4.8251,-4.9509,-4.9509,-4.9509,-4.9509,-4.9509,-4.9459,-4.9703,-5.0228,-5.0445,-5.1073,-5.209,-5.2789,-5.3089,-5.2995,-5.2995,-5.3033,-5.3125,-5.3162,-5.3161,-5.3215,-5.297,-5.2839,-5.2785,-5.2472,-5.1989,-5.1432,-5.1378,-5.032,-4.8742,0.0,0.0,0.0,0.0,0.0,0.0,0.0,0.0,0.0,0.0,0.0,0.0,0.0,0.0,0.0,0.0,0.0,0.0,0.0,0.0,0.0,0.0,0.0,0.0,0.0,0.0,0.0,0.0,0.0,0.0,0.0,0.0,0.0,0.0,0.0,0.0,-2.8291,-2.8237,-2.8452,-2.8846,-2.8416,-2.8972,-2.9909,-2.8476,-2.833,0.0,0.0,0.0,0.0,-2.5239,-2.5687,-2.625,-2.6259,-2.5987,-2.5709,-2.5858,-2.6287,-2.6995,-2.8181,-3.0076,-3.189,-3.2553,-3.3483,-3.4221,-3.4316,-3.4987,-3.5696,-3.6,-3.6614,-3.6906,-3.6235,-3.6189,-3.6686,-3.7959,-3.824,-3.9764,-4.3877,-4.4027,-4.4618,-4.703,-4.609,-4.5892,-4.7556,-4.7293,-4.6561,-4.5472,-4.7105,-4.8288,-4.8589,-4.8307,-4.857,-4.9471,-4.974,-5.0134,-5.0673,-5.1209,-5.2117,-5.3361,-5.3794,-5.3944,-5.3813,-5.3813,-5.3535,-5.3144,-5.3758,-5.3756,-5.334,-5.3955,-5.4181,-5.4164,-5.4128,-5.372,-5.3162,-5.3107,-5.2215,-5.0766,0.0,0.0,0.0,0.0,0.0,0.0,0.0,0.0,0.0,0.0,0.0,0.0,0.0,0.0,0.0,0.0,0.0,0.0,0.0,0.0,0.0,0.0,0.0,0.0,0.0,0.0,0.0,0.0,0.0,0.0,0.0,0.0,0.0,0.0,0.0,0.0,0.0,-2.7923,-2.8405,-2.8905,-2.6603,-2.6639,-2.7781,-2.5461,0.0,0.0,0.0,0.0,0.0,-2.37,-2.4802,-2.595,-2.465,-2.4261,-2.4872,-2.797,-2.7897,-2.7482,-3.0637,-3.1602,-3.213,-3.3783,-3.4197,-3.4197,-3.4197,-3.4976,-3.5863,-3.6608,-3.8085,-3.8733,-3.7042,-3.8003,-3.884,-3.8147,-3.9395,-4.1394,-4.4037,-4.5637,-4.636,-4.5848,-4.639,-4.6266,-4.4881,-4.6204,-4.7105,-4.7012,-4.6317,-4.6261,-4.7087,-4.6336,-4.6993,-4.9415,-5.0145,-5.0576,-5.0748,-5.2233,-5.3327,-5.4,-5.4,-5.3944,-5.3813,-5.3813,-5.2996,-5.1728,-5.3383,-5.3248,-5.2061,-5.3718,-5.434,-5.4308,-5.4289,-5.4183,-5.3982,-5.3982,-5.3386,-5.2382,0.0,0.0,0.0,0.0,0.0,0.0,0.0,0.0,0.0,0.0,0.0,0.0,0.0,0.0,0.0,0.0,0.0,0.0,0.0,0.0,0.0,0.0,0.0,0.0,0.0,0.0,0.0,0.0,0.0,0.0,0.0,0.0,0.0,0.0,0.0,0.0,0.0,-2.4688,-2.4837,-2.4962,0.0,-2.4836,-2.5613,0.0,0.0,0.0,0.0,0.0,0.0,0.0,-2.4057,-2.4962,-2.7057,-2.6581,-2.5502,-2.6878,-2.8341,-2.9555,-2.9754,-3.1654,-3.3629,-3.4012,-3.4173,-3.4221,-3.4269,-3.5477,-3.6248,-3.5179,-3.5399,-3.524,-3.3459,-3.3038,-3.3867,-3.6745,-3.7111,-3.8796,-4.3774,-4.3755,-4.4093,-4.6392,-4.6832,-4.7282,-4.8138,-4.8607,-4.8345,-4.7105,-4.795,-4.8626,-4.8852,-4.8645,-4.8833,-4.9471,-5.0228,-5.0941,-5.1593,-5.323,-5.4046,-5.4055,-5.4055,-5.4,-5.3813,-5.3813,-5.3628,-5.3386,-5.3887,-5.3938,-5.369,-5.4206,-5.4409,-5.4375,-5.4217,-5.411,-5.4073,-5.3926,-5.333,-5.2457,0.0,0.0,0.0,0.0,0.0,0.0,0.0,0.0,0.0,0.0,0.0,0.0,0.0,0.0,0.0,0.0,0.0,0.0,0.0,0.0,0.0,0.0,0.0,0.0,0.0,0.0,0.0,0.0,0.0,0.0,0.0,0.0,0.0,0.0,0.0,0.0,0.0,0.0,0.0,0.0,0.0,0.0,0.0,0.0,0.0,0.0,0.0,0.0,0.0,0.0,0.0,-2.5267,-2.8948,-2.8544,-2.7113,-2.9285,-3.0415,-3.1038,-3.1298,-3.271,-3.4148,-3.4148,-3.4173,-3.4128,-3.3799,-3.4801,-3.5427,-3.4055,-3.4442,-3.4394,-3.2284,-3.244,-3.3773,-3.644,-3.721,-3.9102,-4.3783,-4.3707,-4.411,-4.6692,-4.7012,-4.7669,-4.934,-4.9509,-4.9114,-4.8176,-4.7932,-4.8007,-4.8382,-4.8044,-4.8345,-4.9471,-5.0603,-5.1753,-5.2934,-5.3906,-5.4287,-5.4091,-5.4091,-5.3981,-5.3813,-5.3813,-5.3498,-5.2992,-5.3773,-5.377,-5.3328,-5.4074,-5.4409,-5.439,-5.4287,-5.4163,-5.4091,-5.3981,-5.3591,-5.2958,0.0,0.0,0.0,0.0,0.0,0.0,0.0,0.0,0.0,0.0,0.0,0.0,0.0,0.0,0.0,0.0,0.0,0.0,0.0,0.0,0.0,0.0,0.0,0.0,0.0,0.0,0.0,0.0,0.0,0.0,0.0,0.0,0.0,0.0,0.0,0.0,0.0,0.0,0.0,0.0,0.0,0.0,0.0,0.0,0.0,0.0,0.0,0.0,0.0,0.0,-2.7273,-2.6392,-3.0525,-3.0374,-2.937,-3.2711,-3.2859,-3.2199,-3.3451,-3.3932,-3.4124,-3.4173,-3.4197,-3.4035,-3.3329,-3.3729,-3.3999,-3.3123,-3.4064,-3.4427,-3.2371,-3.3848,-3.5717,-3.6721,-3.8321,-4.0403,-4.3193,-4.4185,-4.5059,-4.6354,-4.6805,-4.7669,-4.934,-4.9252,-4.9215,-4.949,-4.7414,-4.6494,-4.7293,-4.6617,-4.7312,-4.9734,-5.1101,-5.2604,-5.4289,-5.434,-5.4287,-5.4091,-5.4091,-5.3981,-5.3813,-5.3813,-5.3089,-5.1983,-5.3456,-5.3374,-5.2311,-5.3808,-5.439,-5.4375,-5.4375,-5.4252,-5.4091,-5.4055,-5.3944,-5.3571,0.0,0.0,0.0,0.0,0.0,0.0,0.0,0.0,0.0,0.0,0.0,0.0,0.0,0.0,0.0,0.0,0.0,0.0,0.0,0.0,0.0,0.0,0.0,0.0,0.0,0.0,0.0,0.0,0.0,0.0,0.0,0.0,0.0,0.0,0.0,0.0,0.0,0.0,0.0,0.0,0.0,0.0,0.0,0.0,0.0,0.0,0.0,0.0,0.0,0.0,-2.7734,-2.7802,-3.2182,-3.276,-3.1863,-3.2027,-3.2882,-3.3523,-3.2418,-3.3128,-3.4173,-3.4124,-3.4197,-3.4255,-3.4172,-3.3811,-3.3234,-3.2371,-3.1902,-3.1696,-3.1877,-3.2851,-3.4353,-3.663,-3.7839,-3.8732,-3.9271,-4.2337,-4.4364,-4.3989,-4.5754,-4.7669,-4.934,-4.8009,-4.7716,-4.9365,-4.8851,-4.8613,-4.9058,-4.8927,-4.9659,-5.1442,-5.1729,-5.2686,-5.4356,-5.4359,-5.4235,-5.4091,-5.4037,-5.3926,-5.3813,-5.3813,-5.374,-5.3609,-5.3943,-5.4032,-5.3912,-5.4262,-5.4375,-5.4289,-5.4181,-5.411,-5.4019,-5.3888,-5.3851,-5.3571,0.0,0.0,0.0,0.0,0.0,0.0,0.0,0.0,0.0,0.0,-1.2379,0.0,0.0,0.0,0.0,0.0,0.0,0.0,0.0,0.0,0.0,0.0,0.0,0.0,0.0,0.0,-1.6024,-1.4551,0.0,0.0,0.0,-1.6378,-1.6567,-1.6665,0.0,0.0,0.0,0.0,0.0,0.0,0.0,0.0,0.0,0.0,0.0,0.0,0.0,0.0,0.0,0.0,-2.6734,-2.7331,-3.1609,-3.2657,-3.2155,-3.1201,-3.2391,-3.3722,-3.2159,-3.2994,-3.4293,-3.4221,-3.4269,-3.4027,-3.2761,0.0,0.0,-2.9735,-2.9455,-2.9623,-2.9997,-3.0745,-3.2454,-3.5859,-3.7186,-3.8376,-4.0088,-4.2799,-4.4597,-4.4589,-4.5873,-4.7124,-4.8089,-4.7066,-4.6852,-4.8108,-4.7922,-4.8263,-4.9452,-4.9509,-5.0241,-5.1855,-5.1912,-5.27,-5.439,-5.4375,-5.4271,-5.4091,-5.4073,-5.3963,-5.3813,-5.3813,-5.3851,-5.3982,-5.4037,-5.3643,-5.3038,-5.3968,-5.3818,-5.3072,-5.3899,-5.4164,-5.4037,-5.3926,-5.3851,-5.3571,0.0,0.0,0.0,0.0,0.0,0.0,0.0,-1.4333,-1.3779,-1.3281,-1.2529,-1.1991,-1.1949,-1.1912,0.0,0.0,0.0,0.0,0.0,0.0,0.0,0.0,0.0,0.0,0.0,0.0,0.0,-1.4401,-1.6177,0.0,0.0,0.0,0.0,0.0,-1.6218,-1.6368,-1.6574,0.0,0.0,0.0,0.0,-1.8328,0.0,0.0,0.0,0.0,0.0,0.0,0.0,0.0,-2.5552,-2.6242,-2.9518,-3.088,-3.1174,-3.0563,-3.182,-3.3227,-3.2493,-3.3301,-3.4404,-3.434,-3.4363,-3.3829,-3.153,-3.0727,-2.9867,-2.7662,-2.7513,-2.7998,-2.8689,-2.9382,-3.1163,0.0,-3.6133,-3.7551,-4.0866,-4.2723,-4.4229,-4.5396,-4.6102,-4.6744,-4.736,-4.6628,-4.6453,-4.7299,-4.7186,-4.7796,-4.9415,-4.9509,-5.0241,-5.1855,-5.1912,-5.27,-5.439,-5.4375,-5.4287,-5.4091,-5.4091,-5.3981,-5.3813,-5.3813,-5.3851,-5.4,-5.4,-5.3142,-5.1828,-5.3562,-5.3262,-5.1915,-5.3564,-5.4052,-5.3757,-5.3721,-5.3516,-5.3088,0.0,0.0,0.0,0.0,0.0,0.0,0.0,-1.4549,-1.3845,-1.3885,-1.2856,-1.2091,-1.2091,-1.2179,0.0,0.0,0.0,0.0,0.0,0.0,0.0,0.0,0.0,0.0,0.0,0.0,0.0,-1.3681,-1.3836,0.0,0.0,0.0,0.0,0.0,0.0,-1.5946,-1.6588,-1.6613,0.0,0.0,0.0,0.0,0.0,0.0,0.0,0.0,0.0,0.0,0.0,0.0,0.0,-2.5251,-2.575,-2.7183,-2.8972,-3.0555,0.0,0.0,-3.3451,-3.4086,-3.4386,-3.4386,-3.445,-3.4046,-3.236,0.0,-2.9439,-2.8176,-2.6935,-2.6971,-2.9718,-3.0476,-3.1738,-3.5006,0.0,-3.4577,-3.8004,-3.9821,-4.1781,-4.4409,-4.5765,-4.7108,-4.8688,-4.6965,-4.6507,-4.8327,-4.8649,-4.8978,-4.949,-4.9509,-5.0241,-5.1855,-5.1912,-5.27,-5.439,-5.4359,-5.4235,-5.4091,-5.4055,-5.3944,-5.3813,-5.3813,-5.3851,-5.4,-5.4,-5.3142,-5.1828,-5.3454,-5.3084,-5.1689,-5.3366,-5.3498,-5.2754,-5.2717,-5.2252,-5.1491,0.0,0.0,0.0,0.0,0.0,0.0,0.0,-1.4737,-1.4227,-1.3548,-1.2978,-1.2512,-1.2137,-1.2153,0.0,0.0,0.0,0.0,0.0,0.0,0.0,0.0,0.0,0.0,0.0,0.0,-1.5711,-1.4862,-1.5767,0.0,0.0,0.0,0.0,0.0,0.0,-1.5382,-1.6095,-1.6546,0.0,0.0,0.0,0.0,0.0,0.0,0.0,0.0,0.0,0.0,-2.2681,0.0,0.0,0.0,-2.3903,-2.4171,0.0,0.0,-2.8699,-3.1122,-3.1107,-3.2526,-3.4099,-3.4386,-3.4386,-3.3627,-3.0996,0.0,-2.8779,-2.6127,-2.5558,-2.5912,-2.7108,-2.7814,-2.9116,-3.1918,0.0,0.0,-3.8021,-4.0401,-4.2698,-4.5314,-4.6697,-4.7406,-4.7286,-4.6176,-4.5858,-4.6838,-4.6648,-4.7173,-4.8744,-4.9262,-5.0016,-5.1142,-5.1649,-5.2475,-5.3658,-5.4131,-5.4306,-5.42,-5.411,-5.4,-5.3907,-5.3851,-5.3813,-5.3888,-5.3888,-5.2121,-4.9511,-5.2155,-5.1391,-4.8818,-5.1448,-5.2287,-5.1917,-5.1899,-5.1676,-5.1286,0.0,0.0,0.0,0.0,0.0,0.0,-1.5126,-1.4806,-1.4283,-1.348,-1.3016,-1.261,-1.2194,-1.2112,-1.2054,-1.1949,0.0,0.0,0.0,0.0,0.0,0.0,0.0,0.0,0.0,0.0,-1.5679,-1.492,-1.6245,-1.6288,0.0,0.0,-1.5191,-1.4623,0.0,0.0,0.0,0.0,0.0,0.0,0.0,0.0,0.0,0.0,0.0,0.0,0.0,0.0,0.0,0.0,0.0,0.0,0.0,0.0,0.0,0.0,-2.6817,-2.9727,-2.9722,-3.1721,-3.3868,-3.4221,-3.3826,-3.2636,-2.9795,0.0,-2.7666,-2.4547,-2.4421,-2.4959,-2.5136,-2.591,-2.731,0.0,0.0,-3.3062,-3.7248,-3.9773,-4.2193,-4.4916,-4.6195,-4.6813,-4.6709,-4.62,-4.5979,-4.6182,-4.577,-4.6305,-4.8122,-4.8834,-4.9599,-5.0506,-5.1171,-5.1917,-5.2641,-5.3309,-5.3487,-5.32,-5.3291,-5.2957,-5.227,-5.2828,-5.2791,-5.2251,-5.2828,-5.1175,-4.8277,-5.1135,-5.0333,-4.756,-5.0371,-5.1301,-5.1096,-5.1044,-5.0859,-5.058,0.0,0.0,0.0,0.0,0.0,0.0,0.0,-1.4644,-1.3855,-1.396,-1.2947,-1.221,-1.221,-1.2133,-1.2054,-1.2012,0.0,0.0,0.0,0.0,0.0,0.0,0.0,0.0,0.0,0.0,-1.4666,-1.3123,-1.3924,-1.3961,-1.3243,-1.4178,-1.4606,-1.4641,0.0,0.0,0.0,0.0,0.0,0.0,0.0,0.0,0.0,0.0,0.0,0.0,0.0,0.0,0.0,0.0,0.0,0.0,0.0,0.0,0.0,0.0,-2.6415,-2.7781,-3.0305,-3.2356,-3.3807,-3.3807,-3.261,-3.0974,0.0,0.0,-2.5957,-2.4017,-2.3821,-2.4198,-2.4791,-2.5783,-2.7262,-2.9526,-3.102,0.0,-3.4752,-3.6708,-3.9122,-4.2347,-4.345,-4.5007,-4.7801,-4.7591,-4.7248,-4.7219,-4.7201,-4.7355,-4.7769,-4.8198,-4.8936,-5.0077,-5.0511,-5.0904,-5.1323,-5.1678,-5.1414,-5.0629,-5.1232,-5.0361,-4.8239,-5.0435,-5.0398,-4.8661,-5.0583,-5.0469,-4.902,-5.0729,-5.0413,-4.9039,-5.0729,-5.0878,-5.0116,-5.0116,-4.9615,-4.8927,0.0,0.0,0.0,0.0,0.0,0.0,0.0,-1.4764,-1.4242,-1.3409,-1.3016,-1.2639,-1.2179,-1.2153,-1.2112,-1.1949,0.0,0.0,0.0,0.0,0.0,0.0,0.0,0.0,0.0,0.0,-1.4288,-1.4543,-1.4791,-1.4605,-1.4053,-1.4832,-1.4917,-1.4422,-1.5165,-1.5944,0.0,0.0,0.0,0.0,0.0,0.0,-2.1337,0.0,0.0,0.0,0.0,0.0,0.0,0.0,0.0,0.0,0.0,0.0,0.0,0.0,0.0,0.0,-2.7229,-2.8763,-2.999,-3.0344,-2.9892,-2.8948,-2.7373,-2.6645,-2.5737,-2.3738,-2.3508,-2.3665,-2.3667,-2.4884,-2.6491,-2.8371,-2.9822,0.0,-3.6522,-3.8435,-4.0617,-4.381,-4.5263,-4.6327,-4.7124,-4.5587,-4.5125,-4.6646,-4.5186,-4.4973,-4.6738,-4.7158,-4.7674,-4.8488,-4.951,-5.008,-5.0195,-5.0388,-5.0585,-5.078,-5.0483,-4.9396,-4.7756,-4.9398,-4.9252,-4.7852,-4.9638,-4.919,-4.7307,-4.9378,-4.8864,-4.6911,-4.8898,-4.9451,-4.9084,-4.9245,-4.9132,-4.8909,0.0,0.0,0.0,0.0,0.0,0.0,0.0,-1.4833,-1.4384,-1.3861,-1.3191,-1.27,-1.2531,-1.2328,-1.2138,-1.1991,0.0,0.0,0.0,0.0,0.0,0.0,0.0,0.0,0.0,-1.3961,-1.4202,-1.4614,-1.5152,-1.5119,-1.4519,-1.5346,-1.5467,-1.5047,-1.5863,-1.649,0.0,0.0,0.0,0.0,0.0,0.0,-2.1187,0.0,0.0,0.0,0.0,0.0,0.0,0.0,0.0,0.0,0.0,0.0,0.0,0.0,-2.3129,-2.3513,0.0,-2.703,-2.8191,-2.8507,-2.8005,0.0,-2.6255,-2.5548,-2.4712,-2.3459,-2.3797,-2.4093,-2.3249,-2.5014,-2.6703,-2.7059,-2.9819,-3.2677,-3.487,-3.7327,-3.9832,-4.2436,-4.4662,-4.6138,-4.6442,-4.517,-4.4876,-4.6147,-4.4773,-4.4533,-4.6116,-4.6484,-4.6756,-4.707,-4.8225,-4.8779,-4.862,-4.8805,-4.8974,-4.9119,-4.8924,-4.7893,-4.6219,-4.7913,-4.7769,-4.6342,-4.8161,-4.8085,0.0,-4.8166,-4.7751,-4.6317,-4.7657,-4.8062,-4.7886,-4.8025,-4.8254,-4.8495,0.0,0.0,0.0,0.0,0.0,0.0,0.0,0.0,0.0,0.0,-1.3429,-1.2519,-1.3128,-1.2602,0.0,0.0,0.0,0.0,0.0,0.0,0.0,0.0,0.0,0.0,0.0,-1.3951,-1.4285,-1.3595,-1.5025,-1.5383,-1.4722,-1.5648,-1.6118,-1.6203,-1.7215,-1.7675,0.0,0.0,0.0,0.0,0.0,0.0,0.0,0.0,0.0,0.0,0.0,0.0,0.0,0.0,0.0,0.0,0.0,0.0,0.0,0.0,0.0,0.0,0.0,-2.6659,-2.7761,-2.7733,-2.6677,-2.561,-2.5636,0.0,0.0,-2.3334,-2.4597,-2.5189,-2.3541,-2.603,-2.7735,-2.5959,-3.0747,-3.3741,-3.1036,-3.4375,-3.7603,-3.9133,-4.2326,-4.4805,-4.5725,-4.6035,-4.6005,-4.5615,-4.5581,-4.5667,-4.5735,-4.6147,-4.613,-4.5786,-4.672,-4.7104,-4.6774,-4.7052,-4.6856,-4.6059,-4.6756,-4.5863,-4.3769,-4.606,-4.6007,-4.4307,-4.6275,-4.7106,-4.7106,-4.715,-4.7088,-4.6955,-4.6981,-4.6856,-4.6712,-4.6712,-4.7111,-4.7729,0.0,0.0,0.0,0.0,0.0,0.0,0.0,0.0,0.0,0.0,0.0,-1.3021,-1.3175,-1.2596,0.0,0.0,0.0,0.0,0.0,0.0,0.0,0.0,0.0,0.0,0.0,-1.3712,-1.3791,-1.3674,-1.4508,-1.4819,-1.4722,-1.5495,-1.5863,-1.5919,-1.6743,-1.7485,0.0,0.0,0.0,0.0,0.0,0.0,0.0,0.0,0.0,0.0,-2.2073,-2.2226,0.0,0.0,0.0,0.0,0.0,0.0,0.0,0.0,-2.2013,-2.1251,-2.3259,0.0,-2.441,-2.431,-2.4028,-2.3837,0.0,0.0,0.0,0.0,0.0,0.0,-2.482,-2.7373,-2.9105,-2.7593,-3.0929,-3.36,-3.328,-3.7071,-3.9953,-4.0155,-4.3412,-4.5166,-4.4118,-4.5041,-4.5667,-4.5476,-4.5423,-4.5476,-4.5511,-4.5598,-4.558,-4.5511,-4.5768,-4.6049,-4.6478,-4.6484,-4.587,-4.4686,-4.5425,-4.4327,-4.17,-4.455,-4.495,-4.3545,-4.5338,-4.6133,-4.6182,-4.6642,-4.6707,-4.6584,-4.6882,-4.6864,-4.6699,-4.6684,-4.6802,-4.6936,0.0,0.0,0.0,0.0,0.0,0.0,0.0,0.0,0.0,0.0,0.0,0.0,0.0,0.0,0.0,0.0,0.0,0.0,0.0,0.0,0.0,0.0,0.0,0.0,-1.3239,-1.3498,-1.3653,-1.3711,-1.4697,-1.5215,-1.527,-1.6024,-1.6361,-1.6434,-1.7142,0.0,0.0,0.0,0.0,0.0,-2.061,0.0,0.0,0.0,0.0,0.0,-2.1899,-2.1998,0.0,-2.2281,-2.248,-2.2685,0.0,0.0,0.0,0.0,-2.2013,-2.1141,-2.2752,-2.3217,-2.3417,-2.403,-2.3721,-2.3442,0.0,0.0,0.0,0.0,0.0,0.0,0.0,0.0,-2.8793,-2.7959,-3.0369,-3.3055,-3.5066,-3.7708,-3.968,-4.0315,-4.2329,-4.3583,-4.3429,-4.4681,-4.5476,-4.5423,-4.5423,-4.5423,-4.5423,-4.5423,-4.5423,-4.5423,-4.5667,-4.5819,-4.5918,-4.587,-4.4928,-4.3232,-4.4697,-4.4009,-4.1492,-4.4199,-4.4975,-4.4199,-4.4473,-4.5008,-4.5597,-4.5219,-4.5341,-4.5786,-4.6017,-4.595,-4.5734,-4.5715,-4.5944,-4.6217,0.0,0.0,0.0,0.0,0.0,0.0,0.0,0.0,0.0,0.0,0.0,0.0,0.0,0.0,0.0,0.0,0.0,0.0,0.0,0.0,0.0,0.0,0.0,-1.2655,-1.2722,-1.35,-1.3913,-1.3913,-1.5356,-1.6072,-1.6088,-1.6718,-1.7074,-1.7261,-1.7844,-1.8216,0.0,0.0,-1.9743,-1.9423,-2.0512,0.0,0.0,0.0,0.0,0.0,0.0,0.0,0.0,-2.2287,-2.2415,-2.2453,-2.2609,0.0,0.0,0.0,0.0,0.0,-2.2746,-2.3193,-2.3562,-2.5112,-2.4388,-2.3696,0.0,0.0,0.0,0.0,0.0,0.0,0.0,-2.7611,-2.8741,-2.7853,-2.9755,-3.2634,-3.6309,-3.7463,-3.8442,-3.9844,-4.0955,-4.2089,-4.3259,-4.4595,-4.5423,-4.5423,-4.5423,-4.5423,-4.5423,-4.5423,-4.5423,-4.5423,-4.5854,-4.5854,-4.5423,-4.5476,-4.4422,-4.2199,-4.432,-4.4217,-4.2233,-4.4372,-4.5371,-4.5302,-4.4061,-4.4251,-4.532,-4.4044,-4.4165,-4.5032,-4.5032,-4.4886,-4.4626,-4.4643,-4.4981,-4.5459,0.0,0.0,0.0,0.0,0.0,0.0,0.0,0.0,0.0,0.0,0.0,0.0,0.0,0.0,0.0,0.0,0.0,0.0,0.0,0.0,0.0,0.0,-1.2773,-1.2794,-1.2871,-1.4128,-1.4805,-1.4805,-1.6152,-1.6831,-1.6831,-1.6944,-1.7307,-1.7867,-1.8028,-1.8683,-1.9709,-1.9978,-2.0349,-2.0799,-2.0975,0.0,0.0,0.0,0.0,0.0,0.0,0.0,0.0,-2.1969,-2.2084,-2.2023,-2.1721,0.0,0.0,0.0,0.0,0.0,-2.2632,-2.3119,-2.3488,-2.5015,-2.4312,-2.3622,-2.5156,0.0,0.0,0.0,0.0,0.0,0.0,-3.0953,-3.2437,-2.8363,-3.0147,-3.3158,-3.6339,-3.7934,-3.8816,-3.8989,-4.2497,-4.4456,-4.3318,-4.4544,-4.5423,-4.5423,-4.5423,-4.5423,-4.5423,-4.5423,-4.5423,-4.5423,-4.5476,-4.5459,-4.5423,-4.5854,-4.5035,-4.3009,-4.4526,-4.4371,-4.2841,-4.4333,-4.514,-4.523,-4.4989,-4.5094,-4.5406,-4.5182,-4.5164,-4.5318,-4.5086,-4.4978,-4.494,-4.4682,-4.4682,-4.4759,0.0,0.0,0.0,0.0,0.0,0.0,0.0,0.0,0.0,0.0,0.0,0.0,0.0,0.0,0.0,0.0,0.0,0.0,0.0,0.0,0.0,0.0,-1.2885,-1.2906,-1.2889,-1.3916,-1.4451,-1.4409,-1.5893,-1.6571,-1.6516,-1.7295,-1.8032,-1.8718,-1.9107,-1.9628,-2.0185,-2.0539,-2.0878,-2.1151,0.0,0.0,0.0,0.0,0.0,0.0,0.0,0.0,0.0,0.0,-2.1899,-2.1824,-2.1363,0.0,0.0,0.0,0.0,0.0,-2.2487,-2.2876,-2.3476,-2.6023,-2.4927,-2.4038,-2.7267,0.0,0.0,0.0,0.0,0.0,0.0,-2.9598,-3.0803,-3.0234,-3.3349,-3.6225,-3.7202,-3.8276,-3.9373,-4.0516,-4.2497,-4.3625,-4.3249,-4.4527,-4.5423,-4.5423,-4.5423,-4.5423,-4.5423,-4.5423,-4.5423,-4.5423,-4.5423,-4.5423,-4.5423,-4.5546,-4.461,-4.2543,-4.4423,-4.4233,-4.2379,-4.4249,-4.5086,-4.5035,-4.4213,-4.4386,-4.5249,-4.4406,-4.4561,-4.5247,-4.5086,-4.494,-4.4886,-4.4682,-4.4587,-4.4587,0.0,0.0,0.0,0.0,0.0,0.0,0.0,0.0,0.0,0.0,0.0,0.0,0.0,0.0,0.0,0.0,0.0,0.0,0.0,0.0,-1.2732,-1.2848,-1.2959,-1.3013,-1.2942,-1.3683,-1.4025,-1.3969,-1.555,-1.644,-1.6684,-1.7909,-1.886,-1.9593,-2.0105,-2.0386,-2.0564,-2.1021,-2.123,-2.123,0.0,0.0,0.0,0.0,0.0,0.0,0.0,0.0,0.0,0.0,0.0,0.0,0.0,0.0,0.0,-2.0713,-2.0847,-2.1214,-2.2285,-2.2588,-2.3305,-2.6225,0.0,-2.44,-2.9035,-2.6518,0.0,0.0,0.0,0.0,0.0,-2.8523,-2.9628,-3.2791,-3.605,-3.8268,-3.8624,-3.8921,-3.9919,-4.1973,-4.2514,-4.2933,-4.3421,-4.4647,-4.5423,-4.5423,-4.5423,-4.5423,-4.5423,-4.5423,-4.5423,-4.5423,-4.5423,-4.5371,-4.5371,-4.5247,-4.4371,-4.2752,-4.4475,-4.4284,-4.2552,-4.4299,-4.5032,-4.4872,-4.3695,-4.3955,-4.5037,-4.3871,-4.413,-4.5177,-4.5032,-4.4886,-4.4737,-4.4626,-4.4587,-4.4587,0.0,0.0,0.0,0.0,0.0,0.0,0.0,0.0,0.0,0.0,0.0,0.0,0.0,0.0,0.0,0.0,0.0,0.0,0.0,0.0,-1.2906,-1.2995,-1.3049,-1.3084,-1.3084,-1.3812,-1.4192,-1.4192,-1.5669,-1.7014,-1.825,-1.8968,-1.9666,-2.0326,-2.0375,-2.0705,-2.1244,-2.1261,-2.1277,-2.1277,-2.1277,0.0,0.0,0.0,0.0,0.0,0.0,0.0,0.0,0.0,0.0,0.0,0.0,0.0,-1.9281,-1.9536,-2.0097,-2.0877,-2.1933,-2.2237,-2.2638,-2.4309,-2.3922,0.0,-2.9035,-2.6416,0.0,-2.9198,0.0,0.0,-2.9779,-3.0586,-3.2195,-3.6022,-3.6103,-3.6932,-4.063,-4.0273,-4.0354,-4.2154,-4.34,-4.4198,-4.4369,-4.501,-4.5423,-4.5423,-4.5423,-4.5423,-4.5423,-4.5423,-4.5423,-4.5423,-4.5423,-4.5371,-4.5247,-4.5177,-4.5108,-4.4989,-4.491,-4.4746,-4.4593,-4.4614,-4.4682,-4.4831,-4.4729,-4.4783,-4.5032,-4.4912,-4.4984,-4.5177,-4.494,-4.4737,-4.4626,-4.457,-4.4587,-4.4587,0.0,0.0,0.0,0.0,0.0,0.0,0.0,0.0,0.0,0.0,0.0,0.0,0.0,0.0,0.0,0.0,0.0,0.0,0.0,0.0,-1.3599,-1.3606,-1.3725,-1.3855,-1.4046,-1.413,-1.4609,-1.5435,-1.7265,-1.8653,-1.9633,-1.987,-2.0316,-2.0951,-2.0951,-2.1097,-2.1371,-2.1309,-2.1309,-2.1371,-2.1371,-2.134,0.0,0.0,0.0,0.0,0.0,0.0,0.0,0.0,-2.0606,-2.0129,0.0,0.0,-1.9809,-1.991,-2.0456,-2.1166,-2.177,-2.2068,-2.2784,-2.5251,-2.4391,0.0,0.0,-2.6909,-2.5634,-3.0562,-2.875,-2.694,-2.893,-3.1427,-3.3977,-3.6427,-3.7666,-3.8834,-4.0277,-4.0179,-4.0516,-4.1964,-4.2656,-4.335,-4.4301,-4.4595,-4.4906,-4.5389,-4.5423,-4.5423,-4.5423,-4.5423,-4.5423,-4.5423,-4.5423,-4.5371,-4.53,-4.514,-4.5086,-4.5086,-4.4978,-4.4886,-4.4776,-4.4831,-4.4831,-4.4776,-4.4886,-4.4978,-4.5123,-4.5123,-4.5194,-4.53,-4.5049,-4.4831,-4.4737,-4.4626,-4.4587,-4.4587,0.0,0.0,0.0,0.0,0.0,0.0,0.0,0.0,0.0,0.0,0.0,0.0,0.0,0.0,0.0,0.0,0.0,0.0,0.0,-1.3924,-1.4047,-1.4056,-1.4144,-1.4311,-1.4528,-1.4336,-1.4885,-1.6258,-1.8294,-1.9674,-2.042,-2.0635,-2.0933,-2.134,-2.1388,-2.1402,-2.1464,-2.1402,-2.1402,-2.1464,-2.1464,-2.1433,0.0,0.0,0.0,0.0,0.0,0.0,0.0,0.0,-2.0127,-1.9793,0.0,0.0,0.0,0.0,-2.0805,-2.1495,-2.1738,-2.194,-2.2702,-2.5355,0.0,0.0,-2.8518,-2.722,-2.6276,-3.0742,-2.9734,-2.8386,-2.9624,-3.2581,-3.5269,-3.6561,-3.8265,-3.9625,-4.0266,-4.0207,-4.0474,-4.1618,-4.1998,-4.2521,-4.3508,-4.3836,-4.4147,-4.4682,-4.4923,-4.5061,-4.5061,-4.5285,-4.5423,-4.5423,-4.5182,-4.5009,-4.5009,-4.4487,-4.426,-4.4224,-4.4224,-4.4426,-4.4737,-4.4831,-4.4831,-4.4776,-4.4886,-4.5032,-4.514,-4.514,-4.5194,-4.5264,-4.514,-4.494,-4.4776,-4.4682,-4.4626,-4.4587,0.0,0.0,0.0,0.0,0.0,0.0,0.0,0.0,0.0,0.0,0.0,0.0,0.0,0.0,0.0,0.0,0.0,0.0,0.0,-1.4017,-1.4129,-1.4199,-1.4223,-1.4271,-1.4437,-1.4397,-1.5026,-1.642,-1.8482,-1.986,-2.0524,-2.1245,-2.1542,-2.1417,-2.1559,-2.1606,-2.1589,-2.1606,-2.1606,-2.1589,-2.1589,-2.1589,-2.1589,0.0,0.0,0.0,0.0,0.0,0.0,0.0,-1.9874,-1.92,0.0,0.0,0.0,0.0,-2.1032,-2.1797,-2.1814,-2.1797,-2.2249,0.0,0.0,0.0,-2.8385,-2.7203,-2.5969,-2.9394,-3.1999,-3.3407,-3.2529,-3.4266,-3.6075,-3.6865,-3.7475,-3.8659,-4.1049,-4.0537,-4.0238,-4.1105,-4.1652,-4.204,-4.2154,-4.2815,-4.3214,-4.3214,-4.3905,-4.4268,-4.4268,-4.4992,-4.5406,-4.5406,-4.4665,-4.4217,-4.4061,-4.3151,-4.2619,-4.2532,-4.2532,-4.3206,-4.4553,-4.4553,-4.4665,-4.4759,-4.4759,-4.4869,-4.4961,-4.4978,-4.4978,-4.5032,-4.514,-4.5032,-4.4776,-4.4776,-4.4737,-4.4587,0.0,0.0,0.0,0.0,0.0,0.0,0.0,0.0,0.0,0.0,0.0,0.0,0.0,0.0,0.0,0.0,0.0,0.0,0.0,-1.4674,-1.4732,-1.4703,-1.5316,-1.5786,-1.6015,-1.7368,-1.7892,-1.7455,-1.9825,-2.1095,-2.1278,-2.1491,-2.1589,-2.156,-2.2246,-2.21,-2.1374,-2.2212,-2.2084,-2.134,-2.1573,-2.1634,-2.162,0.0,0.0,0.0,0.0,0.0,0.0,0.0,0.0,0.0,0.0,0.0,0.0,-2.2151,-2.2069,-2.1693,-2.2769,-2.2573,0.0,-2.3744,0.0,0.0,0.0,-2.6202,0.0,0.0,-3.04,-3.123,-3.1375,-3.4281,-3.69,-3.7591,-3.9273,-4.0666,-4.1168,-4.1018,-4.0874,-4.0977,-4.1108,-4.1471,-4.2006,-4.2247,-4.2578,-4.318,-4.3421,-4.356,-4.356,-4.3716,-4.3837,-4.3837,-4.3613,-4.3459,-4.3306,-4.298,-4.2757,-4.2619,-4.2619,-4.2805,-4.3141,-4.3337,-4.3442,-4.3477,-4.3615,-4.3683,-4.3769,-4.4285,-4.4766,-4.514,-4.5086,-4.5032,-4.494,-4.4737,-4.4626,-4.4587,0.0,0.0,0.0,0.0,0.0,0.0,0.0,0.0,0.0,0.0,0.0,0.0,0.0,0.0,0.0,0.0,0.0,0.0,0.0,0.0,-1.5506,-1.5053,-1.5797,-1.6305,-1.6513,-1.8176,-1.8842,-1.8322,-2.0302,-2.1246,-2.1214,-2.1246,-2.1246,-2.1215,-2.1867,-2.1704,-2.1103,-2.1816,-2.1722,-2.1071,-2.1277,-2.1277,-2.123,0.0,0.0,0.0,0.0,0.0,0.0,0.0,0.0,0.0,0.0,0.0,0.0,-2.2573,-2.2622,-2.2605,-2.3506,-2.3336,0.0,-2.5562,-2.5448,-2.4991,-2.5575,0.0,0.0,-3.0041,-3.1027,-3.1652,-3.2354,-3.4966,-3.7338,-3.8345,-3.9956,-4.1121,-4.1265,-4.1226,-4.1105,-4.0982,-4.0935,-4.106,-4.1509,-4.1543,-4.175,-4.2233,-4.2593,-4.2699,-4.2699,-4.3059,-4.3214,-4.3214,-4.2921,-4.2699,-4.2599,-4.224,-4.1986,-4.1885,-4.1885,-4.1835,-4.1818,-4.2484,-4.286,-4.2911,-4.3097,-4.3214,-4.3249,-4.3698,-4.4268,-4.4836,-4.4747,-4.4829,-4.4978,-4.4831,-4.4682,-4.4587,0.0,0.0,0.0,0.0,0.0,0.0,0.0,0.0,0.0,0.0,0.0,0.0,0.0,0.0,0.0,0.0,0.0,0.0,0.0,0.0,-1.6369,-1.5463,-1.5998,-1.6348,-1.6474,-1.7646,-1.8509,-1.9015,-2.0215,-2.0712,-2.0597,-2.0712,-2.0712,-2.0597,-2.0821,-2.0872,-2.0761,-2.0887,-2.084,-2.0667,-2.0699,-2.0586,-2.0475,-2.0879,0.0,0.0,0.0,0.0,0.0,0.0,0.0,0.0,0.0,0.0,0.0,-2.2161,-2.2894,-2.4066,-2.4166,0.0,0.0,-2.8083,-2.6652,0.0,-2.71,-2.7709,-2.8693,-3.1706,-3.2774,-3.3476,-3.4407,-3.5829,-3.7356,-3.8866,-3.9781,-4.0552,-4.1188,-4.118,-4.1111,-4.1093,-4.0982,-4.0888,-4.0888,-4.0888,-4.0888,-4.0888,-4.1509,-4.1888,-4.1888,-4.2561,-4.3007,-4.3007,-4.2268,-4.1888,-4.1888,-4.1137,-4.0697,-4.0697,-4.0697,-4.0697,-4.0748,-4.2004,-4.2603,-4.2755,-4.289,-4.3009,-4.3061,-4.3061,-4.3509,-4.4165,-4.4165,-4.4474,-4.493,-4.4875,-4.4763,-4.4643,0.0,0.0,0.0,0.0,0.0,0.0,0.0,0.0,0.0,0.0,0.0,0.0,0.0,0.0,0.0,0.0,0.0,0.0,0.0,0.0,-1.681,-1.7071,-1.7504,-1.8019,-1.8621,-1.9111,-1.9331,-1.9228,-2.0299,-2.0712,-2.0514,-2.0712,-2.0712,-2.0561,-2.1492,-2.1312,-2.0388,-2.145,-2.0972,-1.9474,-1.9797,-1.9563,-1.9044,-1.9135,-1.9666,0.0,0.0,0.0,0.0,0.0,0.0,0.0,-2.1253,-2.1732,-2.2259,-2.3144,-2.3556,-2.3998,-2.5287,-2.4795,0.0,0.0,-2.4822,-2.5618,-3.0227,-3.0124,-2.9574,-3.146,-3.1324,-3.1423,-3.3389,-3.5021,-3.6373,-3.7338,-3.908,-4.0315,-4.0384,-4.0804,-4.1047,-4.0935,-4.0935,-4.0888,-4.0888,-4.0888,-4.0888,-4.0888,-4.1026,-4.1129,-4.1129,-4.1285,-4.1371,-4.1371,-4.1216,-4.1082,-4.0985,-4.0927,-4.0793,-4.0697,-4.0793,-4.084,-4.084,-4.1168,-4.1306,-4.1306,-4.1371,-4.165,-4.2102,-4.2184,-4.2632,-4.3202,-4.3202,-4.3632,-4.4266,-4.3983,-4.4249,-4.4737,0.0,0.0,0.0,0.0,0.0,0.0,0.0,0.0,0.0,0.0,0.0,0.0,0.0,0.0,0.0,0.0,0.0,0.0,0.0,0.0,0.0,-1.7664,-1.7605,-1.7892,-1.8614,-1.8797,-1.898,-1.9168,-1.9711,-1.998,0.0,0.0,0.0,-2.015,-2.063,-2.0503,-1.999,-2.0704,-2.0167,-1.8876,-1.9109,-1.8759,-1.8097,-1.864,-1.9264,-1.9923,-2.0444,0.0,0.0,0.0,0.0,0.0,0.0,0.0,-2.278,-2.2878,-2.3293,-2.3933,-2.4757,0.0,0.0,-2.5977,0.0,-2.8166,-3.0282,-3.0645,-3.0712,-3.1504,-3.1429,-3.1668,-3.3213,-3.446,-3.5615,-3.6716,-3.8157,-3.9321,-3.9919,-4.0124,-4.041,-4.0836,-4.0776,-4.0776,-4.0888,-4.0888,-4.0888,-4.0888,-4.0888,-4.0888,-4.0888,-4.0888,-4.0888,-4.0888,-4.0888,-4.0888,-4.0793,-4.0888,-4.0871,-4.0793,-4.0888,-4.0888,-4.0888,-4.0888,-4.0888,-4.0888,-4.0888,-4.1112,-4.136,-4.1457,-4.1857,-4.2462,-4.2462,-4.2893,-4.3563,-4.3767,-4.4053,-4.4409,0.0,0.0,0.0,0.0,0.0,0.0,0.0,0.0,0.0,0.0,0.0,0.0,0.0,0.0,0.0,0.0,0.0,0.0,0.0,0.0,0.0,0.0,-1.7441,-1.7498,-1.8041,-1.8136,-1.8432,-1.8993,-1.904,0.0,0.0,0.0,0.0,-1.9886,0.0,-1.9731,-1.9654,-1.9654,-1.917,-1.8386,-1.8435,-1.7948,-1.7346,-1.8248,-1.8943,-1.9529,-2.0384,-2.11,-2.1691,-2.1691,0.0,0.0,0.0,0.0,-2.3388,-2.2145,-2.2778,-2.3885,0.0,0.0,-2.6336,-2.8073,-2.9331,0.0,-2.9482,-3.0228,-3.1165,-3.1514,-3.202,-3.2581,-3.3196,-3.395,-3.4914,-3.6199,-3.7056,-3.8009,-3.9282,-3.9238,-3.9504,-4.05,-4.0275,-4.0292,-4.0853,-4.0647,-4.0496,-4.0664,-4.056,-4.0474,-4.0474,-4.0474,-4.0543,-4.0664,-4.0681,-4.075,-4.0888,-4.0888,-4.0888,-4.0888,-4.0888,-4.0888,-4.0888,-4.0888,-4.0888,-4.0888,-4.0888,-4.0888,-4.0888,-4.0888,-4.125,-4.1802,-4.1802,-4.2201,-4.2841,-4.3443,-4.3682,-4.3799,0.0,0.0,0.0,0.0,0.0,0.0,0.0,0.0,0.0,0.0,0.0,0.0,0.0,0.0,0.0,0.0,0.0,0.0,-1.9992,0.0,0.0,-1.8419,-1.847,-1.8584,-1.8669,-1.8858,-1.8902,-1.8836,0.0,0.0,0.0,0.0,0.0,-2.0606,0.0,-2.0682,-1.945,-1.945,-1.8756,-1.7648,-1.7466,-1.7052,-1.653,-1.6574,-1.7605,-1.9058,-1.9101,-2.0016,-2.1197,-2.1197,-2.1477,0.0,0.0,0.0,-2.2046,-2.1847,-2.2747,-2.3835,0.0,0.0,-2.6445,0.0,-2.7512,-2.725,0.0,-2.961,-2.8998,-3.0813,-3.1839,-3.2423,-3.2529,-3.309,-3.3841,-3.4661,-3.5884,-3.6911,-3.7558,-3.8083,-3.8692,-3.9491,-3.8806,-3.8955,-4.075,-3.9512,-3.8968,-3.9802,-3.9267,-3.8905,-3.8905,-3.8905,-3.9198,-3.9836,-3.9853,-4.0181,-4.0871,-4.0888,-4.0888,-4.0888,-4.0888,-4.0888,-4.0888,-4.0888,-4.0888,-4.0888,-4.0888,-4.0888,-4.0888,-4.0888,-4.094,-4.1026,-4.1026,-4.1492,-4.2098,-4.197,-4.233,-4.2927,0.0,0.0,0.0,0.0,0.0,0.0,0.0,0.0,0.0,0.0,0.0,0.0,0.0,0.0,0.0,-1.939,-2.0021,-2.0245,-1.988,-1.9502,-1.9042,-1.8506,-1.8581,-1.8606,-1.8606,-1.8736,-1.8736,-1.8606,0.0,0.0,0.0,-2.1917,-2.1714,0.0,0.0,0.0,0.0,-2.0171,-1.9229,-1.7311,-1.7831,-1.7309,-1.6265,-1.7206,-1.8078,-1.8955,-1.9368,-2.0249,-2.1214,-2.1214,-2.1462,-2.1797,-2.1797,0.0,0.0,0.0,-2.2214,-2.3059,-2.466,-2.4939,-2.5497,0.0,-2.7512,-2.6499,-2.965,-2.9132,-2.8491,-3.0285,-3.1089,-3.1435,-3.1435,-3.2659,-3.3567,-3.3274,-3.5048,-3.6523,-3.6551,-3.703,-3.7704,-3.8469,-3.8027,-3.8077,-3.9105,-3.8547,-3.8461,-3.9448,-3.9238,-3.9284,-3.9853,-3.9457,-3.9353,-3.9681,-3.9301,-3.925,-3.9595,-3.9595,-3.9802,-4.0215,-4.0664,-4.0888,-4.0888,-4.0888,-4.0888,-4.0888,-4.0888,-4.0888,-4.0888,-4.0888,-4.0888,-4.0888,-4.0888,-4.1078,-4.1423,-4.169,-4.2051,-4.2396,0.0,0.0,0.0,0.0,0.0,0.0,0.0,0.0,0.0,0.0,0.0,0.0,0.0,0.0,0.0,0.0,-2.0245,-2.0274,-1.9487,-1.9168,-1.8875,-1.857,-1.8517,-1.8517,-1.8517,-1.8517,-1.8517,0.0,0.0,0.0,-2.1735,-2.2275,-2.2159,0.0,-2.2275,-2.1686,0.0,-2.0852,-1.9895,-1.7948,-1.8664,-1.8007,-1.6704,-1.7949,-1.8649,-1.9001,-1.9637,-2.0326,-2.099,-2.099,-2.1293,-2.1661,-2.1661,-2.1738,0.0,0.0,0.0,-2.2361,0.0,0.0,-2.4587,-2.807,-2.6935,-2.5621,-2.8075,-2.7842,-2.7535,-2.9105,-2.9812,-3.0126,-3.0126,-3.1806,-3.2929,-3.2239,-3.4018,-3.5483,-3.5335,-3.5779,-3.6434,-3.7195,-3.7011,-3.7114,-3.7821,-3.7486,-3.7665,-3.8666,-3.8529,-3.8807,-3.9588,-3.9072,-3.8894,-3.9129,-3.8594,-3.8405,-3.8594,-3.8594,-3.887,-3.9422,-4.0008,-4.0388,-4.0578,-4.0578,-4.0698,-4.0888,-4.0888,-4.0888,-4.0888,-4.0888,-4.0888,-4.0888,-4.0888,-4.0888,-4.094,-4.1509,-4.1667,-4.1722,0.0,0.0,0.0,0.0,0.0,0.0,0.0,0.0,0.0,0.0,0.0,0.0,-2.0288,-2.085,-2.0948,-2.04,-2.0878,-2.0796,-1.9679,-1.8936,-1.8584,-1.8687,-1.8556,0.0,-1.8517,-1.8517,-1.8517,0.0,0.0,0.0,-2.0512,-2.1696,-2.2282,-2.2469,-2.274,-2.2696,-2.2298,0.0,0.0,0.0,-1.9695,-1.9013,-1.8177,-1.8014,-1.8476,-1.9244,-1.9161,-1.9603,-2.017,-2.017,-2.0679,-2.1325,-2.1325,-2.1556,-2.1797,0.0,0.0,0.0,0.0,-2.3934,0.0,-2.566,-2.4661,-2.3719,-2.5112,-2.5012,-2.5041,-2.6756,-2.7917,-2.8591,-2.8591,-3.0054,-3.1404,-3.1842,-3.2422,-3.2957,-3.3465,-3.4167,-3.4868,-3.5639,-3.5328,-3.5785,-3.7719,-3.6417,-3.5849,-3.684,-3.6214,-3.5943,-3.6258,-3.6224,-3.662,-3.7577,-3.756,-3.787,-3.8577,-3.8594,-3.8612,-3.8646,-3.8681,-3.9077,-3.975,-3.975,-4.0164,-4.0888,-4.0888,-4.0888,-4.0888,-4.0888,-4.0888,-4.0888,-4.0888,-4.0888,-4.0888,-4.0796,-4.0765,-4.0868,0.0,0.0,0.0,0.0,0.0,0.0,0.0,0.0,0.0,0.0,0.0,0.0,0.0,-2.1189,-2.1386,-2.1524,-2.1032,-2.0218,-1.8965,-1.8644,-1.8517,-1.8556,-1.8517,-1.8517,-1.8517,-1.8517,-1.8517,0.0,0.0,-1.9164,-2.0414,-2.0836,-2.1499,-2.2395,-2.4092,-2.353,-2.1397,-2.258,-2.1311,-1.8703,-2.0797,-2.0124,-1.8012,-1.9358,-2.0041,-2.0114,-1.9368,-1.9929,-2.0911,-2.0218,-2.0465,-2.1119,-2.1119,-2.1355,-2.1664,-2.1664,-2.1542,-2.1728,-2.3176,0.0,0.0,-2.4686,-2.339,-2.2172,-2.4374,-2.4639,-2.4616,-2.5346,-2.7186,-2.831,-2.7288,-2.9,-3.0549,-3.0457,-3.1689,-3.2614,-3.2471,-3.311,-3.3638,-3.3712,-3.3611,-3.3964,-3.5148,-3.4688,-3.5027,-3.6688,-3.5639,-3.5732,-3.7566,-3.626,-3.6096,-3.7439,-3.6991,-3.6853,-3.7111,-3.7629,-3.787,-3.7887,-3.8353,-3.8732,-3.9008,-3.9474,-3.9853,-4.0146,-4.0664,-4.0888,-4.0888,-4.0888,-4.0888,-4.0888,-4.0888,-4.0888,-4.0871,-4.084,-4.084,-4.0827,0.0,0.0,0.0,0.0,0.0,0.0,0.0,0.0,0.0,0.0,0.0,0.0,0.0,0.0,-2.1626,-2.158,-2.047,-1.9417,-1.8613,-1.8517,-1.8517,-1.8556,-1.8517,-1.8517,-1.8517,-1.8464,-1.8464,0.0,0.0,0.0,0.0,-2.0203,-2.0821,-2.1678,-2.373,-2.3618,0.0,-2.3609,-2.2597,-2.0034,-2.1853,-2.1225,-1.9355,-2.0398,-2.0754,-2.0641,-2.0335,-2.0721,-2.1296,-2.0995,-2.1094,-2.1374,-2.1426,-2.1504,-2.1589,-2.1497,-2.1341,-2.1408,-2.2309,0.0,0.0,0.0,-2.2063,-2.1045,-2.282,-2.3801,-2.4385,-2.4451,-2.6636,-2.8184,-2.7103,-2.8295,-2.9407,-2.9259,-3.0672,-3.1719,-3.1357,-3.2109,-3.2637,-3.2447,-3.2663,-3.2968,-3.3375,-3.3499,-3.4113,-3.5419,-3.4813,-3.5254,-3.7222,-3.6122,-3.5958,-3.706,-3.6577,-3.6301,-3.6301,-3.6818,-3.7094,-3.7094,-3.7577,-3.7956,-3.8232,-3.8732,-3.9215,-3.9715,-4.025,-4.0629,-4.0888,-4.0888,-4.0888,-4.0888,-4.0888,-4.0888,-4.0888,-4.0888,-4.0888,-4.0888,0.0,0.0,0.0,0.0,0.0,0.0,0.0,0.0,0.0,-2.0172,0.0,0.0,0.0,0.0,0.0,-2.0498,-1.9262,-1.857,-1.8687,-1.8556,-1.8556,-1.8673,-1.8556,-1.8517,-1.8517,-1.8358,-1.8372,0.0,0.0,0.0,0.0,0.0,-2.0344,-2.04,-2.1594,-2.2802,-2.4019,-2.4089,-2.4162,-2.4113,-2.2828,-2.2352,-2.2235,-2.0994,-2.0571,-2.0869,-2.2067,-2.1872,-2.1209,-2.2393,-2.249,-2.2087,-2.22,-2.1925,-2.1528,-2.1278,-2.1183,-2.1135,0.0,0.0,0.0,-2.0794,-2.0595,-2.0376,-2.0304,-2.2271,-2.4105,-2.3964,-2.6199,-2.8076,-2.7944,-2.7875,-2.7974,-2.8383,-2.9361,-3.0081,-3.0123,-3.1132,-3.1851,-3.1851,-3.2486,-3.285,-3.2691,-3.2867,-3.2971,-3.3031,-3.3684,-3.429,-3.478,-3.5514,-3.6071,-3.6266,-3.6284,-3.6301,-3.6301,-3.6301,-3.6301,-3.6301,-3.6301,-3.6697,-3.7456,-3.7473,-3.8267,-3.9629,-3.9681,-4.0129,-4.0853,-4.0871,-4.0888,-4.0888,-4.0888,-4.0888,-4.0888,-4.0888,-4.0888,-4.0888,0.0,0.0,0.0,0.0,0.0,0.0,0.0,0.0,0.0,0.0,0.0,0.0,-2.2072,-2.1837,-2.1215,-2.047,-1.9614,-1.8995,-1.8584,-1.8517,-1.8517,-1.8556,-1.8517,-1.8517,-1.8517,-1.8464,0.0,0.0,0.0,0.0,0.0,0.0,0.0,0.0,-2.0344,-2.1088,-2.1524,-2.3357,-2.2555,-2.0415,-2.3625,-2.278,-1.9879,-2.2203,-2.1992,-2.0627,-2.184,-2.2098,-2.1948,-2.2441,-2.2091,-2.1401,-2.109,-2.0811,-2.063,-2.0909,-2.086,-2.0695,-2.0744,0.0,0.0,0.0,0.0,0.0,-2.015,-2.1498,-2.2714,-2.2729,-2.4955,-2.6842,-2.6625,-2.7319,-2.794,-2.786,-2.8701,-2.9617,-3.0284,-3.0675,-3.0892,-3.0892,-3.1074,-3.1364,-3.1868,-3.2074,-3.2504,-3.3229,-3.2618,-3.2787,-3.4238,-3.5012,-3.5466,-3.549,-3.6025,-3.6301,-3.6301,-3.6301,-3.6301,-3.6301,-3.6301,-3.6422,-3.6646,-3.7215,-3.7698,-3.8163,-3.9232,-3.9819,-4.0077,-4.0647,-4.0888,-4.0888,-4.0888,-4.0888,-4.0888,-4.0888,-4.0888,-4.0871,0.0,0.0,0.0,0.0,0.0,0.0,0.0,0.0,0.0,0.0,0.0,0.0,-2.1355,-2.0878,-2.0358,-2.0021,-1.9417,-1.8871,-1.8531,-1.8517,-1.8517,-1.8517,-1.8517,-1.8517,-1.8517,-1.8464,0.0,0.0,0.0,0.0,0.0,0.0,0.0,0.0,0.0,0.0,-1.974,-2.1707,-2.1875,-2.1032,-2.3393,-2.3238,-2.1777,-2.3484,-2.3216,-2.2086,-2.3294,-2.3407,-2.309,-2.371,-2.3051,-2.1907,-2.1765,-2.1044,-2.0385,-2.1078,-2.0895,-2.0475,-2.0509,-2.0407,-2.0304,-2.0304,0.0,0.0,-2.01,-2.1636,-2.3084,-2.3044,-2.529,-2.7011,-2.6214,-2.6685,-2.7155,-2.7124,-2.7628,-2.8426,-2.9713,-3.0241,-3.0526,-3.0526,-3.0609,-3.0775,-3.1123,-3.1366,-3.1741,-3.2442,-3.2055,-3.2457,-3.4024,-3.449,-3.4731,-3.4731,-3.5456,-3.5835,-3.5835,-3.6146,-3.6301,-3.6301,-3.6301,-3.6301,-3.6318,-3.6784,-3.7163,-3.7542,-3.8405,-3.9129,-3.9733,-4.0198,-4.0578,-4.0888,-4.0888,-4.0888,-4.0888,-4.0888,-4.0888,-4.0888,0.0,0.0,0.0,0.0,0.0,0.0,0.0,0.0,0.0,0.0,-1.9993,-2.0372,-2.0302,-1.9782,-1.939,-1.939,-1.8829,-1.8517,-1.8517,-1.8517,-1.8517,-1.8517,-1.8517,-1.8517,-1.8517,-1.8372,0.0,0.0,0.0,0.0,0.0,0.0,0.0,0.0,0.0,0.0,0.0,-1.9712,-2.1524,-2.3625,-2.278,-2.3631,-2.5388,-2.4573,-2.4146,-2.4089,-2.5402,-2.5107,-2.4272,-2.5331,-2.4547,-2.311,-2.3142,-2.1873,-2.0588,-2.1356,-2.1027,-2.0388,-2.0304,-2.0304,-2.0304,-2.0304,-2.0304,0.0,-2.015,-2.2041,-2.3861,-2.3948,-2.5997,-2.738,-2.629,-2.5895,-2.5925,-2.6377,-2.6284,-2.6834,-2.8693,-2.9783,-3.036,-3.0253,-3.0608,-3.0773,-3.0526,-3.0773,-3.0992,-3.119,-3.1839,-3.2701,-3.38,-3.3904,-3.3955,-3.3955,-3.468,-3.5111,-3.5197,-3.5852,-3.6215,-3.6301,-3.6301,-3.6301,-3.6301,-3.6301,-3.668,-3.7353,-3.7439,-3.8232,-3.9457,-3.9629,-4.0164,-4.0888,-4.0888,-4.0888,-4.0888,-4.0888,-4.0888,-4.0888,-1.7976,0.0,0.0,0.0,0.0,0.0,0.0,0.0,0.0,-1.9404,-1.9993,-2.0203,-1.9642,-1.9474,-1.939,-1.939,-1.8829,-1.8517,-1.8517,-1.8517,-1.8517,-1.8517,-1.8517,-1.8517,-1.8517,-1.8464,0.0,0.0,0.0,0.0,0.0,0.0,0.0,0.0,0.0,0.0,0.0,-1.8784,-1.9754,-2.1271,-2.3048,-2.3428,-2.3097,-2.4868,-2.4292,-2.2845,-2.5093,-2.5107,-2.416,-2.4385,-2.4196,-2.3567,-2.1932,-2.1263,-2.1072,-2.0503,-2.038,-2.0388,-2.0304,-2.0304,-2.0304,-2.0304,-2.0304,0.0,-2.027,-2.0685,-2.1362,-2.2471,-2.3117,-2.3846,-2.5083,-2.4813,-2.477,-2.591,-2.5426,-2.5571,-2.7618,-2.9065,-2.9646,-2.8897,-2.9855,-3.0568,-3.0526,-3.0895,-3.1151,-3.119,-3.1619,-3.2001,-3.2231,-3.28,-3.3128,-3.3128,-3.3886,-3.4594,-3.518,-3.5434,-3.5814,-3.6301,-3.6402,-3.6402,-3.6301,-3.6301,-3.6387,-3.6559,-3.7215,-3.7646,-3.8008,-3.9198,-4.0164,-4.0888,-4.0888,-4.0888,-4.0888,-4.0888,-4.0888,-4.0888,-1.8462,0.0,0.0,0.0,0.0,0.0,0.0,0.0,-1.8726,-1.8833,-1.9153,-1.9151,-1.8599,-1.8528,-1.8454,-1.8182,-1.7871,-1.7687,-1.7687,-1.7946,-1.8115,-1.8115,-1.8349,-1.8517,-1.8517,-1.8517,0.0,0.0,0.0,0.0,0.0,0.0,0.0,0.0,0.0,0.0,0.0,-1.8517,-1.9248,-2.0555,-2.2395,-2.3174,-2.3322,-2.5191,-2.5121,-2.4193,-2.5444,-2.55,-2.4882,-2.4315,-2.4118,-2.3892,-2.2767,-2.1771,-2.0954,-2.0626,-2.0324,-2.0096,-2.027,-2.0304,-2.0304,-2.0304,-2.0304,0.0,0.0,-2.0828,-2.1507,-2.2147,-2.2825,-2.3394,-2.3651,-2.3371,-2.3412,-2.4389,-2.3773,-2.3829,-2.5699,-2.7669,-2.8942,-2.9091,-2.9955,-3.0526,-3.0526,-3.0733,-3.0952,-3.119,-3.1576,-3.18,-3.18,-3.2145,-3.2352,-3.2352,-3.3093,-3.368,-3.4042,-3.4955,-3.5526,-3.5749,-3.6271,-3.6444,-3.6301,-3.6301,-3.6301,-3.6318,-3.6715,-3.7111,-3.7542,-3.8284,-3.9267,-4.0336,-4.0716,-4.0888,-4.0888,-4.0888,-4.0888,-4.0888,-1.8813,0.0,0.0,0.0,0.0,0.0,0.0,0.0,-1.8226,-1.819,-1.8177,-1.8156,-1.8054,-1.7964,-1.7774,-1.7427,-1.7434,-1.7277,-1.6907,-1.7505,-1.7823,-1.7709,-1.7979,-1.8278,-1.8517,-1.8405,-1.8391,0.0,0.0,0.0,0.0,0.0,0.0,0.0,0.0,0.0,0.0,-1.8883,-1.9599,-2.085,-2.2058,-2.3062,-2.3906,-2.5331,-2.5753,-2.557,-2.5809,-2.5893,-2.5711,-2.4526,-2.4118,-2.4025,-2.3635,-2.2189,-2.0641,-2.0905,-2.0362,-1.9762,-2.0096,-2.0235,-2.0304,-2.0304,-2.0304,-2.0304,0.0,0.0,0.0,-2.1901,-2.2778,-2.3271,-2.244,-2.201,-2.2118,-2.3172,-2.2388,-2.2288,-2.4199,-2.61,-2.7672,-2.8575,-2.9328,-2.9708,-2.956,-2.993,-3.0473,-3.1213,-3.1576,-3.1763,-3.18,-3.1819,-3.1819,-3.18,-3.2369,-3.2786,-3.2942,-3.4302,-3.5082,-3.5278,-3.5983,-3.6305,-3.6343,-3.6301,-3.6301,-3.6301,-3.6301,-3.6663,-3.7267,-3.7422,-3.818,-3.937,-4.0284,-4.075,-4.0888,-4.0888,-4.0888,-4.0888,-1.8265,-1.8532,0.0,0.0,0.0,0.0,0.0,0.0,-1.8307,-1.7842,-1.7772,-1.8167,-1.9268,-1.8899,-1.8796,-1.9239,-1.9282,-1.8612,-1.6992,-1.7902,-1.8276,-1.7723,-1.7234,-1.7481,-1.8503,-1.7983,-1.7969,0.0,0.0,0.0,0.0,0.0,0.0,0.0,-1.8517,0.0,-2.0189,-2.0189,-2.0878,-2.2086,-2.3385,-2.3315,-2.2648,-2.4994,-2.5219,-2.4455,-2.5514,-2.5893,-2.5711,-2.4526,-2.4118,-2.387,-2.263,-2.1454,-2.0557,-2.0514,-2.0113,-1.9726,-1.9762,-2.001,-2.0304,-2.0304,-2.0304,-2.0304,-2.0304,0.0,-2.0535,-2.0535,0.0,-2.109,-2.2101,0.0,0.0,-2.3754,-2.243,-2.2017,-2.464,-2.4963,-2.4838,-2.4601,-2.6028,-2.6818,-2.6222,-2.781,-2.9618,-3.1338,-3.1517,-3.1614,-3.18,-3.1839,-3.1839,-3.18,-3.1925,-3.2362,-3.3072,-3.3321,-3.4106,-3.5461,-3.5566,-3.5908,-3.6444,-3.6343,-3.6301,-3.6301,-3.6301,-3.6353,-3.649,-3.7198,-3.7577,-3.787,-3.9284,-4.0267,-4.0888,-4.0888,-4.0888,-4.0888,-1.8096,-1.8283,0.0,0.0,0.0,0.0,0.0,0.0,-1.7029,-1.702,-1.687,-1.7204,-1.8327,-1.82,-1.8275,-1.8855,-1.8976,-1.8885,-1.856,-1.8444,-1.857,-1.8965,-1.8092,-1.7869,-1.8503,-1.8173,-1.8145,-1.8372,-1.8464,0.0,0.0,0.0,0.0,0.0,-1.8595,-1.926,-2.04,-2.0429,-2.1119,-2.2226,-2.2808,-2.2696,-2.2451,-2.4952,-2.5584,-2.5107,-2.491,-2.5289,-2.5598,-2.3631,-2.3926,-2.4783,-2.2575,-2.1648,-2.1366,-2.1324,-2.0229,-1.9246,-2.0442,-2.0712,-2.0774,-2.1314,-2.1218,-2.1069,-2.1403,-2.0875,-2.0304,-2.0304,0.0,0.0,0.0,0.0,0.0,0.0,-2.1561,-2.1432,-2.297,-2.3036,-2.3375,-2.467,-2.5687,-2.6399,-2.6663,-2.6956,-2.7885,-2.9681,-2.9892,-3.0114,-3.049,-3.1372,-3.1856,-3.1839,-3.1912,-3.205,-3.2397,-3.2941,-3.348,-3.3986,-3.4983,-3.5532,-3.5762,-3.6153,-3.6301,-3.6301,-3.6301,-3.6301,-3.6335,-3.6663,-3.7077,-3.7542,-3.8163,-3.9146,-4.025,-4.0716,-4.0888,-4.0888,-1.7765,0.0,0.0,0.0,0.0,0.0,0.0,-1.6335,-1.6308,-1.6614,-1.6528,-1.6817,-1.7855,-1.7595,-1.7693,-1.8553,-1.8731,-1.9007,-1.9579,-1.8929,-1.9027,-2.013,-1.8621,-1.8087,-1.8875,-1.8347,-1.8074,-1.8226,0.0,0.0,0.0,0.0,0.0,0.0,0.0,-1.9301,-2.0414,-2.081,-2.1657,-2.278,-2.3055,-2.3196,-2.335,-2.484,-2.5598,-2.5781,-2.4882,-2.5135,-2.557,-2.3421,-2.3898,-2.4973,-2.292,-2.2083,-2.189,-2.2228,-2.0966,-1.9793,-2.1222,-2.1651,-2.1674,-2.1976,-2.2037,-2.1958,-2.178,-2.127,-2.0778,-2.0542,-2.065,0.0,0.0,0.0,-2.0843,-2.1515,0.0,-2.1265,-2.184,-2.1798,-2.233,-2.401,-2.4726,-2.5457,-2.6471,-2.6021,-2.6315,-2.7838,-2.8417,-2.8963,-2.954,-3.0919,-3.1746,-3.1875,-3.1821,-3.1804,-3.1948,-3.2612,-3.2958,-3.3035,-3.448,-3.5186,-3.5272,-3.5956,-3.6301,-3.6301,-3.6301,-3.6301,-3.6301,-3.6301,-3.6628,-3.718,-3.7404,-3.8217,-3.9316,-4.0227,-4.0698,-4.084,-1.7028,-1.7609,0.0,0.0,-1.6586,-1.6592,-1.6186,-1.6453,-1.6779,-1.7049,-1.7123,-1.7625,-1.8824,-1.7571,-1.7311,-1.9043,-1.9224,-1.9293,-1.9307,-1.9211,-1.9697,-2.0931,-1.8115,-1.763,-1.9887,-1.823,-1.7556,-1.7988,0.0,0.0,0.0,0.0,0.0,0.0,-1.8439,-1.922,-2.047,-2.1636,-2.2907,-2.416,-2.5289,-2.5767,-2.5655,-2.4596,-2.4854,-2.5879,-2.5851,-2.5865,-2.5697,-2.4484,-2.3951,-2.3854,-2.3616,-2.266,-2.18,-2.2886,-2.2564,-2.1923,-2.1965,-2.2712,-2.3093,-2.1817,-2.2385,-2.2748,-2.0813,-2.1316,-2.1987,-2.1216,-2.1598,-2.2217,-2.2808,-2.2358,-2.2146,-2.2813,-2.2294,0.0,0.0,-2.1955,-2.1596,-2.1024,-2.1835,-2.2876,-2.4089,-2.4671,-2.5291,-2.6208,-2.7644,-2.8797,-2.9472,-3.0683,-3.1466,-3.18,-3.1545,-3.164,-3.2073,-3.2179,-3.2634,-3.3385,-3.4112,-3.4762,-3.5411,-3.6015,-3.6301,-3.6301,-3.6301,-3.6301,-3.6301,-3.6301,-3.6318,-3.6422,-3.718,-3.7689,-3.8115,-3.9316,-4.0139,-4.0793,-1.6667,0.0,0.0,-1.6467,-1.6126,-1.5729,-1.5193,-1.4933,-1.514,-1.617,-1.6563,-1.7545,-1.97,-1.9741,-1.9863,-2.0367,-2.1199,-2.1642,-2.1376,-2.1206,-2.1609,-2.2713,-2.0813,-1.9809,-1.9998,-1.9319,-1.8659,-1.7988,-1.8108,0.0,0.0,0.0,0.0,0.0,0.0,-1.9301,-2.047,-2.1784,-2.3025,-2.416,-2.4568,-2.4737,-2.4727,-2.5121,-2.5528,-2.5893,-2.5893,-2.5893,-2.5711,-2.4371,-2.4445,-2.4868,-2.3802,-2.3214,-2.3067,-2.4109,-2.3087,-2.1815,-2.2908,-2.3526,-2.3956,-2.4119,-2.3788,-2.3353,-2.3007,-2.2202,-2.1421,-2.1155,-2.1584,-2.2093,-2.2282,-2.2091,-2.1937,-2.2164,-2.1934,-2.1609,0.0,-2.0931,-2.0755,-2.0968,-2.1455,-2.2055,-2.2716,-2.3401,-2.3951,-2.4183,-2.5592,-2.6404,-2.627,-2.8492,-2.9962,-3.0404,-3.1102,-3.1691,-3.2126,-3.2108,-3.2283,-3.2545,-3.3276,-3.4022,-3.4766,-3.5456,-3.6,-3.6444,-3.6444,-3.6402,-3.6301,-3.6301,-3.6301,-3.6335,-3.6594,-3.7093,-3.7862,-3.9504,-4.0368,-4.0797,-1.611,-1.5789,-1.5723,-1.5761,-1.5265,-1.4886,-1.4912,-1.4807,-1.5338,-1.7063,-1.7366,-1.82,-2.0307,-2.0494,-2.0641,-2.0957,-2.1416,-2.1998,-2.2812,-2.1614,-2.1821,-2.4024,-2.1983,-2.0887,-2.1109,-2.0243,-1.9527,-1.9073,-1.8372,-1.8221,0.0,0.0,0.0,0.0,0.0,-1.8967,-1.9838,-2.16,-2.2771,-2.3484,-2.3935,-2.4385,-2.4755,-2.5159,-2.5568,-2.5893,-2.5839,-2.5839,-2.5658,-2.4729,-2.4926,-2.537,-2.438,-2.4026,-2.4177,-2.483,-2.3906,-2.2913,-2.3939,-2.4605,-2.5056,-2.5198,-2.506,-2.4788,-2.4388,-2.3631,-2.2891,-2.2568,-2.2975,-2.3254,-2.2687,-2.2516,-2.2194,-2.1519,-2.1374,-2.115,0.0,-2.032,-2.0303,-2.0696,-2.1495,-2.2093,-2.2308,-2.2885,-2.3231,-2.3296,-2.4513,-2.516,-2.4941,-2.7742,-2.936,-2.9438,-3.0737,-3.16,-3.1893,-3.2126,-3.2161,-3.2126,-3.2892,-3.3676,-3.4422,-3.517,-3.5896,-3.6544,-3.6544,-3.6502,-3.6444,-3.6402,-3.6343,-3.636,-3.6301,-3.6696,-3.7428,-3.8825,-3.9736,-4.0371,-1.5351,-1.4784,-1.4492,-1.4598,-1.4193,-1.4245,-1.5369,-1.6075,-1.7264,-1.9473,-1.9449,-1.9627,-2.072,-1.9991,-1.9873,-2.0904,-2.004,-2.0633,-2.3377,-2.0569,-2.0597,-2.4603,-2.1664,-2.0941,-2.3134,-2.0982,-2.0253,-2.0997,-1.8684,0.0,0.0,0.0,0.0,0.0,-1.8149,-1.8321,-1.8672,-2.1145,-2.2212,-2.2381,-2.3618,-2.4751,-2.5683,-2.462,-2.4878,-2.5893,-2.5729,-2.5674,-2.5688,-2.5536,-2.5369,-2.5174,-2.5174,-2.5118,-2.5005,-2.5005,-2.5005,-2.5061,-2.5061,-2.5837,-2.6454,-2.5162,-2.6123,-2.6826,-2.4856,-2.541,-2.6104,-2.5194,-2.5515,-2.5531,-2.3968,-2.364,-2.2996,-2.1156,-2.0782,-2.0557,-2.0061,-2.0166,-2.027,-2.0115,-2.1728,-2.276,-2.2687,-2.2941,-2.3203,-2.3383,-2.4346,-2.5096,-2.5459,-2.8178,-2.9499,-2.9033,-3.0401,-3.1278,-3.1504,-3.202,-3.2231,-3.2126,-3.2947,-3.3715,-3.4391,-3.5101,-3.5884,-3.665,-3.6684,-3.6702,-3.6702,-3.6561,-3.6502,-3.6502,-3.6343,-3.6492,-3.6841,-3.7351,-3.8412,-3.9557,-1.4752,-1.413,-1.3999,-1.452,-1.4846,-1.5304,-1.6049,-1.7016,-1.8022,-1.9002,-2.0139,-2.1013,-2.1315,-2.2245,-2.2258,-2.088,-2.1287,-2.1563,-2.1483,-2.1533,-2.2419,-2.4328,-2.3739,-2.3205,-2.2938,-2.2283,-2.1683,-2.0997,-1.9613,-1.9039,-1.9319,0.0,0.0,0.0,0.0,-1.8321,-1.8647,-2.1024,-2.2554,-2.332,-2.277,-2.3371,-2.4554,-2.423,-2.4826,-2.5729,-2.5729,-2.5633,-2.5536,-2.5355,-2.523,-2.5174,-2.5061,-2.5005,-2.5005,-2.5005,-2.5342,-2.5674,-2.5674,-2.6428,-2.7223,-2.6846,-2.6741,-2.6503,-2.5933,-2.5571,-2.5329,-2.5162,-2.5425,-2.5588,-2.5273,-2.4357,-2.343,-2.2936,-2.1674,-2.0602,-2.0061,-2.0096,-2.0185,-2.0235,-2.1017,-2.1332,-2.0783,-2.2374,-2.3035,-2.2035,-2.3144,-2.4284,-2.5163,-2.5564,-2.6775,-2.8931,-2.8442,-2.9229,-3.1562,-3.089,-3.1129,-3.2319,-3.2564,-3.3037,-3.3755,-3.4544,-3.5294,-3.5985,-3.6561,-3.6766,-3.6702,-3.6561,-3.6502,-3.6502,-3.6343,-3.6343,-3.6554,-3.7668,-3.8725,-3.9499,-1.4828,-1.4454,-1.4469,-1.4829,-1.6023,-1.7024,-1.7447,-1.8257,-1.9316,-2.0623,-2.1433,-2.2073,-2.2596,-2.3524,-2.3589,-2.2283,-2.1851,-2.1799,-2.2139,-2.1509,-2.2023,-2.42,-2.4,-2.3484,-2.2818,-2.2818,-2.2432,-2.1703,-2.008,-1.9522,-1.9973,0.0,0.0,0.0,0.0,-1.8214,-1.8579,-2.1055,-2.2783,-2.3895,-2.3245,-2.3744,0.0,-2.4315,-2.4773,-2.5729,-2.5729,-2.5633,-2.5494,-2.53,-2.5244,-2.53,-2.5061,-2.5061,-2.5061,-2.5005,-2.5453,-2.5893,-2.5893,-2.6707,-2.7515,-2.7515,-2.7397,-2.7257,-2.7242,-2.6857,-2.6489,-2.6489,-2.6608,-2.6494,-2.5923,-2.4641,-2.3383,-2.2499,-2.1473,-2.0692,-2.0403,-2.0746,-2.0788,-2.0242,-2.1008,-2.1185,-2.0096,-2.1761,-2.2838,-2.2706,-2.3342,-2.4005,-2.4564,-2.5732,-2.6759,-2.7521,-2.7912,-2.8579,-2.9572,-2.902,-2.9615,-3.1303,-3.1354,-3.2125,-3.3512,-3.4319,-3.5072,-3.5805,-3.6558,-3.6829,-3.6725,-3.6643,-3.6544,-3.6502,-3.6343,-3.6301,-3.6395,-3.7242,-3.7928,-3.8514,-1.5208,-1.5146,-1.5363,-1.5672,-1.7441,-1.896,-1.9478,-1.9921,-2.0912,-2.2962,-2.2923,-2.3067,-2.4008,-2.4256,-2.4282,-2.4125,-2.2204,-2.1851,-2.3864,-2.1208,-2.0943,-2.416,-2.3411,-2.299,-2.2963,-2.299,-2.2936,-2.2801,-2.0443,-1.9811,0.0,0.0,0.0,0.0,0.0,0.0,-1.885,-2.0999,-2.2712,-2.4016,-2.4016,-2.4699,-2.5556,-2.4709,-2.4913,-2.5729,-2.5674,-2.5592,-2.5494,-2.53,-2.5369,-2.5425,-2.5131,-2.5118,-2.5174,-2.5061,-2.5508,-2.5934,-2.6002,-2.6759,-2.7565,-2.7615,-2.8008,-2.8411,-2.8411,-2.8411,-2.8348,-2.8235,-2.8103,-2.7591,-2.63,-2.4822,-2.3167,-2.1242,-2.0775,-2.0655,-2.067,-2.1523,-2.1622,-2.0157,-2.136,0.0,-2.0284,-2.1192,-2.2444,-2.3911,-2.3833,-2.3851,-2.4034,-2.6691,-2.747,-2.5922,-2.7841,-2.8355,-2.7329,-2.7371,-2.8372,-3.0237,-3.0249,-3.1335,-3.3371,-3.4284,-3.5056,-3.5723,-3.6601,-3.6908,-3.6788,-3.6725,-3.6602,-3.6461,-3.6385,-3.6385,-3.6385,-3.6655,-3.6974,-3.7301,-1.5208,-1.5018,-1.5642,-1.76,-1.8669,-2.0128,-2.2596,-2.2648,-2.26,-2.3115,-2.3968,-2.4413,-2.4151,-2.4962,-2.5145,-2.4204,-2.3289,-2.2936,-2.3354,-2.2415,-2.252,-2.4092,-2.3974,-2.3869,-2.3869,-2.3869,-2.3869,-2.3869,-2.1537,-2.0552,0.0,0.0,0.0,0.0,0.0,0.0,-2.0832,-2.0474,-2.1472,-2.3346,-2.3241,-2.3573,-2.4267,-2.4967,-2.5452,-2.5674,-2.5592,-2.5494,-2.5494,-2.5439,-2.5369,-2.53,-2.5369,-2.53,-2.523,-2.5369,-2.5784,-2.6283,-2.6654,-2.724,-2.7825,-2.8137,-2.8299,-2.8411,-2.8411,-2.8299,-2.8235,-2.8348,-2.8152,-2.7944,-2.7652,-2.5439,-2.3203,-2.1779,-2.0625,-1.9891,-1.9978,-2.1054,-2.1402,-2.0157,-2.1264,-2.1843,-2.1063,-2.1067,-2.1318,-2.1858,-2.189,-2.2767,-2.4762,-2.3888,-2.4371,-2.6602,-2.5948,-2.6642,-2.8956,-2.8421,-2.9415,-3.1933,-3.1317,-3.1563,-3.2634,-3.4056,-3.4758,-3.4969,-3.6256,-3.6829,-3.6788,-3.6626,-3.6461,-3.6343,-3.6615,-3.6696,-3.6776,-3.7319,-3.7541,-3.7541,-1.7571,-1.6865,-1.6744,-1.8185,-1.9355,-2.073,-2.2557,-2.35,-2.4124,-2.451,-2.5053,-2.5301,-2.5027,-2.5497,-2.5602,-2.5053,-2.4204,-2.3812,-2.4112,-2.3302,-2.3197,-2.4073,-2.4112,-2.3838,-2.325,-2.3812,-2.3825,-2.3237,-2.1498,-2.0699,-2.0709,-1.8442,0.0,0.0,0.0,-1.9486,-2.0707,-2.1424,-2.2432,-2.3543,-2.396,-2.4381,-2.472,-2.5094,-2.53,-2.5342,-2.5244,-2.5257,-2.5257,-2.5145,-2.5257,-2.5313,-2.5089,-2.5131,-2.523,-2.5244,-2.5715,-2.6229,-2.6428,-2.7071,-2.7695,-2.7894,-2.8186,-2.8411,-2.8411,-2.8348,-2.8299,-2.8411,-2.825,-2.789,-2.7109,-2.6044,-2.4822,-2.3531,-2.2139,-2.1285,-2.1323,-2.1642,-2.162,-2.0963,-2.2261,-2.2766,-2.1614,-2.1595,-2.1628,-2.1506,-2.1708,-2.2443,-2.3884,-2.3794,-2.458,-2.6485,-2.6193,-2.6785,-2.8444,-2.8001,-2.8928,-3.1212,-3.0808,-3.1247,-3.2458,-3.3932,-3.4596,-3.4684,-3.6125,-3.6708,-3.6609,-3.6485,-3.6468,-3.6591,-3.6736,-3.6895,-3.7073,-3.7541,-3.7703,-3.7703,-2.0137,-1.9157,-1.8611,-1.9434,-2.0507,-2.166,-2.2757,-2.4124,-2.5205,-2.5792,-2.5881,-2.5983,-2.6114,-2.6127,-2.6086,-2.5837,-2.5105,-2.47,-2.4779,-2.4034,-2.3746,-2.4099,-2.4112,-2.3694,-2.2792,-2.3655,-2.3681,-2.2766,-2.159,-2.0948,-2.066,-1.8692,-1.779,-1.7942,-1.9306,-2.0161,-2.0666,-2.2528,-2.3535,-2.3941,-2.4681,-2.5131,-2.5313,-2.5005,-2.4948,-2.5005,-2.4935,-2.4948,-2.4948,-2.4778,-2.5018,-2.5257,-2.4848,-2.4892,-2.5118,-2.5005,-2.5425,-2.596,-2.6176,-2.6782,-2.7414,-2.763,-2.8073,-2.8411,-2.8411,-2.8411,-2.8411,-2.8411,-2.8299,-2.7865,-2.667,-2.6529,-2.6163,-2.4822,-2.3411,-2.2368,-2.2124,-2.1949,-2.1838,-2.1695,-2.2894,-2.3203,-2.1888,-2.1896,-2.1771,-2.135,-2.1668,-2.2281,-2.3136,-2.3965,-2.4856,-2.5833,-2.6296,-2.6822,-2.7478,-2.7463,-2.8528,-3.0547,-3.039,-3.1038,-3.2458,-3.3859,-3.4504,-3.4591,-3.6006,-3.6602,-3.6444,-3.6343,-3.6468,-3.6713,-3.6856,-3.6995,-3.7264,-3.7667,-3.7828,-3.7863,-2.123,-2.1204,-2.1594,-2.3175,-2.315,-2.3664,-2.594,-2.5572,-2.5358,-2.5999,-2.6206,-2.6544,-2.7128,-2.7233,-2.6948,-2.5916,-2.619,-2.5798,-2.4295,-2.457,-2.4596,-2.4138,-2.4112,-2.406,-2.3955,-2.406,-2.406,-2.3955,-2.2779,-2.1721,-2.0772,-1.9509,-1.9006,-1.9181,-2.0401,-2.1459,-2.2313,-2.2764,-2.3472,-2.4262,-2.4234,-2.4447,-2.4835,-2.4637,-2.4765,-2.4948,-2.4637,-2.4765,-2.4948,-2.4637,-2.465,-2.4905,-2.4948,-2.4892,-2.4835,-2.4948,-2.5118,-2.5481,-2.6428,-2.6797,-2.7174,-2.8088,-2.8348,-2.8411,-2.8411,-2.8411,-2.8411,-2.8411,-2.8299,-2.8155,-2.8018,-2.6866,-2.5455,-2.4113,-2.2705,-2.1365,-2.0139,-2.1,-2.1695,-2.1695,-2.1904,-2.1919,-2.1749,-2.0959,-2.0474,-2.0447,-2.0722,-2.1859,-2.3978,-2.26,-2.2675,-2.4675,-2.4471,-2.5176,-2.7051,-2.7772,-2.9402,-3.2004,-3.1323,-3.1513,-3.2458,-3.3803,-3.4446,-3.4591,-3.5908,-3.6444,-3.6301,-3.6301,-3.6343,-3.6409,-3.6956,-3.7188,-3.7264,-3.7898,-3.814,-3.814,-2.3452,-2.2673,-2.2297,-2.3301,-2.3577,-2.4067,-2.535,-2.5794,-2.6009,-2.6291,-2.6665,-2.7022,-2.7242,-2.7403,-2.734,-2.6883,-2.7053,-2.6752,-2.572,-2.5863,-2.5589,-2.4661,-2.4622,-2.4465,-2.4125,-2.4112,-2.4112,-2.4112,-2.2243,-2.1157,-2.0723,-1.9507,-1.9443,-2.025,-2.1414,-2.2194,-2.275,-2.344,-2.4053,-2.4593,-2.4305,-2.4363,-2.4593,-2.4376,-2.4319,-2.4447,-2.4319,-2.4332,-2.4447,-2.4319,-2.4549,-2.4892,-2.4765,-2.4948,-2.5201,-2.5061,-2.5188,-2.5522,-2.6283,-2.664,-2.6953,-2.7695,-2.8122,-2.8411,-2.8411,-2.8411,-2.8411,-2.8411,-2.8348,-2.8299,-2.8186,-2.7613,-2.668,-2.5228,-2.4477,-2.3565,-2.2218,-2.2503,-2.3131,-2.3954,-2.3411,-2.333,-2.4115,-2.2474,-2.1397,-2.1434,-2.1011,-2.1229,-2.2407,-2.2781,-2.3751,-2.5447,-2.5713,-2.7029,-2.9549,-2.9162,-3.0041,-3.2144,-3.1847,-3.19,-3.2249,-3.3636,-3.474,-3.5584,-3.6125,-3.636,-3.6343,-3.6557,-3.6719,-3.6878,-3.7358,-3.765,-3.7828,-3.8106,-3.8192,-3.8192,-2.531,-2.4356,-2.3653,-2.4042,-2.4456,-2.4745,-2.4808,-2.5749,-2.6352,-2.6013,-2.6659,-2.7134,-2.7134,-2.7323,-2.7326,-2.6908,-2.7261,-2.7144,-2.6229,-2.6478,-2.6164,-2.5014,-2.5022,-2.47,-2.4125,-2.4112,-2.4112,-2.4112,-2.2479,-2.155,-2.1184,-2.0309,-2.0411,-2.13,-2.2469,-2.305,-2.3226,-2.3918,-2.4376,-2.4563,-2.4319,-2.4305,-2.4363,-2.4157,-2.4112,-2.4112,-2.4112,-2.4112,-2.4112,-2.4157,-2.4492,-2.4821,-2.458,-2.4821,-2.5131,-2.5061,-2.5244,-2.5536,-2.619,-2.6549,-2.6849,-2.7479,-2.7974,-2.8299,-2.8396,-2.8411,-2.8411,-2.8411,-2.8411,-2.8348,-2.8299,-2.8152,-2.7564,-2.6121,-2.5755,-2.5182,-2.3789,-2.3595,-2.3954,-2.4896,-2.3936,-2.3709,-2.5033,-2.3273,-2.2156,-2.2308,-2.1697,-2.1528,-2.202,-2.2879,-2.408,-2.558,-2.5639,-2.7026,-2.9969,-2.9265,-2.9937,-3.2037,-3.2037,-3.2194,-3.2456,-3.3873,-3.5157,-3.6301,-3.6301,-3.6301,-3.6343,-3.6741,-3.6978,-3.715,-3.7596,-3.7915,-3.8054,-3.814,-3.8106,-3.802,-2.6508,-2.6496,-2.6483,-2.6483,-2.6496,-2.6063,-2.4983,-2.5749,-2.6076,-2.4983,-2.5908,-2.6714,-2.6714,-2.7066,-2.6802,-2.5664,-2.6739,-2.6804,-2.5105,-2.6046,-2.6164,-2.5014,-2.5022,-2.47,-2.4125,-2.4112,-2.4112,-2.4112,-2.4086,-2.3472,-2.2402,-2.2376,-2.2376,-2.2441,-2.3576,-2.4099,-2.4099,-2.4112,-2.4112,-2.4112,-2.4112,-2.4112,-2.4112,-2.4112,-2.4112,-2.4112,-2.4112,-2.4112,-2.4171,-2.4421,-2.4509,-2.4523,-2.4509,-2.4408,-2.4408,-2.4991,-2.5174,-2.5384,-2.6244,-2.6616,-2.6893,-2.7806,-2.802,-2.8054,-2.8363,-2.8411,-2.8411,-2.8411,-2.8411,-2.8411,-2.8411,-2.8299,-2.7695,-2.6244,-2.5879,-2.5304,-2.3833,-2.3595,-2.361,-2.3625,-2.2503,-2.2218,-2.349,-2.2647,-2.2171,-2.2577,-2.2718,-2.308,-2.372,-2.2607,-2.2731,-2.4469,-2.3107,-2.3845,-2.6909,-2.7282,-2.8914,-3.1894,-3.1894,-3.2366,-3.3221,-3.4636,-3.5641,-3.6301,-3.6301,-3.6301,-3.6343,-3.6741,-3.6878,-3.6856,-3.7523,-3.7756,-3.7739,-3.8072,-3.7933,-3.7578,-2.4482,-2.5555,-2.6294,-2.5605,-2.6017,-2.6408,-2.5988,-2.6239,-2.6395,-2.5988,-2.6307,-2.6589,-2.6589,-2.6875,-2.7005,-2.6751,-2.6401,-2.6323,-2.67,-2.6321,-2.5929,-2.5563,-2.5171,-2.4504,-2.3524,-2.3511,-2.3511,-2.3511,-2.3132,-2.2766,-2.24,-2.2428,-2.2792,-2.3576,-2.3955,-2.4112,-2.4112,-2.4112,-2.4112,-2.4112,-2.4112,-2.4112,-2.4112,-2.4112,-2.4112,-2.4112,-2.4112,-2.4112,-2.4112,-2.4216,-2.4216,-2.4261,-2.435,-2.4465,-2.4607,-2.4478,-2.4523,-2.4794,-2.5877,-2.6254,-2.664,-2.774,-2.8168,-2.8314,-2.8396,-2.8411,-2.8411,-2.8411,-2.8411,-2.8411,-2.8411,-2.8299,-2.7743,-2.6352,-2.6807,-2.6786,-2.5319,-2.5168,-2.5168,-2.4971,-2.3878,-2.3593,-2.4837,-2.3818,-2.319,-2.3478,-2.3009,-2.3048,-2.3736,-2.4531,-2.5614,-2.6995,-2.691,-2.7792,-2.9739,-2.9023,-2.9695,-3.1819,-3.1819,-3.253,-3.3865,-3.4812,-3.5635,-3.6301,-3.6301,-3.6301,-3.6343,-3.6995,-3.7188,-3.715,-3.788,-3.8088,-3.802,-3.781,-3.7845,-3.7967,-2.5696,-2.6633,-2.7303,-2.654,-2.6891,-2.7151,-2.6665,-2.6943,-2.7056,-2.6584,-2.6816,-2.708,-2.708,-2.7183,-2.7255,-2.7159,-2.6543,-2.6557,-2.7417,-2.6857,-2.6269,-2.5837,-2.5484,-2.4753,-2.3576,-2.3563,-2.3563,-2.3563,-2.321,-2.3054,-2.3054,-2.3027,-2.342,-2.4112,-2.4112,-2.4112,-2.4112,-2.4112,-2.4112,-2.4112,-2.4112,-2.4112,-2.4112,-2.4112,-2.4112,-2.4112,-2.4112,-2.4112,-2.4112,-2.4067,-2.4008,-2.3995,-2.3969,-2.4086,-2.4261,-2.4305,-2.4509,-2.4894,-2.5877,-2.6361,-2.6811,-2.774,-2.8118,-2.8266,-2.8363,-2.8411,-2.8411,-2.8411,-2.8411,-2.8411,-2.8411,-2.8348,-2.7959,-2.7117,-2.7603,-2.775,-2.6756,-2.6273,-2.5924,-2.5755,-2.4626,-2.4339,-2.5573,-2.4927,-2.452,-2.4798,-2.386,-2.379,-2.4984,-2.5443,-2.6182,-2.73,-2.7971,-2.8985,-3.0428,-2.9689,-3.0141,-3.18,-3.2386,-3.3162,-3.4111,-3.5145,-3.5852,-3.6301,-3.6301,-3.6301,-3.6385,-3.7111,-3.7264,-3.7111,-3.7827,-3.807,-3.7985,-3.7685,-3.7721,-3.7933,-2.9098,-2.9073,-2.8971,-2.8605,-2.8638,-2.8273,-2.7031,-2.7728,-2.7936,-2.6703,-2.7469,-2.8109,-2.8024,-2.7801,-2.7507,-2.7109,-2.7121,-2.7245,-2.7456,-2.7458,-2.6935,-2.5876,-2.5785,-2.5223,-2.4073,-2.406,-2.4073,-2.4112,-2.4112,-2.4112,-2.4112,-2.4112,-2.4112,-2.4112,-2.4112,-2.4112,-2.4112,-2.4112,-2.4112,-2.4112,-2.4112,-2.4112,-2.4112,-2.4112,-2.4112,-2.4112,-2.4112,-2.4112,-2.4054,-2.3949,-2.3891,-2.3832,-2.3522,-2.3403,-2.3569,-2.435,-2.4951,-2.5453,-2.6068,-2.6669,-2.7284,-2.7806,-2.7955,-2.8069,-2.8314,-2.8411,-2.8411,-2.8411,-2.8411,-2.8411,-2.8411,-2.8411,-2.8348,-2.8235,-2.8186,-2.8107,-2.7932,-2.6805,-2.5971,-2.5895,-2.4861,-2.4605,-2.5696,-2.5939,-2.6092,-2.6334,-2.5149,-2.5259,-2.7121,-2.5671,-2.5229,-2.6171,-2.703,-2.8098,-2.9453,-2.9592,-3.0386,-3.1817,-3.3352,-3.4093,-3.4145,-3.5628,-3.6301,-3.6301,-3.6301,-3.6301,-3.6343,-3.7073,-3.7129,-3.6856,-3.7487,-3.7721,-3.7667,-3.7613,-3.7559,-3.7559,-2.6934,-2.7419,-2.7765,-2.7189,-2.7733,-2.8021,-2.7237,-2.7848,-2.7984,-2.6858,-2.7569,-2.7877,-2.7198,-2.7618,-2.7858,-2.7576,-2.6557,-2.6388,-2.7404,-2.6713,-2.6112,-2.5837,-2.5406,-2.4622,-2.3459,-2.3433,-2.3655,-2.4112,-2.4112,-2.4112,-2.4112,-2.4112,-2.4112,-2.4112,-2.4112,-2.4112,-2.4112,-2.4112,-2.4112,-2.4112,-2.4112,-2.4112,-2.4112,-2.4112,-2.4112,-2.4112,-2.4112,-2.4112,-2.4054,-2.3949,-2.3891,-2.3832,-2.3522,-2.3403,-2.339,-2.3484,-2.3943,-2.4509,-2.5119,-2.5906,-2.6669,-2.7218,-2.7705,-2.802,-2.8069,-2.825,-2.8411,-2.8411,-2.8411,-2.8411,-2.8411,-2.8411,-2.8411,-2.8348,-2.8348,-2.7931,-2.681,-2.6413,-2.5771,-2.4618,-2.5179,-2.5772,-2.594,-2.7195,-2.7689,-2.6895,-2.6741,-2.6942,-2.7403,-2.7416,-2.7959,-2.9222,-2.9822,-3.037,-3.097,-3.1008,-3.1308,-3.1817,-3.3352,-3.4093,-3.4145,-3.5628,-3.6301,-3.6301,-3.6301,-3.6301,-3.6343,-3.6776,-3.6895,-3.6816,-3.6921,-3.7152,-3.7376,-3.6803,-3.6978,-3.7522,-2.8182,-2.855,-2.8812,-2.8145,-2.851,-2.8775,-2.8169,-2.8385,-2.8309,-2.7633,-2.8029,-2.8093,-2.7633,-2.81,-2.8412,-2.8251,-2.717,-2.6904,-2.7741,-2.7026,-2.6373,-2.585,-2.5524,-2.4818,-2.3655,-2.3629,-2.3785,-2.4112,-2.4112,-2.4112,-2.4112,-2.4112,-2.4112,-2.4112,-2.4112,-2.4112,-2.4112,-2.4112,-2.4112,-2.4112,-2.4112,-2.4112,-2.4112,-2.4112,-2.4112,-2.4112,-2.4112,-2.4112,-2.4054,-2.3819,-2.376,-2.37,-2.339,-2.3271,-2.3318,-2.3484,-2.4002,-2.4681,-2.5398,-2.6122,-2.6841,-2.7437,-2.7806,-2.8005,-2.8152,-2.8314,-2.8411,-2.8411,-2.8411,-2.8411,-2.8411,-2.8411,-2.8411,-2.8411,-2.7888,-2.7226,-2.6382,-2.5766,-2.5321,-2.5098,-2.5785,-2.655,-2.7288,-2.8218,-2.8559,-2.8056,-2.762,-2.764,-2.8195,-2.8135,-2.8706,-3.0048,-3.0675,-3.1055,-3.123,-3.1325,-3.1611,-3.2029,-3.3231,-3.3967,-3.4301,-3.5446,-3.6045,-3.6174,-3.6174,-3.6216,-3.6343,-3.6533,-3.6516,-3.6409,-3.6357,-3.6643,-3.6978,-3.6481,-3.686,-3.754,-3.0369,-3.0361,-3.0306,-2.9714,-2.9729,-2.9664,-2.9052,-2.8882,-2.8724,-2.8351,-2.8431,-2.8431,-2.8351,-2.8713,-2.8975,-2.89,-2.8388,-2.8081,-2.8122,-2.7715,-2.6948,-2.5876,-2.5824,-2.5288,-2.4138,-2.4204,-2.4295,-2.4374,-2.4374,-2.4334,-2.4243,-2.4243,-2.4204,-2.4112,-2.4112,-2.4112,-2.4112,-2.4112,-2.4112,-2.4112,-2.4112,-2.4112,-2.4112,-2.4112,-2.4112,-2.4112,-2.4112,-2.4112,-2.3995,-2.3688,-2.3569,-2.3497,-2.3198,-2.3078,-2.3245,-2.4002,-2.4624,-2.5175,-2.6014,-2.6683,-2.7233,-2.7705,-2.7855,-2.7955,-2.8201,-2.8314,-2.8363,-2.8363,-2.8411,-2.8411,-2.8411,-2.8411,-2.8334,-2.8119,-2.7134,-2.6318,-2.6103,-2.5311,-2.5168,-2.6359,-2.6729,-2.7469,-2.8887,-2.9074,-2.9196,-2.9329,-2.8388,-2.826,-2.9284,-2.8628,-2.8739,-2.9848,-3.0593,-3.0912,-3.0912,-3.1112,-3.1579,-3.2324,-3.3068,-3.3812,-3.4513,-3.5239,-3.5711,-3.5932,-3.5932,-3.6062,-3.6216,-3.6266,-3.6156,-3.5888,-3.5793,-3.602,-3.6416,-3.6298,-3.6781,-3.7392,-2.9849,-2.9229,-2.8742,-2.9143,-2.9209,-2.8973,-2.8203,-2.8669,-2.8657,-2.7545,-2.803,-2.8191,-2.7464,-2.8573,-2.9217,-2.8827,-2.9101,-2.9001,-2.8382,-2.7715,-2.6895,-2.5876,-2.5824,-2.5288,-2.4138,-2.4596,-2.5079,-2.5563,-2.5563,-2.5315,-2.4831,-2.4831,-2.4583,-2.4112,-2.4112,-2.4112,-2.4112,-2.4112,-2.4112,-2.4112,-2.4112,-2.4112,-2.4112,-2.4112,-2.4112,-2.4112,-2.4112,-2.4008,-2.3891,-2.3688,-2.3509,-2.3403,-2.3198,-2.3078,-2.3305,-2.4509,-2.4951,-2.5133,-2.577,-2.6379,-2.6884,-2.6989,-2.7144,-2.7335,-2.7503,-2.7806,-2.8103,-2.8186,-2.8299,-2.8411,-2.8411,-2.8411,-2.8011,-2.6842,-2.6503,-2.5964,-2.4795,-2.5795,-2.6725,-2.6961,-2.8355,-2.9376,-2.9645,-2.9924,-3.0081,-3.0123,-3.0153,-3.0237,-3.0452,-3.0212,-3.0195,-3.0368,-3.051,-3.0692,-3.0912,-3.1112,-3.1579,-3.2324,-3.3068,-3.3812,-3.4513,-3.5239,-3.5622,-3.5667,-3.5667,-3.5667,-3.5711,-3.5739,-3.565,-3.547,-3.5148,-3.527,-3.5599,-3.5688,-3.6054,-3.6533,-2.8976,-2.8814,-2.8657,-2.8657,-2.8736,-2.8498,-2.7777,-2.7938,-2.7857,-2.7313,-2.7545,-2.7626,-2.7231,-2.8395,-2.9172,-2.9015,-2.9378,-2.9468,-2.8922,-2.8183,-2.7284,-2.6334,-2.6282,-2.589,-2.5053,-2.5301,-2.5563,-2.5824,-2.5824,-2.568,-2.5419,-2.5118,-2.4831,-2.4557,-2.4256,-2.4112,-2.4112,-2.4112,-2.4112,-2.4112,-2.4112,-2.4112,-2.4112,-2.4112,-2.4112,-2.4112,-2.4008,-2.3949,-2.3832,-2.3582,-2.3463,-2.333,-2.3138,-2.3365,-2.3826,-2.4724,-2.5467,-2.6042,-2.6326,-2.6621,-2.6832,-2.6989,-2.713,-2.7233,-2.7488,-2.774,-2.8005,-2.8103,-2.825,-2.8411,-2.8411,-2.8411,-2.8196,-2.755,-2.6857,-2.6164,-2.5518,-2.6412,-2.7089,-2.7089,-2.8634,-2.9793,-3.0054,-3.0199,-3.0326,-3.0493,-3.0651,-3.0651,-3.0609,-3.051,-3.0526,-3.0526,-3.0526,-3.0568,-3.0692,-3.1174,-3.1784,-3.2519,-3.3255,-3.3991,-3.4726,-3.5061,-3.5304,-3.5458,-3.5458,-3.5503,-3.5577,-3.5503,-3.5367,-3.5211,-3.4835,-3.4913,-3.5191,-3.5144,-3.5481,-3.5985,-2.8631,-2.8952,-2.9076,-2.8462,-2.8518,-2.8402,-2.7615,-2.7371,-2.7219,-2.7231,-2.7231,-2.7231,-2.7231,-2.8235,-2.8937,-2.9081,-2.9416,-2.9545,-2.9366,-2.8569,-2.7679,-2.6726,-2.6556,-2.6334,-2.6033,-2.602,-2.6086,-2.6216,-2.6216,-2.6151,-2.6007,-2.5576,-2.5284,-2.5009,-2.4517,-2.4243,-2.4112,-2.4112,-2.4112,-2.4112,-2.4112,-2.4112,-2.4112,-2.4112,-2.4054,-2.4067,-2.3949,-2.3832,-2.376,-2.3463,-2.3403,-2.333,-2.3138,-2.3543,-2.4234,-2.4851,-2.5865,-2.6779,-2.6779,-2.6779,-2.6832,-2.7011,-2.7063,-2.7181,-2.7372,-2.764,-2.7855,-2.7955,-2.8152,-2.8348,-2.8411,-2.8411,-2.8304,-2.7996,-2.7057,-2.638,-2.638,-2.6863,-2.7344,-2.7619,-2.9016,-3.0054,-3.0393,-3.0342,-3.0443,-3.0692,-3.0692,-3.0609,-3.0526,-3.0526,-3.0526,-3.0526,-3.0526,-3.0526,-3.0526,-3.1212,-3.1984,-3.2696,-3.3442,-3.4187,-3.4899,-3.4899,-3.4994,-3.5198,-3.5198,-3.5274,-3.5441,-3.5228,-3.5088,-3.4947,-3.4594,-3.4578,-3.4802,-3.4833,-3.5115,-3.5526,-2.9665,-2.9749,-2.9583,-2.907,-2.8974,-2.8644,-2.7673,-2.7522,-2.7452,-2.7231,-2.7231,-2.7231,-2.7231,-2.7857,-2.8474,-2.9081,-2.9147,-2.9222,-2.951,-2.8715,-2.78,-2.6739,-2.6164,-2.6112,-2.6595,-2.6608,-2.687,-2.7406,-2.7406,-2.7131,-2.6608,-2.6569,-2.5981,-2.5022,-2.4922,-2.4609,-2.4112,-2.4112,-2.4112,-2.4112,-2.4112,-2.4112,-2.4112,-2.4112,-2.4008,-2.3891,-2.3891,-2.3713,-2.3463,-2.3403,-2.3271,-2.3138,-2.3078,-2.3543,-2.4234,-2.4851,-2.5865,-2.6779,-2.6779,-2.6779,-2.6779,-2.6578,-2.6698,-2.6832,-2.6832,-2.7144,-2.7488,-2.774,-2.8039,-2.8235,-2.8396,-2.8411,-2.7996,-2.6734,-2.6411,-2.6349,-2.638,-2.7078,-2.8007,-2.9267,-3.0234,-3.0831,-3.0855,-3.0733,-3.0692,-3.0692,-3.0551,-3.051,-3.0526,-3.0526,-3.0526,-3.0526,-3.0526,-3.0526,-3.0526,-3.1212,-3.1984,-3.2696,-3.3442,-3.4187,-3.4899,-3.4899,-3.4899,-3.4947,-3.4947,-3.4947,-3.4947,-3.4787,-3.4643,-3.4546,-3.4349,-3.4234,-3.4234,-3.4785,-3.5021,-3.5115,-2.9784,-2.9499,-2.9213,-2.8846,-2.8363,-2.7918,-2.7406,-2.7301,-2.7301,-2.7231,-2.7231,-2.7231,-2.7231,-2.7777,-2.8327,-2.8724,-2.904,-2.9272,-2.9113,-2.8312,-2.7624,-2.7196,-2.6791,-2.6778,-2.7196,-2.721,-2.7314,-2.7523,-2.7523,-2.7419,-2.7196,-2.6844,-2.6255,-2.5484,-2.5132,-2.4648,-2.4112,-2.4112,-2.4112,-2.4112,-2.4112,-2.4067,-2.4008,-2.4054,-2.3936,-2.3688,-2.3688,-2.3582,-2.3403,-2.3271,-2.3138,-2.3185,-2.3603,-2.4176,-2.4851,-2.5811,-2.6433,-2.6779,-2.6779,-2.6779,-2.6779,-2.6712,-2.687,-2.7041,-2.6951,-2.7299,-2.764,-2.7675,-2.789,-2.8103,-2.8152,-2.8152,-2.7984,-2.7561,-2.7517,-2.7596,-2.7922,-2.8478,-2.9124,-2.9892,-3.0443,-3.079,-3.079,-3.0651,-3.0568,-3.0568,-3.0526,-3.0526,-3.0526,-3.0526,-3.0526,-3.0526,-3.0526,-3.0526,-3.0526,-3.1686,-3.2415,-3.2696,-3.3905,-3.4618,-3.4899,-3.4899,-3.4899,-3.4899,-3.4899,-3.4899,-3.4899,-3.4851,-3.4756,-3.4594,-3.4546,-3.4448,-3.4399,-3.4626,-3.4675,-3.4754,-3.0058,-2.9725,-2.9272,-2.8704,-2.8093,-2.7626,-2.7254,-2.7231,-2.7231,-2.7231,-2.7231,-2.7231,-2.7231,-2.7696,-2.8099,-2.851,-2.8803,-2.9036,-2.8986,-2.8039,-2.7366,-2.7159,-2.704,-2.7175,-2.7456,-2.7523,-2.7523,-2.7523,-2.7323,-2.7323,-2.7523,-2.692,-2.6505,-2.6059,-2.5484,-2.4922,-2.4374,-2.4191,-2.4112,-2.4112,-2.4112,-2.4067,-2.3949,-2.4067,-2.3936,-2.3688,-2.3628,-2.3509,-2.3403,-2.3198,-2.3078,-2.3198,-2.3662,-2.4221,-2.4964,-2.6165,-2.65,-2.6568,-2.6727,-2.6779,-2.6779,-2.6674,-2.6765,-2.687,-2.6727,-2.7144,-2.7539,-2.7473,-2.774,-2.7955,-2.8005,-2.802,-2.8005,-2.8103,-2.8137,-2.8235,-2.859,-2.9136,-2.9605,-2.987,-3.0342,-3.0651,-3.0651,-3.0568,-3.0526,-3.0526,-3.0526,-3.0526,-3.0526,-3.0526,-3.0526,-3.0526,-3.0526,-3.0626,-3.0815,-3.2083,-3.2796,-3.3044,-3.4303,-3.4899,-3.4899,-3.4899,-3.4899,-3.4899,-3.4899,-3.4899,-3.4899,-3.4851,-3.4804,-3.4707,-3.4643,-3.4594,-3.4497,-3.4546,-3.4546,-3.4594,-3.0739,-3.0557,-3.0126,-2.8547,-2.8277,-2.8032,-2.73,-2.7231,-2.7231,-2.7231,-2.7231,-2.7231,-2.7231,-2.7371,-2.7765,-2.8431,-2.8339,-2.8407,-2.904,-2.811,-2.7162,-2.6396,-2.6769,-2.7175,-2.7456,-2.7523,-2.7523,-2.7456,-2.6985,-2.6985,-2.7469,-2.6918,-2.6691,-2.6648,-2.6086,-2.5511,-2.4996,-2.436,-2.4112,-2.4112,-2.4112,-2.4112,-2.4112,-2.4112,-2.4008,-2.3891,-2.3688,-2.3509,-2.3403,-2.3198,-2.3078,-2.3138,-2.3138,-2.3603,-2.435,-2.555,-2.5893,-2.6056,-2.6621,-2.6779,-2.6727,-2.6394,-2.6286,-2.6286,-2.6111,-2.6568,-2.7055,-2.7181,-2.7539,-2.784,-2.7955,-2.802,-2.802,-2.802,-2.802,-2.802,-2.8005,-2.8748,-2.9305,-2.9289,-3.0,-3.0485,-3.0526,-3.0526,-3.0526,-3.0526,-3.0526,-3.0526,-3.0526,-3.0526,-3.0526,-3.0526,-3.0526,-3.0874,-3.1576,-3.2332,-3.3061,-3.3806,-3.4551,-3.4899,-3.4899,-3.4899,-3.4899,-3.4899,-3.4899,-3.4899,-3.4899,-3.4756,-3.4691,-3.4691,-3.4546,-3.4497,-3.4497,-3.4643,-3.4691,-3.4691,-3.0593,-2.9694,-2.8818,-2.8419,-2.7833,-2.7474,-2.7254,-2.7231,-2.7231,-2.7231,-2.7231,-2.7231,-2.7231,-2.7219,-2.7464,-2.8042,-2.8042,-2.7882,-2.7605,-2.7555,-2.7162,-2.6396,-2.6769,-2.7175,-2.7456,-2.7523,-2.7323,-2.6918,-2.6782,-2.6577,-2.6346,-2.6577,-2.6477,-2.6049,-2.6285,-2.5876,-2.5022,-2.4792,-2.4491,-2.4112,-2.4112,-2.4067,-2.3949,-2.4067,-2.3936,-2.3688,-2.376,-2.37,-2.3509,-2.345,-2.3437,-2.3556,-2.4337,-2.5021,-2.566,-2.634,-2.6621,-2.6674,-2.6779,-2.6779,-2.6727,-2.6472,-2.663,-2.675,-2.6418,-2.6669,-2.693,-2.6841,-2.7115,-2.7386,-2.7437,-2.759,-2.774,-2.784,-2.7855,-2.7989,-2.8301,-2.8574,-2.8997,-2.9589,-2.9853,-3.0113,-3.0485,-3.0526,-3.0526,-3.0526,-3.0526,-3.0526,-3.0526,-3.0526,-3.0526,-3.0526,-3.0981,-3.1636,-3.2365,-3.258,-3.3061,-3.3806,-3.4551,-3.4899,-3.4899,-3.4899,-3.4899,-3.4899,-3.4899,-3.4899,-3.4899,-3.4851,-3.4851,-3.4851,-3.4804,-3.4804,-3.4804,-3.4851,-3.4851,-3.4851,-2.9742,-2.8972,-2.8219,-2.7951,-2.7508,-2.7231,-2.7231,-2.7231,-2.7231,-2.7231,-2.7231,-2.7231,-2.7231,-2.7301,-2.7464,-2.7893,-2.8042,-2.7763,-2.692,-2.7434,-2.7234,-2.6283,-2.6837,-2.7175,-2.7188,-2.7188,-2.6985,-2.6714,-2.6508,-2.6427,-2.6552,-2.6645,-2.6591,-2.6514,-2.6635,-2.6164,-2.5288,-2.5066,-2.4635,-2.4112,-2.4112,-2.4067,-2.4008,-2.4054,-2.3995,-2.3819,-2.3891,-2.3819,-2.37,-2.3628,-2.3628,-2.3734,-2.435,-2.4978,-2.5591,-2.6096,-2.6486,-2.6765,-2.6937,-2.6937,-2.6832,-2.6645,-2.6645,-2.6592,-2.6365,-2.651,-2.6654,-2.6563,-2.6893,-2.7181,-2.7181,-2.7423,-2.7625,-2.7725,-2.779,-2.789,-2.8204,-2.8574,-2.8997,-2.9544,-2.9897,-3.0215,-3.0468,-3.0526,-3.0526,-3.0526,-3.0526,-3.0526,-3.0526,-3.0526,-3.0526,-3.0526,-3.1196,-3.1967,-3.268,-3.2978,-3.3491,-3.4237,-3.4684,-3.4899,-3.4899,-3.4899,-3.4899,-3.4899,-3.4899,-3.4899,-3.4899,-3.4899,-3.4899,-3.4899,-3.4899,-3.4899,-3.4899,-3.4899,-3.4899,-3.4899,-2.8547,-2.8242,-2.7985,-2.73,-2.7231,-2.7231,-2.7231,-2.7231,-2.7231,-2.7231,-2.7231,-2.7231,-2.7231,-2.7371,-2.7615,-2.7881,-2.8235,-2.8017,-2.6995,-2.7521,-2.7316,-2.5947,-2.685,-2.7121,-2.6577,-2.6645,-2.6645,-2.6577,-2.607,-2.6346,-2.7255,-2.685,-2.6918,-2.7443,-2.6987,-2.6438,-2.5863,-2.5288,-2.4713,-2.4191,-2.4138,-2.4112,-2.4112,-2.4112,-2.4112,-2.4054,-2.3949,-2.3891,-2.3891,-2.3688,-2.3628,-2.3688,-2.3734,-2.4176,-2.4738,-2.5342,-2.596,-2.651,-2.7063,-2.7144,-2.7003,-2.6884,-2.65,-2.6179,-2.6111,-2.6204,-2.6297,-2.6297,-2.6788,-2.7181,-2.7181,-2.7423,-2.7625,-2.7625,-2.774,-2.784,-2.784,-2.8605,-2.9213,-2.9243,-2.9897,-3.0342,-3.0443,-3.0468,-3.0526,-3.0526,-3.0526,-3.0526,-3.0526,-3.0526,-3.0543,-3.0626,-3.1338,-3.2067,-3.2779,-3.3524,-3.4237,-3.4899,-3.4899,-3.4899,-3.4899,-3.4899,-3.4899,-3.4899,-3.4899,-3.4899,-3.4899,-3.4899,-3.4899,-3.4899,-3.4899,-3.4899,-3.4899,-3.4899,-3.4899,-3.4899,-2.8407,-2.7798,-2.7357,-2.7254,-2.7231,-2.7231,-2.7231,-2.7231,-2.7231,-2.7231,-2.7231,-2.7231,-2.7231,-2.7371,-2.7615,-2.7881,-2.7901,-2.7621,-2.6971,-2.6981,-2.6658,-2.5935,-2.6302,-2.622,-2.5594,-2.6302,-2.6289,-2.537,-2.5229,-2.5288,-2.5569,-2.5931,-2.6358,-2.6918,-2.7193,-2.7027,-2.6452,-2.589,-2.5301,-2.4739,-2.4295,-2.4112,-2.4112,-2.4112,-2.4112,-2.4112,-2.4054,-2.4067,-2.4067,-2.3995,-2.3995,-2.4157,-2.4908,-2.5231,-2.5563,-2.651,-2.6959,-2.7181,-2.7181,-2.7248,-2.7299,-2.713,-2.6989,-2.6727,-2.634,-2.6272,-2.6272,-2.6272,-2.675,-2.7181,-2.7181,-2.759,-2.7905,-2.7905,-2.7955,-2.7955,-2.7955,-2.8137,-2.8414,-2.8795,-2.8889,-2.9257,-3.0017,-3.0359,-3.0526,-3.0526,-3.0526,-3.0526,-3.0526,-3.0526,-3.0733,-3.1328,-3.2083,-3.2812,-3.3541,-3.4286,-3.4733,-3.4899,-3.4899,-3.4899,-3.4899,-3.4899,-3.4899,-3.4899,-3.4899,-3.4899,-3.4899,-3.4899,-3.4899,-3.4899,-3.4899,-3.4899,-3.4899,-3.4899,-3.4899,-3.4899,-2.781,-2.7485,-2.7231,-2.7231,-2.7231,-2.7231,-2.7231,-2.7231,-2.7231,-2.7231,-2.7231,-2.7231,-2.7231,-2.7371,-2.7684,-2.803,-2.7794,-2.75,-2.6971,-2.6798,-2.6165,-2.5099,-2.5804,-2.5652,-2.4527,-2.5441,-2.5569,-2.4862,-2.4862,-2.4933,-2.5158,-2.5276,-2.5767,-2.6564,-2.6663,-2.6706,-2.6661,-2.6347,-2.5746,-2.4996,-2.4648,-2.436,-2.4112,-2.4112,-2.4112,-2.4112,-2.4112,-2.4112,-2.4112,-2.4112,-2.4287,-2.4607,-2.5147,-2.5687,-2.6229,-2.6788,-2.7218,-2.7488,-2.7423,-2.7335,-2.7284,-2.7233,-2.7041,-2.6846,-2.6621,-2.6433,-2.6379,-2.6326,-2.6592,-2.6893,-2.7093,-2.7401,-2.764,-2.779,-2.7855,-2.7905,-2.7905,-2.8088,-2.835,-2.8559,-2.8919,-2.9438,-3.0189,-3.0401,-3.0526,-3.0526,-3.0526,-3.0526,-3.0526,-3.0526,-3.0815,-3.156,-3.2315,-3.3044,-3.3789,-3.4535,-3.4851,-3.4804,-3.4851,-3.4851,-3.4804,-3.4899,-3.4899,-3.4899,-3.4899,-3.4899,-3.4899,-3.4899,-3.4899,-3.4899,-3.4899,-3.4899,-3.4899,-3.4899,-3.4739,-3.4497,-2.7311,-2.7231,-2.7231,-2.7231,-2.7231,-2.7231,-2.7231,-2.7231,-2.7231,-2.7231,-2.7231,-2.7219,-2.7219,-2.7452,-2.7765,-2.8179,-2.7867,-2.7404,-2.6959,-2.6627,-2.5769,-2.4204,-2.5205,-2.5087,-2.3446,-2.4299,-2.4719,-2.4719,-2.4719,-2.4945,-2.5453,-2.5052,-2.5475,-2.6483,-2.6158,-2.6316,-2.6817,-2.6713,-2.6125,-2.5236,-2.5114,-2.4687,-2.4243,-2.4151,-2.4112,-2.4112,-2.4112,-2.4112,-2.4112,-2.4112,-2.4447,-2.4835,-2.4948,-2.5646,-2.6457,-2.6616,-2.7049,-2.7473,-2.7575,-2.7423,-2.7269,-2.7233,-2.7078,-2.6884,-2.6832,-2.6712,-2.6525,-2.6394,-2.6539,-2.6683,-2.6989,-2.7144,-2.7321,-2.7524,-2.774,-2.784,-2.779,-2.8155,-2.8479,-2.8511,-2.9287,-2.9984,-3.0342,-3.0426,-3.0526,-3.0526,-3.0526,-3.0526,-3.0526,-3.06,-3.104,-3.1785,-3.2497,-3.3226,-3.3972,-3.4584,-3.4804,-3.4643,-3.4835,-3.4851,-3.4691,-3.4851,-3.4899,-3.4899,-3.4899,-3.4899,-3.4899,-3.4899,-3.4899,-3.4899,-3.4899,-3.4835,-3.4739,-3.4578,-3.4218,-3.3764,-2.7242,-2.7231,-2.7231,-2.7231,-2.7231,-2.7231,-2.7231,-2.7231,-2.7231,-2.7231,-2.7371,-2.7441,-2.7441,-2.7846,-2.8179,-2.8431,-2.7531,-2.7007,-2.686,-2.5985,-2.5088,-2.412,-2.4204,-2.3779,-2.2852,-2.3287,-2.4009,-2.4933,-2.4683,-2.5052,-2.6082,-2.5664,-2.6,-2.6905,-2.6892,-2.7056,-2.7379,-2.6883,-2.6582,-2.636,-2.5428,-2.4922,-2.4792,-2.4308,-2.4112,-2.4112,-2.4112,-2.4112,-2.4112,-2.4112,-2.4171,-2.4287,-2.4835,-2.5118,-2.5439,-2.6404,-2.6788,-2.6945,-2.7473,-2.7575,-2.7524,-2.7386,-2.735,-2.7248,-2.7055,-2.6832,-2.6765,-2.6727,-2.6922,-2.7115,-2.7181,-2.7372,-2.7524,-2.7437,-2.7755,-2.7905,-2.7675,-2.7974,-2.835,-2.8654,-2.9454,-2.9957,-2.9897,-3.0241,-3.0526,-3.0526,-3.0526,-3.0526,-3.0526,-3.1123,-3.1802,-3.2531,-3.3259,-3.4005,-3.4733,-3.4849,-3.4787,-3.4546,-3.4804,-3.4851,-3.4691,-3.4851,-3.4899,-3.4899,-3.4899,-3.4899,-3.4899,-3.4899,-3.4899,-3.4899,-3.4899,-3.4611,-3.4084,-3.3287,-3.2955,-3.2848,-2.7231,-2.7231,-2.7231,-2.7231,-2.7231,-2.7231,-2.7231,-2.7231,-2.7231,-2.7231,-2.7371,-2.7522,-2.7522,-2.7418,-2.7499,-2.7753,-2.6827,-2.6382,-2.686,-2.5913,-2.4791,-2.3537,-2.3768,-2.3338,-2.2035,-2.2553,-2.3069,-2.3635,-2.4112,-2.4622,-2.504,-2.4671,-2.5158,-2.6346,-2.6102,-2.6526,-2.7443,-2.705,-2.683,-2.6595,-2.5571,-2.5127,-2.4896,-2.4334,-2.4112,-2.4112,-2.4112,-2.4112,-2.4112,-2.4112,-2.4345,-2.4677,-2.4892,-2.5439,-2.6028,-2.6563,-2.6893,-2.7167,-2.7437,-2.7386,-2.7248,-2.7196,-2.7093,-2.7041,-2.6899,-2.6846,-2.6779,-2.6779,-2.6803,-2.6855,-2.7041,-2.713,-2.7181,-2.7284,-2.7437,-2.7488,-2.7372,-2.776,-2.8319,-2.912,-2.9633,-2.9957,-3.0156,-3.0384,-3.0526,-3.0526,-3.0526,-3.0526,-3.0526,-3.1179,-3.1951,-3.2663,-3.3408,-3.4154,-3.4883,-3.4899,-3.4804,-3.4594,-3.4804,-3.4787,-3.4594,-3.4787,-3.4899,-3.4899,-3.4899,-3.4899,-3.4899,-3.4899,-3.4739,-3.4448,-3.4448,-3.4118,-3.3475,-3.2594,-3.225,-3.2155]}]]